[[{"header":{"parameterUnit":"m.s-1","parameterCategory":1,"la1":31.0,"la2":29.5877,"lo1":-88.7671,"lo2":-86.6584,"dy":0.0162,"dx":0.0185,"nx":115,"ny":88,"refTime":"2026-05-18T12:00:00:Z","depth":0,"parameterNumber":2,"parameterNumberName":"U-component_of_WINDS"},"data":[0.0,0.0,0.0,0.0,0.0,0.0,0.0,0.0,0.0,0.0,0.0,0.0,0.0,0.0,0.0,0.0,0.0,0.0,0.0,0.0,0.0,0.0,0.0,0.0,0.0,0.0,0.0,0.0,0.0,0.0,0.0,0.0,0.0,0.0,0.0,0.0,0.0,0.0,0.0,0.0,0.0,0.0,0.0,0.0,0.0,0.0,0.0,0.0,0.0,0.0,0.0,0.0,0.0,0.0,0.0,0.0,0.0,0.0,0.0,0.0,0.0,0.0,0.0,0.0,0.0,0.0,0.0,0.0,0.0,0.0,0.0,0.0,0.0,0.0,0.0,0.0,0.0,0.0,0.0,0.0,0.0,0.0,0.0,0.0,0.0,0.0,0.0,0.0,0.0,0.0,0.0,0.0,0.0,0.0,0.0,0.0,0.0,0.0,0.0,0.0,0.0,0.0,0.0,0.0,0.0,0.0,0.0,0.0,0.0,0.0,0.0,0.0,0.0,0.0,0.0,0.0,0.0,0.0,0.0,0.0,0.0,0.0,0.0,0.0,0.0,0.0,0.0,0.0,0.0,0.0,0.0,0.0,0.0,0.0,0.0,0.0,0.0,0.0,0.0,0.0,0.0,0.0,0.0,0.0,0.0,0.0,0.0,0.0,0.0,0.0,0.0,0.0,0.0,0.0,0.0,0.0,0.0,0.0,0.0,0.0,0.0,0.0,0.0,0.0,0.0,0.0,0.0,0.0,0.0,0.0,0.0,0.0,0.0,0.0,0.0,0.0,0.0,0.0,0.0,0.0,0.0,0.0,0.0,0.0,0.0,0.0,0.0,0.0,0.0,0.0,0.0,0.0,0.0,0.0,0.0,0.0,0.0,0.0,0.0,0.0,0.0,0.0,0.0,0.0,0.0,0.0,0.0,0.0,0.0,0.0,0.0,0.0,0.0,0.0,0.0,0.0,0.0,0.0,0.0,0.0,0.0,0.0,0.0,0.0,0.0,0.0,0.0,0.0,0.0,0.0,0.0,0.0,0.0,0.0,0.0,0.0,0.0,0.0,0.0,0.0,0.0,0.0,0.0,0.0,0.0,0.0,0.0,0.0,0.0,0.0,0.0,0.0,0.0,0.0,0.0,0.0,0.0,0.0,0.0,0.0,0.0,0.0,0.0,0.0,0.0,0.0,0.0,0.0,0.0,0.0,0.0,0.0,0.0,0.0,0.0,0.0,0.0,0.0,0.0,0.0,0.0,0.0,0.0,0.0,0.0,0.0,0.0,0.0,0.0,0.0,0.0,0.0,0.0,0.0,0.0,0.0,0.0,0.0,0.0,0.0,0.0,0.0,0.0,0.0,0.0,0.0,0.0,0.0,0.0,0.0,0.0,0.0,0.0,0.0,0.0,0.0,0.0,0.0,0.0,0.0,0.0,0.0,0.0,0.0,0.0,0.0,0.0,0.0,0.0,0.0,0.0,0.0,0.0,0.0,0.0,0.0,0.0,0.0,0.0,0.0,0.0,0.0,0.0,0.0,0.0,0.0,0.0,0.0,0.0,0.0,0.0,0.0,0.0,0.0,0.0,0.0,0.0,0.0,0.0,0.0,0.0,0.0,0.0,0.0,0.0,0.0,0.0,0.0,0.0,0.0,0.0,0.0,0.0,0.0,0.0,0.0,0.0,0.0,0.0,0.0,0.0,0.0,0.0,0.0,0.0,0.0,0.0,0.0,0.0,0.0,0.0,0.0,0.0,0.0,0.0,0.0,0.0,0.0,0.0,0.0,0.0,0.0,0.0,0.0,0.0,0.0,0.0,0.0,0.0,0.0,0.0,0.0,0.0,0.0,0.0,0.0,0.0,0.0,0.0,0.0,0.0,0.0,0.0,0.0,0.0,0.0,0.0,0.0,0.0,0.0,0.0,0.0,0.0,0.0,0.0,0.0,0.0,0.0,0.0,0.0,0.0,0.0,0.0,0.0,0.0,0.0,0.0,0.0,0.0,0.0,0.0,0.0,0.0,0.0,0.0,0.0,0.0,0.0,0.0,0.0,0.0,0.0,0.0,0.0,0.0,0.0,0.0,0.0,0.0,0.0,0.0,0.0,0.0,0.0,0.0,0.0,0.0,0.0,0.0,0.0,0.0,0.0,0.0,0.0,0.0,0.0,0.0,0.0,0.0,0.0,0.0,0.0,0.0,0.0,0.0,0.0,0.0,0.0,0.0,0.0,0.0,0.0,0.0,0.0,0.0,0.0,0.0,0.0,0.0,0.0,0.0,0.0,0.0,0.0,0.0,0.0,0.0,0.0,0.0,0.0,0.0,0.0,0.0,0.0,0.0,0.0,0.0,0.0,0.0,0.0,0.0,0.0,0.0,0.0,0.0,0.0,0.0,0.0,0.0,0.0,0.0,0.0,0.0,0.0,0.0,0.0,0.0,0.0,0.0,0.0,0.0,0.0,0.0,0.0,0.0,0.0,0.0,0.0,0.0,0.0,0.0,0.0,0.0,0.0,0.0,0.0,0.0,0.0,0.0,0.0,0.0,0.0,0.0,0.0,0.0,0.0,0.0,0.0,0.0,0.0,0.0,0.0,0.0,0.0,0.0,0.0,0.0,0.0,0.0,0.0,0.0,0.0,0.0,0.0,0.0,0.0,0.0,0.0,0.0,0.0,0.0,0.0,0.0,0.0,0.0,0.0,0.0,0.0,0.0,0.0,0.0,0.0,0.0,0.0,0.0,0.0,0.0,0.0,0.0,0.0,0.0,0.0,0.0,0.0,0.0,0.0,0.0,0.0,0.0,0.0,0.0,0.0,0.0,0.0,0.0,0.0,0.0,0.0,0.0,0.0,0.0,0.0,0.0,0.0,0.0,0.0,0.0,0.0,0.0,0.0,0.0,0.0,0.0,0.0,0.0,0.0,0.0,0.0,0.0,0.0,0.0,0.0,0.0,0.0,0.0,0.0,0.0,0.0,0.0,0.0,0.0,0.0,0.0,0.0,0.0,0.0,0.0,0.0,0.0,0.0,0.0,0.0,0.0,0.0,0.0,0.0,0.0,0.0,0.0,0.0,0.0,0.0,0.0,0.0,0.0,0.0,0.0,0.0,0.0,0.0,0.0,0.0,0.0,0.0,0.0,0.0,0.0,0.0,0.0,0.0,0.0,0.0,0.0,0.0,0.0,0.0,0.0,0.0,0.0,0.0,0.0,0.0,0.0,0.0,0.0,0.0,0.0,0.0,0.0,0.0,0.0,0.0,0.0,0.0,0.0,0.0,0.0,0.0,0.0,0.0,0.0,0.0,0.0,0.0,0.0,0.0,0.0,0.0,0.0,0.0,0.0,0.0,0.0,0.0,0.0,0.0,0.0,0.0,0.0,0.0,0.0,0.0,0.0,0.0,0.0,0.0,0.0,0.0,0.0,0.0,0.0,0.0,0.0,0.0,0.0,0.0,0.0,0.0,0.0,0.0,0.0,0.0,0.0,0.0,0.0,0.0,0.0,0.0,0.0,0.0,0.0,0.0,0.0,0.0,0.0,0.0,0.0,0.0,0.0,0.0,0.0,0.0,0.0,0.0,0.0,0.0,0.0,0.0,0.0,0.0,0.0,0.0,0.0,0.0,0.0,0.0,0.0,0.0,0.0,0.0,0.0,0.0,0.0,0.0,0.0,0.0,0.0,0.0,0.0,0.0,0.0,0.0,0.0,0.0,0.0,0.0,0.0,0.0,0.0,0.0,0.0,0.0,0.0,0.0,0.0,0.0,0.0,0.0,0.0,0.0,0.0,0.0,0.0,0.0,0.0,0.0,0.0,0.0,0.0,0.0,0.0,0.0,0.0,0.0,0.0,0.0,0.0,0.0,0.0,0.0,0.0,0.0,0.0,0.0,0.0,0.0,0.0,0.0,0.0,0.0,0.0,0.0,0.0,0.0,0.0,0.0,0.0,0.0,0.0,0.0,0.0,0.0,0.0,0.0,0.0,0.0,0.0,0.0,0.0,0.0,0.0,0.0,0.0,0.0,0.0,0.0,0.0,0.0,0.0,0.0,0.0,0.0,0.0,0.0,0.0,0.0,0.0,0.0,0.0,0.0,0.0,0.0,0.0,0.0,0.0,0.0,0.0,0.0,0.0,0.0,0.0,0.0,0.0,0.0,0.0,0.0,0.0,0.0,0.0,0.0,0.0,0.0,0.0,0.0,0.0,0.0,0.0,0.0,0.0,0.0,0.0,0.0,0.0,0.0,0.0,0.0,0.0,0.0,0.0,0.0,0.0,0.0,0.0,0.0,0.0,0.0,-0.8919,0.0,0.0,0.0,0.0,0.0,0.0,0.0,0.0,0.0,0.0,0.0,0.0,0.0,0.0,0.0,0.0,0.0,0.0,0.0,0.0,0.0,0.0,0.0,0.0,0.0,0.0,0.0,0.0,0.0,0.0,0.0,0.0,0.0,0.0,0.0,0.0,0.0,0.0,0.0,0.0,0.0,0.0,0.0,0.0,0.0,0.0,0.0,0.0,0.0,0.0,0.0,0.0,0.0,0.0,0.0,0.0,0.0,0.0,0.0,0.0,0.0,0.0,0.0,0.0,0.0,0.0,0.0,0.0,0.0,0.0,0.0,0.0,0.0,0.0,0.0,0.0,0.0,0.0,0.0,0.0,0.0,0.0,0.0,0.0,0.0,0.0,0.0,0.0,0.0,0.0,0.0,0.0,0.0,0.0,0.0,0.0,0.0,0.0,0.0,0.0,0.0,0.0,0.0,0.0,0.0,0.0,0.0,0.0,0.0,0.0,-0.8919,-0.8919,-0.8919,-0.8919,-0.8914,0.0,0.0,0.0,0.0,0.0,0.0,0.0,0.0,0.0,0.0,0.0,0.0,0.0,0.0,0.0,0.0,0.0,0.0,0.0,0.0,0.0,0.0,0.0,0.0,0.0,0.0,0.0,0.0,0.0,0.0,0.0,0.0,0.0,0.0,0.0,0.0,0.0,0.0,0.0,0.0,0.0,0.0,0.0,0.0,0.0,0.0,0.0,0.0,0.0,0.0,0.0,0.0,0.0,0.0,0.0,0.0,0.0,0.0,0.0,0.0,0.0,0.0,0.0,0.0,0.0,0.0,0.0,0.0,0.0,0.0,0.0,0.0,0.0,0.0,0.0,0.0,0.0,0.0,0.0,0.0,0.0,0.0,0.0,0.0,0.0,0.0,0.0,0.0,0.0,0.0,0.0,0.0,0.0,0.0,0.0,0.0,0.0,0.0,0.0,0.0,0.0,0.0,0.0,0.0,0.0,0.0,0.0,0.0,0.0,0.0,0.0,0.0,-0.9309,-0.9315,-0.9196,0.0,0.0,0.0,0.0,0.0,0.0,0.0,0.0,0.0,0.0,0.0,0.0,0.0,0.0,0.0,0.0,0.0,0.0,0.0,0.0,0.0,0.0,0.0,0.0,0.0,0.0,0.0,0.0,0.0,0.0,0.0,0.0,0.0,0.0,0.0,0.0,0.0,0.0,0.0,0.0,0.0,0.0,0.0,0.0,0.0,0.0,0.0,0.0,0.0,0.0,0.0,0.0,0.0,0.0,0.0,0.0,0.0,0.0,0.0,0.0,0.0,0.0,0.0,0.0,0.0,0.0,0.0,0.0,0.0,0.0,0.0,0.0,0.0,0.0,0.0,0.0,0.0,0.0,0.0,0.0,0.0,0.0,0.0,0.0,0.0,0.0,0.0,0.0,0.0,0.0,0.0,0.0,0.0,0.0,0.0,0.0,0.0,0.0,0.0,0.0,0.0,0.0,0.0,0.0,0.0,0.0,0.0,0.0,0.0,0.0,-0.9899,-0.9906,-1.0538,0.0,-0.9967,0.0,0.0,0.0,0.0,0.0,0.0,0.0,0.0,0.0,0.0,0.0,0.0,0.0,0.0,0.0,0.0,0.0,0.0,0.0,0.0,0.0,0.0,0.0,0.0,0.0,0.0,0.0,0.0,0.0,0.0,0.0,0.0,0.0,0.0,0.0,0.0,0.0,0.0,0.0,0.0,0.0,0.0,0.0,0.0,0.0,0.0,0.0,0.0,0.0,0.0,0.0,0.0,0.0,0.0,0.0,0.0,0.0,0.0,0.0,0.0,0.0,0.0,0.0,0.0,0.0,0.0,0.0,0.0,0.0,0.0,0.0,0.0,0.0,0.0,0.0,0.0,0.0,0.0,0.0,0.0,0.0,0.0,0.0,0.0,0.0,0.0,0.0,0.0,0.0,0.0,0.0,0.0,0.0,0.0,0.0,0.0,0.0,0.0,0.0,0.0,0.0,0.0,0.0,0.0,0.0,0.0,0.0,0.0,0.0,0.0,-1.021,-1.0639,-1.0944,-1.0974,0.0,0.0,0.0,0.0,0.0,0.0,0.0,0.0,0.0,0.0,0.0,0.0,0.0,0.0,0.0,0.0,0.0,0.0,0.0,0.0,0.0,0.0,0.0,0.0,0.0,0.0,0.0,0.0,0.0,0.0,0.0,0.0,0.0,0.0,0.0,0.0,0.0,0.0,0.0,0.0,0.0,0.0,0.0,0.0,0.0,0.0,0.0,0.0,0.0,0.0,0.0,0.0,0.0,0.0,0.0,0.0,0.0,0.0,0.0,0.0,0.0,0.0,0.0,0.0,0.0,0.0,0.0,0.0,0.0,0.0,0.0,0.0,0.0,0.0,0.0,0.0,0.0,0.0,0.0,0.0,0.0,0.0,0.0,0.0,0.0,0.0,0.0,0.0,0.0,0.0,0.0,0.0,0.0,0.0,0.0,0.0,0.0,0.0,0.0,0.0,0.0,0.0,0.0,0.0,0.0,0.0,0.0,0.0,0.0,0.0,-0.981,0.0,-1.1637,-1.1323,-1.1113,-1.1113,0.0,0.0,0.0,0.0,0.0,0.0,0.0,0.0,0.0,0.0,0.0,0.0,0.0,0.0,0.0,0.0,0.0,0.0,0.0,0.0,0.0,0.0,0.0,0.0,0.0,0.0,0.0,0.0,0.0,0.0,0.0,0.0,0.0,0.0,0.0,0.0,0.0,0.0,0.0,0.0,0.0,0.0,0.0,0.0,0.0,0.0,0.0,0.0,0.0,0.0,0.0,0.0,0.0,0.0,0.0,0.0,0.0,0.0,0.0,0.0,0.0,0.0,0.0,0.0,0.0,0.0,0.0,0.0,0.0,0.0,0.0,0.0,0.0,0.0,0.0,0.0,0.0,0.0,0.0,0.0,0.0,0.0,0.0,0.0,0.0,0.0,0.0,0.0,0.0,0.0,0.0,0.0,0.0,0.0,0.0,0.0,0.0,0.0,0.0,0.0,0.0,0.0,0.0,0.0,0.0,0.0,0.0,0.0,0.0,-1.0301,-1.1763,-1.3125,-1.1872,-1.1096,0.0,0.0,0.0,0.0,0.0,0.0,0.0,0.0,0.0,0.0,0.0,0.0,0.0,0.0,0.0,0.0,0.0,0.0,0.0,0.0,0.0,0.0,0.0,0.0,0.0,0.0,0.0,0.0,0.0,0.0,0.0,0.0,0.0,0.0,0.0,0.0,0.0,0.0,0.0,0.0,0.0,0.0,0.0,0.0,0.0,0.0,0.0,0.0,0.0,0.0,0.0,0.0,0.0,0.0,0.0,0.0,0.0,0.0,0.0,0.0,0.0,0.0,0.0,0.0,0.0,0.0,0.0,0.0,0.0,0.0,0.0,0.0,0.0,0.0,0.0,0.0,0.0,0.0,0.0,0.0,0.0,0.0,0.0,0.0,0.0,0.0,0.0,0.0,0.0,0.0,0.0,0.0,0.0,0.0,0.0,0.0,0.0,0.0,0.0,0.0,0.0,0.0,0.0,0.0,0.0,0.0,0.0,0.0,0.0,-0.897,-1.0341,-1.135,-1.1881,-1.1391,-1.0876,0.0,0.0,0.0,0.0,0.0,0.0,0.0,0.0,0.0,0.0,0.0,0.0,0.0,0.0,0.0,0.0,0.0,0.0,0.0,0.0,0.0,0.0,0.0,0.0,0.0,0.0,0.0,0.0,0.0,0.0,0.0,0.0,0.0,0.0,0.0,0.0,0.0,0.0,0.0,0.0,0.0,0.0,0.0,0.0,0.0,0.0,0.0,0.0,0.0,0.0,0.0,0.0,0.0,0.0,0.0,0.0,0.0,0.0,0.0,0.0,0.0,0.0,0.0,0.0,0.0,0.0,0.0,0.0,0.0,0.0,0.0,0.0,0.0,0.0,0.0,0.0,0.0,0.0,0.0,0.0,0.0,0.0,0.0,0.0,0.0,0.0,0.0,0.0,0.0,0.0,0.0,0.0,0.0,0.0,0.0,0.0,0.0,0.0,0.0,0.0,0.0,0.0,0.0,0.0,0.0,0.0,0.0,0.0,0.0,-1.0022,0.0,-1.1586,0.0,-1.1357,-1.0859,0.0,0.0,0.0,0.0,0.0,0.0,0.0,0.0,0.0,0.0,0.0,0.0,0.0,0.0,0.0,0.0,0.0,0.0,0.0,0.0,0.0,0.0,0.0,0.0,0.0,0.0,0.0,0.0,0.0,0.0,0.0,0.0,0.0,0.0,0.0,0.0,0.0,0.0,0.0,0.0,0.0,0.0,0.0,0.0,0.0,0.0,0.0,0.0,0.0,0.0,0.0,0.0,0.0,0.0,0.0,0.0,0.0,0.0,0.0,0.0,0.0,0.0,0.0,0.0,0.0,0.0,0.0,0.0,0.0,0.0,0.0,0.0,0.0,0.0,0.0,0.0,0.0,0.0,0.0,0.0,0.0,0.0,0.0,0.0,0.0,0.0,0.0,0.0,0.0,0.0,0.0,0.0,0.0,0.0,0.0,0.0,0.0,0.0,0.0,0.0,0.0,0.0,0.0,0.0,0.0,0.0,0.0,0.0,-1.0804,-1.2173,-1.2278,-1.2609,-1.3312,-1.1898,-1.112,0.0,0.0,0.0,0.0,0.0,0.0,0.0,0.0,0.0,0.0,0.0,0.0,0.0,0.0,0.0,0.0,0.0,0.0,0.0,0.0,0.0,0.0,0.0,0.0,0.0,0.0,0.0,0.0,0.0,0.0,0.0,0.0,0.0,0.0,0.0,0.0,0.0,0.0,0.0,0.0,0.0,0.0,0.0,0.0,0.0,0.0,0.0,0.0,0.0,0.0,0.0,0.0,0.0,0.0,0.0,0.0,0.0,0.0,0.0,0.0,0.0,0.0,0.0,0.0,0.0,0.0,0.0,0.0,0.0,0.0,0.0,0.0,0.0,0.0,0.0,0.0,0.0,0.0,0.0,0.0,0.0,0.0,0.0,0.0,0.0,0.0,0.0,0.0,0.0,0.0,0.0,0.0,0.0,0.0,0.0,0.0,0.0,0.0,0.0,0.0,0.0,0.0,0.0,0.0,0.0,0.0,0.0,0.0,0.0,-1.2363,-1.2826,-1.2931,-1.2635,-1.2178,-1.1434,0.0,0.0,0.0,0.0,0.0,0.0,0.0,0.0,0.0,0.0,0.0,0.0,0.0,0.0,0.0,0.0,0.0,0.0,0.0,0.0,0.0,0.0,0.0,0.0,0.0,0.0,0.0,0.0,0.0,0.0,0.0,0.0,0.0,0.0,0.0,0.0,0.0,0.0,0.0,0.0,0.0,0.0,0.0,0.0,0.0,0.0,0.0,0.0,0.0,0.0,0.0,0.0,0.0,0.0,0.0,0.0,0.0,0.0,0.0,0.0,0.0,0.0,0.0,0.0,0.0,0.0,0.0,0.0,0.0,0.0,0.0,0.0,0.0,0.0,0.0,0.0,0.0,0.0,0.0,0.0,0.0,0.0,0.0,0.0,0.0,0.0,0.0,0.0,0.0,0.0,0.0,0.0,0.0,0.0,0.0,0.0,0.0,0.0,0.0,0.0,0.0,0.0,0.0,0.0,0.0,0.0,0.0,0.0,0.0,-1.4511,-1.4314,-1.3988,-1.3557,-1.2999,-1.2271,-1.1316,0.0,0.0,0.0,0.0,0.0,0.0,0.0,0.0,0.0,0.0,0.0,0.0,0.0,0.0,0.0,0.0,0.0,0.0,0.0,0.0,0.0,0.0,0.0,0.0,0.0,0.0,0.0,0.0,0.0,0.0,0.0,0.0,0.0,0.0,0.0,0.0,0.0,0.0,0.0,0.0,0.0,0.0,0.0,0.0,0.0,0.0,0.0,0.0,0.0,0.0,0.0,0.0,0.0,0.0,0.0,0.0,0.0,0.0,0.0,0.0,0.0,0.0,0.0,0.0,0.0,0.0,0.0,0.0,0.0,0.0,0.0,0.0,0.0,0.0,0.0,0.0,0.0,0.0,0.0,0.0,0.0,0.0,0.0,0.0,0.0,0.0,0.0,0.0,0.0,0.0,0.0,0.0,0.0,0.0,0.0,0.0,0.0,0.0,0.0,0.0,0.0,0.0,0.0,0.0,0.0,0.0,0.0,0.0,-1.8169,-1.6665,-1.5808,-1.568,-1.4353,-1.3515,0.0,0.0,0.0,0.0,0.0,0.0,0.0,0.0,0.0,0.0,0.0,0.0,0.0,0.0,0.0,0.0,0.0,0.0,0.0,0.0,0.0,0.0,0.0,0.0,0.0,0.0,0.0,0.0,0.0,0.0,0.0,0.0,0.0,0.0,0.0,0.0,0.0,0.0,0.0,0.0,0.0,0.0,0.0,0.0,0.0,0.0,0.0,0.0,0.0,0.0,0.0,0.0,0.0,0.0,0.0,0.0,0.0,0.0,0.0,0.0,0.0,0.0,0.0,0.0,0.0,0.0,0.0,0.0,0.0,0.0,0.0,0.0,0.0,0.0,0.0,0.0,0.0,0.0,0.0,0.0,0.0,0.0,0.0,0.0,0.0,0.0,0.0,0.0,0.0,0.0,0.0,0.0,0.0,0.0,0.0,0.0,0.0,0.0,0.0,0.0,0.0,0.0,0.0,0.0,0.0,0.0,0.0,0.0,0.0,-1.8291,-1.8822,-1.8472,-1.727,-1.6333,-1.5073,0.0,0.0,0.0,0.0,0.0,0.0,0.0,0.0,0.0,0.0,0.0,0.0,0.0,0.0,0.0,0.0,0.0,0.0,0.0,0.0,0.0,0.0,0.0,0.0,0.0,0.0,0.0,0.0,0.0,0.0,0.0,0.0,0.0,0.0,0.0,0.0,0.0,0.0,0.0,0.0,0.0,0.0,0.0,0.0,0.0,0.0,0.0,0.0,0.0,0.0,0.0,0.0,0.0,0.0,0.0,0.0,0.0,0.0,0.0,0.0,0.0,0.0,0.0,0.0,0.0,0.0,0.0,0.0,0.0,0.0,0.0,0.0,0.0,0.0,0.0,0.0,0.0,0.0,0.0,0.0,0.0,0.0,0.0,0.0,0.0,0.0,0.0,0.0,0.0,0.0,0.0,0.0,0.0,0.0,0.0,0.0,0.0,0.0,0.0,0.0,0.0,0.0,0.0,0.0,0.0,0.0,0.0,0.0,-1.7746,-1.9477,-2.0691,-2.0688,-1.9393,-1.7935,-1.6265,0.0,0.0,0.0,0.0,0.0,0.0,0.0,0.0,0.0,0.0,0.0,0.0,0.0,0.0,0.0,0.0,0.0,0.0,0.0,0.0,0.0,0.0,0.0,0.0,0.0,0.0,0.0,0.0,0.0,0.0,0.0,0.0,0.0,0.0,0.0,0.0,0.0,0.0,0.0,0.0,0.0,0.0,0.0,0.0,0.0,0.0,0.0,0.0,0.0,0.0,0.0,0.0,0.0,0.0,0.0,0.0,0.0,0.0,0.0,0.0,0.0,0.0,0.0,0.0,0.0,0.0,0.0,0.0,0.0,0.0,0.0,0.0,0.0,0.0,0.0,0.0,0.0,0.0,0.0,0.0,0.0,0.0,0.0,0.0,0.0,0.0,0.0,0.0,0.0,0.0,0.0,0.0,0.0,0.0,0.0,0.0,0.0,0.0,0.0,0.0,0.0,0.0,0.0,0.0,0.0,0.0,0.0,0.0,-1.895,-2.0986,-2.2158,-2.2353,-2.1501,-1.9176,-1.7259,0.0,0.0,0.0,0.0,0.0,0.0,0.0,0.0,0.0,0.0,0.0,0.0,0.0,0.0,0.0,0.0,0.0,0.0,0.0,0.0,0.0,0.0,0.0,0.0,0.0,0.0,0.0,0.0,0.0,0.0,0.0,0.0,0.0,0.0,0.0,0.0,0.0,0.0,0.0,0.0,0.0,0.0,0.0,0.0,0.0,0.0,0.0,0.0,0.0,0.0,0.0,0.0,0.0,0.0,0.0,0.0,0.0,0.0,0.0,0.0,0.0,0.0,0.0,0.0,0.0,0.0,0.0,0.0,0.0,0.0,0.0,0.0,0.0,0.0,0.0,0.0,0.0,0.0,0.0,0.0,0.0,0.0,0.0,0.0,0.0,0.0,0.0,0.0,0.0,0.0,0.0,0.0,0.0,0.0,0.0,0.0,0.0,0.0,0.0,0.0,0.0,0.0,0.0,0.0,0.0,0.0,0.0,0.0,-2.0201,-2.1161,-2.2429,-2.2672,-2.1746,-1.9742,-1.8251,0.0,0.0,0.0,0.0,0.0,0.0,0.0,0.0,0.0,0.0,0.0,0.0,0.0,0.0,0.0,0.0,0.0,0.0,0.0,0.0,0.0,0.0,0.0,0.0,0.0,0.0,0.0,0.0,0.0,0.0,0.0,0.0,0.0,0.0,0.0,0.0,0.0,0.0,0.0,0.0,0.0,0.0,0.0,0.0,0.0,0.0,0.0,0.0,-0.655,0.0,0.0,0.0,0.0,0.0,0.0,0.0,0.0,0.0,0.0,0.0,0.0,0.0,0.0,0.0,0.0,0.0,0.0,0.0,0.0,0.0,0.0,0.0,0.0,0.0,0.0,0.0,0.0,0.0,0.0,0.0,0.0,0.0,0.0,0.0,0.0,0.0,0.0,0.0,0.0,0.0,0.0,0.0,0.0,0.0,0.0,0.0,0.0,0.0,0.0,0.0,0.0,0.0,0.0,0.0,0.0,0.0,0.0,0.0,-2.0898,-2.1937,-2.2926,-2.3164,-2.2541,-2.1003,-1.944,0.0,0.0,0.0,0.0,0.0,0.0,0.0,0.0,0.0,0.0,0.0,0.0,0.0,0.0,0.0,0.0,0.0,0.0,0.0,0.0,0.0,0.0,0.0,0.0,0.0,0.0,0.0,0.0,0.0,0.0,0.0,0.0,0.0,0.0,0.0,0.0,0.0,0.0,0.0,0.0,0.0,0.0,0.0,0.0,0.0,0.0,0.0,0.0,0.0,0.0,0.0,0.0,0.0,0.0,0.0,0.0,0.0,0.0,0.0,0.0,0.0,0.0,0.0,0.0,0.0,0.0,0.0,0.0,0.0,0.0,0.0,0.0,0.0,0.0,0.0,0.0,0.0,0.0,0.0,0.0,0.0,0.0,0.0,0.0,0.0,0.0,0.0,0.0,0.0,0.0,0.0,0.0,0.0,0.0,0.0,0.0,0.0,0.0,0.0,0.0,0.0,0.0,0.0,0.0,0.0,0.0,0.0,-1.9814,-2.1376,-2.2755,-2.3379,-2.3602,-2.3365,-2.2112,-2.0395,-1.8183,0.0,0.0,0.0,0.0,0.0,0.0,0.0,0.0,0.0,0.0,0.0,0.0,0.0,0.0,0.0,0.0,0.0,0.0,0.0,0.0,0.0,0.0,0.0,0.0,0.0,0.0,0.0,0.0,0.0,0.0,0.0,0.0,0.0,0.0,0.0,0.0,0.0,0.0,-0.5431,-0.575,0.0,0.0,0.0,0.0,0.0,0.0,0.0,0.0,-0.6374,0.0,0.0,0.0,0.0,0.0,0.0,0.0,0.0,0.0,0.0,0.0,0.0,0.0,0.0,0.0,0.0,0.0,0.0,0.0,0.0,0.0,0.0,0.0,0.0,0.0,0.0,0.0,0.0,0.0,0.0,0.0,0.0,0.0,0.0,0.0,0.0,0.0,0.0,0.0,0.0,0.0,0.0,0.0,0.0,0.0,0.0,0.0,0.0,0.0,0.0,0.0,0.0,0.0,0.0,0.0,0.0,-1.8078,-2.0391,-2.1989,-2.2773,-2.3387,-2.358,-2.3271,-2.1651,-2.02,-1.899,0.0,0.0,0.0,0.0,0.0,0.0,0.0,0.0,0.0,0.0,0.0,0.0,0.0,0.0,0.0,0.0,0.0,0.0,0.0,0.0,0.0,0.0,0.0,0.0,0.0,0.0,0.0,0.0,0.0,0.0,0.0,0.0,0.0,0.0,0.0,0.0,0.0,0.0,0.0,-0.6262,-0.6392,0.0,0.0,0.0,0.0,0.0,0.0,0.0,0.0,-0.6742,0.0,0.0,0.0,0.0,0.0,0.0,0.0,0.0,0.0,0.0,0.0,0.0,0.0,0.0,0.0,0.0,0.0,0.0,0.0,0.0,0.0,0.0,0.0,0.0,0.0,0.0,0.0,0.0,0.0,0.0,0.0,0.0,0.0,0.0,0.0,0.0,0.0,0.0,0.0,0.0,0.0,0.0,0.0,0.0,0.0,0.0,0.0,0.0,0.0,0.0,0.0,0.0,0.0,0.0,0.0,-1.9282,-2.1382,-2.274,-2.3394,-2.3606,-2.3591,-2.3318,-2.1908,-2.0512,0.0,0.0,0.0,0.0,0.0,0.0,0.0,0.0,0.0,0.0,0.0,0.0,0.0,0.0,0.0,0.0,0.0,0.0,0.0,0.0,0.0,0.0,0.0,0.0,0.0,0.0,0.0,0.0,0.0,0.0,0.0,0.0,0.0,0.0,0.0,0.0,0.0,0.0,0.0,0.0,-0.7559,-0.7945,-0.8829,0.0,0.0,0.0,0.0,0.0,0.0,-0.7323,-0.7188,0.0,0.0,0.0,0.0,0.0,0.0,0.0,0.0,0.0,0.0,0.0,0.0,0.0,0.0,0.0,0.0,0.0,0.0,0.0,0.0,0.0,0.0,0.0,0.0,0.0,0.0,0.0,0.0,0.0,0.0,0.0,0.0,0.0,0.0,0.0,0.0,0.0,0.0,0.0,0.0,0.0,0.0,0.0,0.0,0.0,0.0,0.0,0.0,0.0,0.0,0.0,0.0,0.0,0.0,0.0,-2.0411,-2.2144,-2.3316,-2.3931,-2.3774,-2.349,-2.3099,-2.1959,-2.054,0.0,0.0,0.0,0.0,0.0,0.0,0.0,0.0,0.0,0.0,0.0,0.0,0.0,0.0,0.0,0.0,0.0,0.0,0.0,0.0,0.0,0.0,0.0,0.0,0.0,0.0,0.0,0.0,0.0,0.0,0.0,0.0,0.0,0.0,0.0,0.0,0.0,0.0,0.0,0.0,0.0,-0.9604,-0.9854,-0.9011,0.0,0.0,0.0,0.0,-0.7525,-0.7749,0.0,0.0,0.0,0.0,0.0,0.0,0.0,0.0,0.0,0.0,0.0,0.0,0.0,0.0,0.0,0.0,0.0,0.0,0.0,0.0,0.0,0.0,0.0,0.0,0.0,0.0,0.0,0.0,0.0,0.0,0.0,0.0,0.0,0.0,0.0,0.0,0.0,0.0,0.0,0.0,0.0,0.0,0.0,0.0,0.0,0.0,0.0,0.0,0.0,0.0,0.0,0.0,0.0,0.0,0.0,0.0,-2.0419,-2.2144,-2.3307,-2.387,-2.366,-2.3088,-2.2194,-2.1114,-1.9459,0.0,0.0,0.0,0.0,0.0,0.0,0.0,0.0,0.0,0.0,0.0,0.0,0.0,0.0,0.0,0.0,0.0,0.0,0.0,0.0,0.0,0.0,0.0,0.0,0.0,0.0,0.0,0.0,0.0,0.0,0.0,0.0,0.0,0.0,0.0,0.0,0.0,0.0,0.0,0.0,0.0,-1.0376,-0.9962,-0.9918,-0.9862,0.0,0.0,-0.9351,-0.9494,-0.9113,0.0,0.0,0.0,0.0,0.0,0.0,0.0,0.0,0.0,0.0,0.0,0.0,0.0,0.0,0.0,0.0,0.0,0.0,0.0,0.0,0.0,0.0,0.0,0.0,0.0,0.0,0.0,0.0,0.0,0.0,0.0,0.0,0.0,0.0,0.0,0.0,0.0,0.0,0.0,0.0,0.0,0.0,0.0,0.0,0.0,0.0,0.0,0.0,0.0,0.0,0.0,0.0,0.0,0.0,0.0,-1.7986,-2.1161,-2.285,-2.3755,-2.3819,-2.3511,-2.3065,-2.2525,-2.0995,-1.9289,0.0,0.0,0.0,0.0,0.0,0.0,0.0,0.0,0.0,0.0,0.0,0.0,0.0,0.0,0.0,0.0,0.0,0.0,0.0,0.0,0.0,0.0,0.0,0.0,0.0,0.0,0.0,0.0,0.0,0.0,0.0,0.0,0.0,0.0,0.0,0.0,0.0,0.0,0.0,0.0,0.0,0.0,-1.126,-1.1219,0.0,0.0,0.0,-1.1386,-1.0108,0.0,0.0,0.0,0.0,0.0,0.0,0.0,0.0,0.0,0.0,0.0,0.0,0.0,0.0,0.0,0.0,0.0,0.0,0.0,0.0,0.0,0.0,0.0,0.0,0.0,0.0,0.0,0.0,0.0,0.0,0.0,0.0,0.0,0.0,0.0,0.0,0.0,0.0,0.0,0.0,0.0,0.0,0.0,0.0,0.0,0.0,0.0,0.0,0.0,0.0,0.0,0.0,0.0,0.0,0.0,0.0,0.0,-2.1757,-2.3382,-2.4084,-2.3816,-2.3448,-2.3064,-2.2656,-2.0984,0.0,0.0,0.0,0.0,0.0,0.0,0.0,0.0,0.0,0.0,0.0,0.0,0.0,0.0,0.0,0.0,0.0,0.0,0.0,0.0,0.0,0.0,0.0,0.0,0.0,0.0,0.0,-0.1483,0.0,0.0,0.0,0.0,0.0,0.0,0.0,0.0,0.0,0.0,0.0,0.0,0.0,0.0,-1.2816,-1.2942,-1.2489,-1.2219,0.0,0.0,-1.3157,-1.1022,-1.1343,-1.1227,0.0,0.0,0.0,0.0,0.0,0.0,0.0,0.0,0.0,0.0,0.0,0.0,0.0,0.0,0.0,0.0,0.0,0.0,0.0,0.0,0.0,0.0,0.0,0.0,0.0,0.0,0.0,0.0,0.0,0.0,0.0,0.0,0.0,0.0,0.0,0.0,0.0,0.0,0.0,0.0,0.0,0.0,0.0,0.0,0.0,0.0,0.0,0.0,0.0,0.0,0.0,0.0,0.0,0.0,0.0,-2.1702,-2.3382,-2.4094,-2.3878,-2.3555,-2.2969,-2.2084,-2.0903,-1.9206,0.0,0.0,0.0,0.0,0.0,0.0,0.0,0.0,0.0,0.0,0.0,0.0,0.0,0.0,0.0,0.0,0.0,0.0,0.0,0.0,0.0,0.0,0.0,0.0,0.0,0.0,0.0,0.0,0.0,0.0,0.0,0.0,0.0,0.0,0.0,0.0,0.0,0.0,0.0,0.0,0.0,-1.3479,-1.4806,-1.361,-1.2921,0.0,0.0,-1.3867,-1.3004,-1.2349,-1.15,-1.0067,0.0,0.0,0.0,0.0,0.0,0.0,0.0,0.0,0.0,0.0,0.0,0.0,0.0,0.0,0.0,0.0,0.0,0.0,0.0,0.0,0.0,0.0,0.0,0.0,0.0,0.0,0.0,0.0,0.0,0.0,0.0,0.0,0.0,0.0,0.0,0.0,0.0,0.0,0.0,0.0,0.0,0.0,0.0,0.0,0.0,0.0,0.0,0.0,0.0,0.0,0.0,0.0,0.0,-1.8519,-2.1766,-2.3391,-2.4113,-2.3966,-2.3714,-2.3352,-2.2869,-2.1266,-1.9533,0.0,0.0,0.0,0.0,0.0,0.0,0.0,0.0,0.0,0.0,0.0,0.0,0.0,0.0,0.0,0.0,0.0,0.0,0.0,0.0,0.0,0.0,0.0,0.0,0.0,0.0,0.0,0.0,-0.4467,-0.4098,-0.4426,0.0,0.0,0.0,0.0,0.0,0.0,0.0,0.0,0.0,0.0,-1.5315,-1.5446,-1.5585,0.0,0.0,-1.606,-1.5431,-1.3681,-1.3428,-1.2781,-1.0921,-1.0323,0.0,0.0,0.0,0.0,0.0,0.0,0.0,0.0,0.0,0.0,0.0,0.0,0.0,0.0,0.0,0.0,0.0,0.0,0.0,0.0,0.0,0.0,0.0,0.0,0.0,0.0,0.0,0.0,0.0,0.0,0.0,0.0,0.0,0.0,0.0,0.0,0.0,0.0,0.0,0.0,0.0,0.0,0.0,0.0,0.0,0.0,0.0,0.0,0.0,0.0,0.0,0.0,-1.875,-2.1776,-2.3382,-2.4133,-2.4044,-2.3865,-2.3657,-2.3416,-2.1797,-2.013,0.0,0.0,0.0,0.0,0.0,0.0,0.0,0.0,0.0,0.0,0.0,0.0,0.0,0.0,0.0,0.0,0.0,0.0,0.0,0.0,0.0,0.0,0.0,0.0,0.0,0.0,0.0,0.0,-0.5613,-0.4771,-0.4544,0.0,0.0,0.0,0.0,0.0,0.0,0.0,0.0,0.0,0.0,-1.6417,-1.5714,-1.6778,-1.7589,-1.7396,-1.7372,-1.6591,-1.4325,-1.4228,-1.37,-1.1525,0.0,0.0,0.0,0.0,0.0,0.0,0.0,0.0,0.0,0.0,0.0,0.0,0.0,0.0,0.0,0.0,0.0,0.0,0.0,0.0,0.0,0.0,0.0,0.0,0.0,0.0,0.0,-1.5056,0.0,0.0,-1.3984,0.0,0.0,0.0,0.0,0.0,0.0,0.0,0.0,0.0,0.0,0.0,0.0,0.0,0.0,0.0,0.0,0.0,0.0,0.0,0.0,0.0,0.0,-1.9297,-2.1757,-2.3391,-2.417,-2.4094,-2.3976,-2.3803,-2.3576,-2.2417,-2.0981,-1.926,0.0,0.0,0.0,0.0,0.0,0.0,0.0,0.0,0.0,0.0,0.0,0.0,0.0,0.0,0.0,0.0,0.0,0.0,0.0,0.0,0.0,0.0,0.0,0.0,0.0,0.0,-0.7166,-0.7263,-0.6559,0.0,0.0,0.0,0.0,0.0,0.0,0.0,0.0,0.0,0.0,-1.5774,-1.6434,-1.5747,-1.6864,-1.7777,-1.7777,-1.7777,-1.7104,-1.5174,-1.4776,-1.394,0.0,0.0,0.0,0.0,0.0,0.0,0.0,0.0,0.0,0.0,0.0,0.0,0.0,0.0,0.0,0.0,0.0,0.0,0.0,0.0,0.0,0.0,0.0,0.0,0.0,0.0,0.0,-1.778,-1.7609,0.0,0.0,0.0,0.0,0.0,0.0,0.0,0.0,0.0,0.0,0.0,-2.2538,-2.2556,0.0,0.0,0.0,0.0,0.0,0.0,0.0,0.0,0.0,0.0,0.0,0.0,-1.9326,-2.1757,-2.3382,-2.419,-2.417,-2.4141,-2.3976,-2.3721,-2.2616,-2.0613,-1.7646,0.0,0.0,0.0,0.0,0.0,0.0,0.0,0.0,0.0,0.0,0.0,0.0,0.0,0.0,0.0,0.0,0.0,0.0,0.0,0.0,0.0,0.0,0.0,0.0,0.0,-0.7554,0.0,0.0,0.0,0.0,0.0,0.0,0.0,0.0,0.0,0.0,0.0,-1.5131,-1.5859,-1.6813,-1.7326,-1.709,-1.7479,-1.7789,0.0,0.0,0.0,0.0,0.0,0.0,0.0,0.0,0.0,0.0,0.0,0.0,0.0,0.0,-1.5478,-1.3713,-1.2817,-1.2266,-1.2005,0.0,0.0,0.0,0.0,0.0,0.0,0.0,0.0,0.0,0.0,0.0,0.0,0.0,0.0,-2.1261,0.0,-2.0079,0.0,0.0,0.0,0.0,0.0,0.0,0.0,0.0,-2.4704,-2.5309,-2.5034,-2.5034,-2.5034,0.0,-2.452,-2.2584,0.0,0.0,0.0,0.0,0.0,0.0,0.0,0.0,-2.0016,-2.2171,-2.3529,-2.4199,-2.4199,-2.4199,-2.4074,-2.3788,-2.236,-2.0312,-1.754,-1.5581,-1.4099,0.0,0.0,0.0,0.0,0.0,0.0,0.0,0.0,0.0,0.0,0.0,0.0,0.0,0.0,0.0,0.0,0.0,0.0,0.0,0.0,0.0,0.0,0.0,-0.8594,0.0,0.0,0.0,0.0,0.0,0.0,0.0,0.0,0.0,-1.4834,-1.5764,-1.6542,-1.701,-1.7777,-1.82,-1.785,0.0,0.0,0.0,0.0,0.0,0.0,0.0,-1.5835,-1.527,-1.4641,-1.4383,-1.4843,-1.3999,-1.432,-1.7568,0.0,0.0,-1.5489,-1.4682,-1.4213,-1.3878,-1.3568,-1.3461,-1.3785,-1.4017,-1.4227,0.0,0.0,0.0,0.0,0.0,0.0,0.0,0.0,-2.5815,-2.5466,0.0,-2.3813,0.0,0.0,0.0,0.0,0.0,-2.3566,0.0,0.0,-2.7174,-2.7493,-2.6814,-2.6796,-2.6749,-2.6722,-2.6657,-2.5823,-2.4135,-2.1078,0.0,0.0,0.0,0.0,0.0,0.0,-2.1391,-2.2988,-2.3841,-2.4254,-2.4245,-2.4226,-2.4064,-2.3749,-2.1819,-2.0183,-1.8951,-1.7495,-1.6062,-1.4639,-1.3777,0.0,0.0,0.0,0.0,0.0,0.0,0.0,0.0,0.0,0.0,0.0,0.0,0.0,0.0,0.0,0.0,0.0,0.0,0.0,0.0,-1.0035,0.0,0.0,0.0,0.0,0.0,0.0,0.0,0.0,0.0,0.0,-1.5189,-1.6667,-1.785,-1.7867,0.0,0.0,0.0,0.0,-1.8983,-2.1823,-2.1028,-1.9562,-1.8109,-1.7725,-1.7154,-1.5722,0.0,0.0,-1.5314,-1.5281,-1.6321,-1.9462,-2.0056,-1.9403,-1.7303,-1.6772,-1.6383,-1.5606,-1.5804,-1.6055,-1.5946,-1.6174,-1.6428,-3.0656,0.0,0.0,0.0,0.0,-2.797,-2.8099,-2.8308,-2.8069,-2.797,-2.7915,-2.6888,0.0,0.0,0.0,0.0,0.0,0.0,-2.7181,-2.8044,-2.9634,-3.0258,-3.0026,-3.0008,-2.9732,-2.9163,-2.8583,-2.7776,-2.6704,-2.4677,-2.2354,-1.9842,0.0,0.0,0.0,0.0,-2.2804,-2.3841,-2.4658,-2.5062,-2.5044,-2.4511,-2.3927,-2.3392,-2.2148,-2.0915,-1.9722,-1.8268,-1.705,-1.6096,-1.4353,0.0,0.0,0.0,0.0,0.0,0.0,0.0,0.0,0.0,0.0,0.0,0.0,0.0,0.0,0.0,0.0,0.0,0.0,0.0,-1.0714,-1.0791,-1.029,0.0,0.0,0.0,0.0,0.0,0.0,0.0,0.0,0.0,-1.7704,-1.8217,-1.8775,0.0,0.0,-1.9693,-1.9423,-2.0302,-2.1329,-2.2192,-2.1924,0.0,0.0,-1.8908,-1.8564,-1.8629,-1.8622,-1.8291,-1.7233,-1.7054,-1.8046,-2.1083,-2.1637,-2.108,-1.9469,-1.8702,-1.8225,-1.7786,-1.7678,-1.7547,-1.7254,-1.731,-1.737,-3.5349,-3.2742,-3.1445,-3.1078,-3.139,-3.1372,-3.1574,-3.1885,-3.1898,-3.1702,-3.1335,-3.054,-2.9384,-2.7959,-2.6851,0.0,0.0,0.0,-2.9182,-3.0008,-3.0956,-3.1403,-3.1403,-3.1403,-3.1146,-3.0613,-2.9537,-2.8748,-2.8264,-2.6649,-2.4887,-2.2923,0.0,0.0,-2.2446,-2.3456,-2.4355,-2.5126,-2.5631,-2.5742,-2.5411,-2.4496,-2.3774,-2.3194,-2.2288,-2.1231,-2.0027,-1.8865,-1.776,-1.6733,-1.5445,-1.4311,0.0,0.0,0.0,0.0,0.0,0.0,0.0,0.0,0.0,0.0,0.0,-0.5731,0.0,0.0,0.0,0.0,-1.0318,-1.1417,-1.156,-1.2111,0.0,0.0,0.0,0.0,0.0,0.0,0.0,-1.9541,-1.9423,-1.9198,-1.9735,-1.9802,-1.9976,-2.0403,-2.0724,-2.091,-2.0927,0.0,-2.2313,-2.2313,-2.2313,-2.1874,-2.0686,-2.0111,-1.9858,-1.9951,-1.9985,-1.9731,-1.8882,-1.8679,-1.9541,-2.162,-2.2313,-2.1992,-2.1096,-2.0511,-1.9857,-1.8936,-1.8748,-1.8592,-1.8186,-1.8296,-1.8508,-3.957,-3.8652,-3.5642,-3.4692,-3.5188,-3.5133,-3.5536,-3.6285,-3.6266,-3.5844,-3.5041,-3.4339,-3.2724,-3.0522,-2.8962,0.0,-3.0485,-3.0558,-3.0962,-3.1568,-3.1654,-3.1641,-3.1568,-3.1599,-3.1562,-3.1476,-3.0008,-2.9244,-2.9133,-2.7647,-2.6895,-2.6851,-2.5346,-2.4897,-2.5485,-2.554,-2.5944,-2.6675,-2.6686,-2.6282,-2.5411,-2.4411,-2.3671,-2.32,-2.2358,-2.13,-2.0044,-1.935,-1.8313,-1.6874,-1.6749,-1.5767,-1.3803,0.0,0.0,0.0,0.0,0.0,0.0,0.0,0.0,0.0,0.0,0.0,0.0,0.0,0.0,0.0,-1.2237,0.0,-1.2711,-1.3887,0.0,0.0,0.0,-1.3743,-1.3752,-1.4563,-1.6431,-1.9782,0.0,0.0,-2.136,-2.1376,-2.1393,-2.1461,-2.1955,-2.2313,-2.2313,-2.2279,-2.2313,-2.2313,-2.2313,-2.2073,-2.141,-2.1241,-2.1008,-2.0437,-2.017,-2.0251,-2.0187,-2.0187,-2.0809,-2.2026,-2.2313,-2.2279,-2.2296,-2.1977,-2.1336,-1.9518,-1.9356,-1.9384,-1.8997,-1.9299,-1.9626,-4.0691,-4.0453,-3.9682,-3.8432,-3.6868,-3.6248,-3.6119,-3.6285,-3.6285,-3.6174,-3.5973,-3.5789,-3.5018,-3.3812,-3.2834,-3.2577,-3.2981,-3.3573,-3.361,-3.3275,-3.3848,-3.3812,-3.3238,-3.322,-3.2908,-3.232,-3.1922,-3.1439,-3.0797,-2.9824,-2.9347,-2.9292,-2.8356,-2.7336,-2.6374,-2.6917,-2.731,-2.7523,-2.7512,-2.6814,-2.5448,-2.4957,-2.424,-2.3218,-2.283,-2.181,-2.0078,-1.9828,-1.9051,-1.7625,-1.6993,-1.6479,-1.5937,-1.4328,0.0,0.0,0.0,0.0,0.0,0.0,0.0,0.0,0.0,-0.8677,-0.9963,0.0,-1.1797,0.0,-1.3582,-1.4631,-1.5571,-1.596,0.0,0.0,-1.5866,-1.6762,-1.6762,-1.6982,-1.8324,-2.14,-2.1181,-2.1397,-2.2984,-2.3018,-2.3071,-2.3611,-2.2902,-2.2313,-2.2313,-2.2313,-2.2313,-2.2313,-2.233,-2.2245,-2.209,-2.204,-2.1938,-2.1789,-2.1738,-2.1755,-2.1755,-2.1755,-2.1907,-2.2229,-2.2313,-2.2313,-2.2313,-2.2118,-2.1782,-2.1095,-2.0748,-2.0428,-2.0023,-2.0058,-2.008,-4.2158,-4.2121,-4.1756,-4.0855,-3.9551,-3.8395,-3.79,-3.7881,-3.7514,-3.7165,-3.6831,-3.6464,-3.6028,-3.5555,-3.511,-3.4908,-3.4945,-3.5385,-3.533,-3.4926,-3.4986,-3.4766,-3.4307,-3.3954,-3.3568,-3.3115,-3.2779,-3.2375,-3.1916,-3.1146,-3.0754,-3.0705,-2.9922,-2.9078,-2.8264,-2.8301,-2.8356,-2.8338,-2.797,-2.7192,-2.597,-2.531,-2.4426,-2.3254,-2.3005,-2.2,-2.0065,-1.9985,-1.9473,-1.8352,-1.7574,-1.7196,-1.7162,-1.5707,-1.4243,0.0,0.0,0.0,0.0,0.0,0.0,0.0,0.0,0.0,0.0,0.0,-1.3718,-1.4776,-1.5544,-1.6431,-1.7568,-1.7975,-1.7997,-1.7614,-1.829,-1.9051,-1.9739,-1.9186,-1.9959,-2.2902,-2.2784,-2.2866,-2.3949,-2.3983,-2.4169,-2.4897,-2.4173,-2.3496,-2.3241,-2.2767,-2.2313,-2.2313,-2.2868,-2.3156,-2.2852,-2.2499,-2.2313,-2.2313,-2.2313,-2.2313,-2.2313,-2.2313,-2.2313,-2.2313,-2.2313,-2.2313,-2.2313,-2.2194,-2.2017,-2.1779,-2.1508,-2.1166,-2.0697,-2.0597,-2.053,-4.3479,-4.3441,-4.2745,-4.2451,-4.2341,-4.0836,-4.0084,-3.9843,-3.9148,-3.8395,-3.7621,-3.6909,-3.6597,-3.6615,-3.6597,-3.6597,-3.6615,-3.6615,-3.6541,-3.6395,-3.5555,-3.5114,-3.4968,-3.4179,-3.3807,-3.377,-3.3078,-3.2748,-3.2729,-3.1935,-3.1562,-3.1494,-3.0632,-3.021,-3.0173,-2.939,-2.8987,-2.8987,-2.8301,-2.753,-2.662,-2.5667,-2.4527,-2.3283,-2.3005,-2.1983,-2.0094,-2.0086,-1.9773,-1.8944,-1.8374,-1.8036,-1.7935,-1.7236,-1.5893,0.0,-1.3684,0.0,0.0,0.0,0.0,0.0,0.0,0.0,0.0,-1.4783,-1.5737,-1.6999,-1.771,-1.8403,-1.9113,-1.9862,-2.0306,-2.0289,-2.0407,-2.0995,-2.2093,-2.1096,-2.1451,-2.444,-2.4778,-2.4778,-2.4812,-2.4711,-2.4915,-2.5575,-2.5508,-2.5186,-2.4778,-2.3799,-2.3023,-2.2665,-2.3663,-2.4085,-2.346,-2.2852,-2.2448,-2.2364,-2.2313,-2.2313,-2.2313,-2.2313,-2.2313,-2.2313,-2.2313,-2.2313,-2.2313,-2.2254,-2.2152,-2.1988,-2.1901,-2.166,-2.1197,-2.1039,-2.1023,-4.3479,-4.3479,-4.3331,-4.3277,-4.3203,-4.2249,-4.1093,-3.9898,-3.9735,-3.9221,-3.8469,-3.8303,-3.8248,-3.8248,-3.8248,-3.8233,-3.8248,-3.8248,-3.7881,-3.7254,-3.6431,-3.5679,-3.4968,-3.4192,-3.3807,-3.3807,-3.3642,-3.3568,-3.3568,-3.2748,-3.2381,-3.2326,-3.0925,-3.021,-3.0173,0.0,0.0,0.0,-2.8858,-2.8069,-2.6657,-2.6242,-2.5144,-2.3283,-2.3005,0.0,-2.0158,-2.0619,-2.0327,-1.9012,-1.9321,0.0,0.0,0.0,0.0,0.0,0.0,0.0,0.0,0.0,0.0,0.0,-1.7743,-1.7568,-1.7845,-1.8538,-1.9072,-1.9343,-1.9507,-1.9896,-2.0683,-2.1431,-2.1857,-2.189,-2.2581,-2.2885,-2.2398,-2.2026,-2.3006,-2.5895,-2.6285,-2.6268,-2.62,-2.5778,-2.5676,-2.6319,-2.6454,-2.6387,-2.6251,-2.5913,-2.5372,-2.4406,-2.4389,-2.4237,-2.3511,-2.3291,-2.2987,-2.2513,-2.2313,-2.2313,-2.2313,-2.2313,-2.2313,-2.2313,-2.2313,-2.2313,-2.2313,-2.2299,-2.2268,-2.2223,-2.2209,-2.2034,-2.1507,-2.137,-2.134,-4.3479,0.0,-4.3479,-4.3479,0.0,-4.3057,-4.2213,-4.1056,-4.0671,-4.0267,-3.9863,-3.9478,-3.9294,-3.9276,-3.8872,-3.8707,-3.8707,-3.8707,-3.8487,-3.8028,-3.6868,-3.6064,-3.5624,-3.4376,-3.3807,-3.3807,-3.3807,-3.3807,-3.3788,-3.3403,-3.3201,-3.3183,-3.1586,-3.0797,-3.0742,-2.9592,-2.8987,-2.8987,-2.8987,-2.8418,-2.7226,-2.6606,-2.5498,-2.3862,0.0,0.0,0.0,0.0,0.0,0.0,0.0,0.0,0.0,0.0,0.0,-1.7304,-1.7219,-1.7236,-1.7236,-1.7557,-1.8584,-2.0433,-2.1245,-2.119,-2.0124,-2.0365,-2.0906,-2.1603,-2.1671,-2.1989,-2.2764,-2.3156,-2.3477,-2.3699,-2.3782,-2.3915,-2.4306,-2.3816,-2.4255,-2.6201,-2.6708,-2.6708,-2.6708,-2.6404,-2.6302,-2.6623,-2.6708,-2.6708,-2.6708,-2.6708,-2.6369,-2.5642,-2.488,-2.4508,-2.4474,-2.412,-2.3864,-2.3444,-2.3088,-2.2716,-2.2347,-2.2313,-2.2313,-2.2313,-2.2313,-2.2313,-2.2313,-2.2313,-2.2313,-2.2313,-2.2313,-2.2223,-2.193,-2.1796,-2.166,-4.3479,-4.3479,-4.3479,-4.3479,-4.3479,-4.3479,-4.313,-4.2451,0.0,0.0,0.0,-4.0249,-3.9882,-3.9843,-3.9074,-3.8707,-3.8707,-3.8707,-3.8707,-3.8634,-3.7037,-3.6285,-3.6211,-3.4578,-3.3807,-3.3807,-3.3807,-3.3807,-3.3807,-3.3807,-3.3807,-3.366,-3.2205,-3.1268,-3.0907,-2.9666,-2.8982,-2.897,-2.8994,-2.8613,-2.7805,-2.6945,-2.5829,-2.4429,-2.356,-2.2514,-2.1254,-2.1326,-2.1343,-2.119,-2.0703,-2.064,-2.114,-2.0568,-1.9879,-1.9164,-1.9244,-1.9312,-1.9312,-1.9549,-2.0551,-2.2564,-2.3814,-2.3744,-2.1901,-2.1796,-2.2274,-2.3494,-2.3611,-2.3831,-2.444,-2.4626,-2.4831,-2.517,-2.4678,-2.4998,-2.6352,-2.5675,-2.5371,-2.6454,-2.6708,-2.6708,-2.6708,-2.6674,-2.6708,-2.6691,-2.6708,-2.6708,-2.6708,-2.6708,-2.6674,-2.6488,-2.5692,-2.5117,-2.5338,-2.5084,-2.4694,-2.4406,-2.3934,-2.3308,-2.2567,-2.2313,-2.2313,-2.2313,-2.2313,-2.2313,-2.2313,-2.2313,-2.2313,-2.2313,-2.2313,-2.2313,-2.2282,-2.2132,-2.1911,-4.3479,-4.3479,-4.3479,-4.3479,-4.3479,-4.3479,-4.3441,-4.3221,-4.1754,-4.1113,-4.104,-4.0249,-3.9882,-3.9845,-3.9056,-3.8707,-3.8707,-3.8707,-3.8707,-3.8615,-3.7037,-3.6285,-3.6211,-3.4578,-3.3807,-3.3807,-3.3807,-3.3807,-3.3807,-3.3807,-3.3807,-3.3623,-3.2173,-3.0705,-2.9427,-2.905,-2.8881,-2.8822,-2.8929,-2.8601,-2.7805,-2.7444,-2.6333,-2.4495,-2.4099,-2.3075,-2.1302,-2.182,-2.1854,-2.1241,-2.1701,-2.1752,-2.1241,-2.1123,-2.067,-1.9963,-2.0483,-2.0869,-2.0919,-2.2037,-2.3173,-2.4085,-2.4389,-2.4338,-2.4068,-2.4049,-2.4118,-2.4338,-2.4372,-2.4372,-2.4541,-2.5084,-2.539,-2.5322,-2.5846,-2.642,-2.6674,-2.6488,-2.637,-2.6657,-2.6708,-2.6708,-2.6708,-2.6708,-2.6708,-2.6708,-2.6708,-2.6708,-2.6708,-2.6708,-2.6708,-2.6708,-2.6539,-2.6184,-2.5795,-2.5542,-2.5236,-2.4592,-2.4457,-2.3951,-2.2871,-2.255,-2.255,-2.2415,-2.2431,-2.2313,-2.2313,-2.2313,-2.2313,-2.2313,-2.2313,-2.2313,-2.2313,-2.2132,-2.1926,-4.3479,-4.3479,-4.3479,-4.3479,-4.3479,-4.3479,-4.3479,-4.3441,-4.2727,-4.2396,-4.2268,-4.1111,-4.0543,-4.0451,-3.9258,-3.8707,-3.8707,-3.8707,-3.8707,-3.8579,-3.7037,-3.6285,-3.6138,-3.4578,-3.3807,-3.3807,-3.3807,-3.3807,-3.3807,-3.3807,-3.3807,-3.3697,-3.2192,-3.0595,-2.9104,-2.8893,-2.8755,-2.8596,-2.8755,-2.8639,-2.8239,-2.7543,-2.6673,-2.5623,-2.4927,-2.4087,-2.3033,-2.3323,-2.334,-2.3001,-2.3306,-2.334,-2.3018,-2.2984,-2.2815,-2.2479,-2.2781,-2.2984,-2.2967,-2.3968,-2.4746,-2.5083,-2.5472,-2.5692,-2.5692,-2.5321,-2.5269,-2.5659,-2.5692,-2.5692,-2.5709,-2.6014,-2.615,-2.6031,-2.6454,-2.6691,-2.6708,-2.6708,-2.6708,-2.6708,-2.6708,-2.6708,-2.6708,-2.6708,-2.6708,-2.6708,-2.6708,-2.6708,-2.6708,-2.6708,-2.6708,-2.6708,-2.6691,-2.6573,-2.6251,-2.6201,-2.6031,-2.571,-2.5338,-2.505,-2.456,-2.4154,-2.3883,-2.4357,-2.3496,-2.2431,-2.2313,-2.2313,-2.2313,-2.2313,-2.2313,-2.2313,-2.2282,-2.2075,-2.1842,-4.3479,-4.3479,-4.3479,-4.3479,-4.3479,-4.3479,-4.3479,-4.3479,-4.3479,-4.3479,-4.3259,-4.1809,-4.1113,-4.093,-3.9423,-3.8707,-3.8707,-3.8707,-3.8707,-3.856,-3.7221,-3.6468,-3.6156,-3.4761,-3.399,-3.3825,-3.3807,-3.3807,-3.3807,-3.3807,-3.3605,-3.3164,-3.2008,-3.0571,-2.8995,-2.8785,-2.8576,-2.8329,-2.843,-2.8448,-2.8422,-2.7576,-2.6959,-2.6482,-2.5623,-2.4949,-2.4538,-2.4508,-2.4508,-2.4508,-2.4508,-2.4508,-2.4508,-2.4508,-2.4508,-2.4508,-2.4508,-2.4592,-2.4762,-2.527,-2.566,-2.5862,-2.637,-2.6691,-2.664,-2.6167,-2.6082,-2.659,-2.664,-2.6657,-2.6623,-2.6674,-2.6708,-2.6708,-2.6708,-2.6708,-2.6708,-2.6708,-2.6708,-2.6708,-2.6708,-2.6708,-2.6708,-2.6708,-2.6776,-2.6945,-2.6826,-2.6708,-2.6708,-2.6708,-2.6708,-2.6708,-2.6708,-2.6691,-2.6708,-2.6674,-2.664,-2.6708,-2.6218,-2.6065,-2.6167,-2.5608,-2.5422,-2.6048,-2.4881,-2.3294,-2.2584,-2.2479,-2.2482,-2.2398,-2.2313,-2.2313,-2.2282,-2.212,-2.1842,-4.3479,-4.3479,-4.3479,-4.3479,-4.3479,-4.3479,-4.3479,-4.3479,-4.3479,-4.3479,-4.3314,-4.1809,-4.1113,-4.0875,-3.9423,-3.8707,-3.8707,-3.8707,-3.8707,-3.8615,-3.7804,-3.7015,-3.6266,-3.5316,-3.4491,-3.388,-3.3807,-3.3807,-3.3807,-3.3807,-3.3073,-3.177,-3.1395,-3.0472,-2.898,-2.8587,-2.8286,-2.8037,-2.7855,-2.7844,-2.794,-2.7744,-2.7204,-2.6256,-2.6025,-2.5466,-2.4642,-2.4508,-2.4523,-2.4508,-2.4541,-2.4525,-2.4541,-2.4525,-2.4525,-2.4541,-2.4525,-2.4778,-2.5406,-2.5575,-2.5913,-2.6505,-2.664,-2.6708,-2.6708,-2.664,-2.6607,-2.6725,-2.6725,-2.6708,-2.6708,-2.6708,-2.6708,-2.6708,-2.6708,-2.6708,-2.6708,-2.6708,-2.6708,-2.6708,-2.6826,-2.6708,-2.686,-2.6894,-2.7063,-2.7503,-2.7249,-2.6877,-2.6708,-2.6793,-2.6759,-2.6725,-2.6708,-2.6708,-2.6708,-2.6708,-2.6708,-2.6674,-2.664,-2.6607,-2.6573,-2.6573,-2.6606,-2.642,-2.6437,-2.5118,-2.3562,-2.2784,-2.3004,-2.2584,-2.2398,-2.2313,-2.2313,-2.2254,-2.2109,-4.3479,-4.3479,-4.3479,-4.3479,-4.3479,-4.3479,-4.3479,-4.3479,-4.3479,-4.3479,-4.3296,-4.1809,-4.1113,-4.0985,-3.9407,-3.8707,-3.8707,-3.8707,-3.8707,-3.8634,-3.7878,-3.707,-3.6266,-3.5408,-3.4582,-3.3844,-3.3807,-3.3807,-3.3807,-3.3807,-3.2994,-3.1537,-3.1314,-3.0352,-2.8697,-2.8299,-2.7968,-2.7589,-2.7428,-2.7289,-2.7225,-2.7336,-2.7199,-2.6766,-2.6609,-2.6313,-2.5861,-2.5794,-2.5794,-2.5811,-2.5811,-2.5794,-2.5811,-2.5811,-2.5811,-2.5811,-2.5811,-2.5946,-2.6234,-2.6268,-2.6387,-2.6691,-2.6708,-2.6708,-2.6708,-2.6708,-2.686,-2.7215,-2.6979,-2.6708,-2.6742,-2.6708,-2.6708,-2.6708,-2.6708,-2.6708,-2.6708,-2.6708,-2.6894,-2.7452,-2.7588,-2.7723,-2.7977,-2.8079,-2.7977,-2.7959,-2.7841,-2.774,-2.6996,-2.7063,-2.7148,-2.681,-2.6708,-2.6708,-2.6708,-2.6708,-2.6708,-2.6708,-2.6708,-2.6708,-2.6708,-2.6708,-2.6691,-2.6708,-2.6708,-2.6387,-2.5338,-2.3849,-2.3257,-2.2919,-2.2499,-2.2313,-2.2313,-2.2313,-2.2209,-4.3479,-4.3479,-4.3479,-4.3479,-4.3479,-4.3479,-4.3479,-4.3479,-4.3479,-4.3479,-4.3314,-4.1792,-4.1113,-4.0857,-3.9407,-3.8707,-3.8707,-3.8707,-3.8707,-3.8634,-3.8065,-3.729,-3.6303,-3.5679,-3.4802,-3.3935,-3.3807,-3.3807,-3.3807,-3.3807,-3.2994,-3.1592,-3.1245,-3.0212,-2.8504,-2.8065,-2.7695,-2.7272,-2.7119,-2.6957,-2.6775,-2.694,-2.7037,-2.7006,-2.6908,-2.6792,-2.6708,-2.6708,-2.6708,-2.6691,-2.6708,-2.6708,-2.6708,-2.6708,-2.6708,-2.6708,-2.6708,-2.6708,-2.6708,-2.6708,-2.6708,-2.6708,-2.6708,-2.6708,-2.6708,-2.6708,-2.7046,-2.7672,-2.7858,-2.7926,-2.7334,-2.7317,-2.7317,-2.7334,-2.7215,-2.7114,-2.7148,-2.7199,-2.7706,-2.845,-2.8602,-2.867,-2.8908,-2.8925,-2.8755,-2.8636,-2.8755,-2.8976,-2.8096,-2.8112,-2.7824,-2.6911,-2.686,-2.6911,-2.6759,-2.6708,-2.6708,-2.6708,-2.6708,-2.6708,-2.6708,-2.6708,-2.6708,-2.6708,-2.6708,-2.6404,-2.5693,-2.456,-2.3966,-2.3644,-2.3156,-2.2668,-2.2702,-2.2516,-2.233,-4.3479,-4.3479,-4.3479,-4.3479,-4.3479,-4.3479,-4.3479,-4.3479,-4.3479,-4.3479,-4.3277,-4.1809,-4.1113,-4.0985,-3.9423,-3.8707,-3.8707,-3.8707,-3.8707,-3.8707,-3.8634,-3.779,-3.6358,-3.6211,-3.5367,-3.3899,-3.3807,-3.3807,-3.3807,-3.3788,-3.2981,-3.1494,-3.1211,-3.012,-2.8412,-2.7886,-2.7522,-2.7133,-2.6974,-2.6842,-2.6725,-2.6725,-2.6741,-2.6741,-2.6708,-2.6708,-2.6708,-2.6708,-2.6708,-2.6708,-2.6708,-2.6708,-2.6708,-2.6708,-2.6708,-2.6708,-2.6708,-2.6708,-2.6708,-2.6708,-2.6708,-2.6708,-2.6759,-2.6742,-2.6793,-2.6725,-2.7114,-2.7807,-2.9616,-3.0178,-2.9111,-2.8688,-2.8705,-2.8705,-2.8383,-2.818,-2.8129,-2.8569,-2.9061,-2.9467,-2.9602,-2.9484,-2.9111,-2.8993,-2.9399,-2.9583,-2.9397,-2.9382,-3.0176,-2.967,-2.8468,-2.7571,-2.7385,-2.7503,-2.6911,-2.6708,-2.6708,-2.6708,-2.6708,-2.6708,-2.6708,-2.6708,-2.6708,-2.6708,-2.6708,-2.6404,-2.5761,-2.5406,-2.5252,-2.4778,-2.3866,-2.3427,-2.3359,-2.275,-2.2564,-4.3479,-4.3479,-4.3479,-4.3479,-4.3479,-4.3479,-4.3479,-4.3479,-4.3479,-4.3479,-4.3204,-4.1792,-4.1113,-4.1022,-3.9441,-3.8707,-3.8707,-3.8707,-3.8707,-3.8707,-3.8707,-3.7845,-3.6413,-3.6285,-3.5422,-3.4009,-3.3807,-3.3807,-3.3807,-3.3807,-3.2981,-3.1616,-3.1167,-3.0012,-2.8304,-2.7716,-2.734,-2.6891,-2.6792,-2.6758,-2.6708,-2.6708,-2.6708,-2.6708,-2.6708,-2.6708,-2.6708,-2.6708,-2.6708,-2.6708,-2.6708,-2.6708,-2.6708,-2.6708,-2.6708,-2.6708,-2.6708,-2.6708,-2.6708,-2.6708,-2.6708,-2.6725,-2.7148,-2.7385,-2.7317,-2.7029,-2.7385,-2.9024,-3.0345,-3.0818,-3.0395,-2.9585,-2.8993,-2.8993,-2.9093,-2.9042,-2.9027,-2.9687,-3.0313,-3.0108,-3.0311,-3.0415,-2.9956,-3.0091,-3.0311,-3.014,-3.026,-3.0615,-3.0801,-3.0178,-2.9382,-2.9364,-2.8704,-2.7959,-2.7757,-2.7046,-2.6708,-2.6708,-2.6708,-2.6708,-2.6708,-2.6708,-2.6708,-2.6708,-2.6708,-2.6623,-2.6099,-2.5812,-2.5777,-2.5134,-2.4271,-2.4137,-2.4101,-2.3528,-2.3291,-4.3479,-4.3479,-4.3479,-4.3479,-4.3479,-4.3479,-4.3479,-4.3479,-4.3479,-4.3479,-4.3203,-4.1792,-4.1113,-4.0838,-3.9407,-3.8707,-3.8707,-3.8707,-3.8707,-3.8707,-3.8707,-3.7845,-3.6505,-3.6285,-3.5422,-3.4027,-3.3807,-3.3807,-3.3807,-3.378,-3.2905,-3.1395,-3.1029,-2.9861,-2.812,-2.7552,-2.7182,-2.6775,-2.6708,-2.6708,-2.6708,-2.6708,-2.6708,-2.6708,-2.6708,-2.6708,-2.6708,-2.6708,-2.6708,-2.6708,-2.6708,-2.6708,-2.6708,-2.6708,-2.6708,-2.6708,-2.6708,-2.6708,-2.6708,-2.6708,-2.6843,-2.7148,-2.7334,-2.7604,-2.8027,-2.774,-2.8399,-2.9786,-3.0751,-3.119,-3.1004,-3.0296,-2.9721,-2.9738,-3.0008,-3.0059,-2.9805,-3.0581,-3.0852,-3.0632,-3.0852,-3.0886,-3.0615,-3.0903,-3.0886,-3.0478,-3.092,-3.1173,-3.1072,-3.0683,-3.0364,-3.0956,-3.004,-2.9127,-2.8602,-2.796,-2.7114,-2.6979,-2.681,-2.6759,-2.6708,-2.6708,-2.6708,-2.6708,-2.6708,-2.6708,-2.6539,-2.6234,-2.5794,-2.5252,-2.4998,-2.4864,-2.4644,-2.4372,-2.4169,-4.3479,-4.3479,-4.3479,-4.3479,-4.3479,-4.3479,-4.3479,-4.3479,-4.3479,-4.3479,-4.3277,-4.1827,-4.1113,-4.0783,-3.9426,-3.8707,-3.8707,-3.8707,-3.8707,-3.8707,-3.8707,-3.7881,-3.645,-3.6321,-3.5422,-3.3844,-3.3807,-3.3807,-3.3807,-3.3703,-3.2848,-3.1427,-3.0856,-2.9679,-2.7701,-2.7352,-2.7053,-2.6792,-2.6708,-2.6708,-2.6708,-2.6708,-2.6708,-2.6708,-2.6708,-2.6708,-2.6708,-2.6708,-2.6708,-2.6708,-2.6708,-2.6708,-2.6708,-2.6708,-2.6708,-2.6708,-2.6708,-2.6708,-2.6708,-2.6759,-2.7249,-2.7858,-2.7385,-2.7689,-2.8755,-2.9027,-2.9365,-3.0125,-3.0784,-3.119,-3.119,-3.1055,-3.097,-3.114,-3.1004,-3.097,-3.1055,-3.114,-3.1173,-3.1123,-3.1173,-3.119,-3.1173,-3.1157,-3.1123,-3.1106,-3.114,-3.119,-3.119,-3.1021,-3.1123,-3.1157,-3.0801,-3.0176,-2.9551,-2.8908,-2.7994,-2.7283,-2.7046,-2.6894,-2.6742,-2.6708,-2.6708,-2.6708,-2.6708,-2.6708,-2.6708,-2.6437,-2.6488,-2.6099,-2.5845,-2.5592,-2.5439,-2.5235,-2.4948,-4.3479,-4.3479,-4.3479,-4.3479,-4.3479,-4.3479,-4.3479,-4.3479,-4.3479,-4.3479,-4.3185,-4.1809,-4.1113,-4.0747,-3.9441,-3.8707,-3.8707,-3.8707,-3.8707,-3.8707,-3.8707,-3.8157,-3.718,-3.6556,-3.5404,-3.4045,-3.3807,-3.3807,-3.378,-3.3684,-3.2743,-3.1256,-3.0668,-2.9417,-2.7563,-2.7244,-2.7006,-2.6742,-2.6708,-2.6708,-2.6708,-2.6708,-2.6708,-2.6708,-2.6708,-2.6708,-2.6708,-2.6708,-2.6708,-2.6708,-2.6708,-2.6708,-2.6708,-2.6708,-2.6708,-2.6708,-2.6708,-2.6708,-2.6776,-2.7199,-2.7807,-2.8552,-2.8705,-2.9059,-2.9702,-3.0209,-3.0531,-3.0818,-3.1072,-3.119,-3.119,-3.119,-3.119,-3.119,-3.119,-3.119,-3.119,-3.119,-3.119,-3.119,-3.119,-3.119,-3.119,-3.119,-3.119,-3.119,-3.119,-3.119,-3.119,-3.119,-3.119,-3.119,-3.1072,-3.0954,-3.0209,-2.9668,-2.911,-2.8281,-2.7791,-2.7063,-2.686,-2.6708,-2.6708,-2.6708,-2.6708,-2.6708,-2.6708,-2.6708,-2.6708,-2.6708,-2.637,-2.6268,-2.6319,-2.6082,-2.5726,-4.3479,-4.3479,-4.3479,-4.3479,-4.3479,-4.3479,-4.3479,-4.3479,-4.3479,-4.3479,-4.3167,-4.1792,-4.1113,-4.0765,-3.9423,-3.8744,-3.8707,-3.8707,-3.8707,-3.8707,-3.8707,-3.8267,-3.7401,-3.6303,-3.5147,-3.4045,-3.3807,-3.3807,-3.3793,-3.3592,-3.2776,-3.1398,-3.0606,-2.9433,-2.7742,-2.7207,-2.6908,-2.6725,-2.6708,-2.6708,-2.6708,-2.6708,-2.6708,-2.6708,-2.6708,-2.6708,-2.6708,-2.6708,-2.6708,-2.6708,-2.6708,-2.6708,-2.6708,-2.6708,-2.6708,-2.6708,-2.6708,-2.6708,-2.6776,-2.7367,-2.8449,-2.9499,-2.9754,-2.9958,-3.0429,-3.1004,-3.1173,-3.119,-3.119,-3.119,-3.119,-3.119,-3.119,-3.119,-3.119,-3.119,-3.119,-3.119,-3.119,-3.119,-3.119,-3.119,-3.119,-3.119,-3.119,-3.119,-3.119,-3.119,-3.119,-3.119,-3.119,-3.119,-3.1157,-3.0954,-3.0666,-3.0362,-3.0159,-2.9448,-2.8721,-2.7706,-2.6996,-2.6793,-2.6708,-2.6708,-2.6708,-2.6708,-2.6708,-2.6708,-2.6708,-2.6708,-2.6708,-2.6623,-2.6522,-2.6573,-2.6336,-4.3479,-4.3479,-4.3479,-4.3479,-4.3479,-4.3479,-4.3479,-4.3479,-4.3479,-4.3479,-4.3149,-4.1956,-4.1187,-4.0765,-3.9533,-3.8854,-3.8707,-3.8707,-3.8707,-3.8707,-3.8652,-3.823,-3.7217,-3.5973,-3.4853,-3.3935,-3.3807,-3.3807,-3.3775,-3.3605,-3.2915,-3.1706,-3.0661,-2.9545,-2.8355,-2.7436,-2.708,-2.6911,-2.6826,-2.6826,-2.6725,-2.6708,-2.6708,-2.6708,-2.6708,-2.6708,-2.6708,-2.6708,-2.6708,-2.6708,-2.6708,-2.6708,-2.6708,-2.6725,-2.6843,-2.6877,-2.681,-2.6911,-2.7012,-2.7739,-2.8958,-3.0632,-3.0364,-3.0161,-3.097,-3.1123,-3.119,-3.119,-3.119,-3.119,-3.119,-3.119,-3.119,-3.119,-3.119,-3.119,-3.119,-3.119,-3.119,-3.119,-3.119,-3.119,-3.119,-3.119,-3.119,-3.119,-3.119,-3.119,-3.119,-3.119,-3.119,-3.119,-3.119,-3.1106,-3.0852,-3.0818,-3.0632,-3.0328,-2.9634,-2.8755,-2.7486,-2.7097,-2.6708,-2.6708,-2.6826,-2.6793,-2.6708,-2.6708,-2.6708,-2.6708,-2.6708,-2.6708,-2.6708,-2.6725,-2.6725,-4.3479,-4.3479,-4.3479,-4.3479,-4.3479,-4.3479,-4.3479,-4.3479,-4.3479,-4.3479,-4.324,-4.2451,-4.1609,-4.1003,-4.0047,-3.9276,-3.8854,-3.8707,-3.8707,-3.8707,-3.8707,-3.7881,-3.6835,-3.6193,-3.5183,-3.4027,-3.383,-3.3807,-3.378,-3.3534,-3.2763,-3.1544,-3.0964,-3.0058,-2.8918,-2.8505,-2.8113,-2.7604,-2.7503,-2.7249,-2.6826,-2.6776,-2.6708,-2.6708,-2.6742,-2.6759,-2.6708,-2.6708,-2.6708,-2.6708,-2.6708,-2.6708,-2.6826,-2.7249,-2.7519,-2.757,-2.801,-2.818,-2.8095,-2.8822,-3.0023,-3.0987,-3.0903,-3.0922,-3.1123,-3.119,-3.119,-3.119,-3.119,-3.119,-3.119,-3.119,-3.119,-3.119,-3.1275,-3.1292,-3.119,-3.119,-3.119,-3.119,-3.1207,-3.1258,-3.1326,-3.1326,-3.1326,-3.1326,-3.1309,-3.1207,-3.1224,-3.119,-3.119,-3.119,-3.119,-3.119,-3.1157,-3.1157,-3.1089,-3.1004,-3.0565,-3.0057,-2.8721,-2.7638,-2.7114,-2.6708,-2.7097,-2.7182,-2.6911,-2.6742,-2.6725,-2.7046,-2.6979,-2.708,-2.686,-2.6776,-2.6776,-4.3479,-4.3479,-4.3479,-4.3479,-4.3479,-4.3479,-4.3479,-4.3479,-4.3479,-4.3479,-4.3314,-4.2653,-4.2047,-4.1499,-4.0414,-3.9696,-3.9203,-3.8854,-3.8707,-3.8707,-3.8707,-3.7991,-3.6982,-3.6457,-3.5512,-3.4316,-3.3849,-3.3661,-3.3591,-3.3331,-3.2659,-3.1849,-3.1131,-3.0332,-2.9521,-2.9111,-2.8807,-2.8366,-2.8315,-2.8061,-2.7706,-2.7673,-2.7672,-2.7673,-2.7673,-2.7673,-2.7672,-2.7655,-2.7537,-2.7283,-2.7182,-2.73,-2.7655,-2.8044,-2.828,-2.8332,-2.8773,-2.8908,-2.9008,-2.9651,-3.0395,-3.1021,-3.119,-3.119,-3.119,-3.119,-3.119,-3.119,-3.119,-3.119,-3.119,-3.119,-3.119,-3.1275,-3.1732,-3.1833,-3.1292,-3.119,-3.119,-3.1258,-3.1461,-3.1799,-3.2036,-3.2104,-3.2104,-3.2121,-3.2036,-3.1681,-3.1326,-3.1241,-3.119,-3.119,-3.119,-3.119,-3.119,-3.119,-3.119,-3.114,-3.1055,-3.0666,-2.9905,-2.8602,-2.845,-2.8112,-2.7859,-2.7605,-2.7486,-2.7503,-2.7825,-2.796,-2.7706,-2.7605,-2.7554,-2.7334,-2.7283,-4.3479,-4.3479,-4.3479,-4.3479,-4.3479,-4.3479,-4.3479,-4.3479,-4.3479,-4.3479,-4.3332,-4.2745,-4.2288,-4.2086,-4.0622,-3.9887,-3.9612,-3.8899,-3.8716,-3.8645,-3.859,-3.8172,-3.7519,-3.6717,-3.5728,-3.4688,-3.3909,-3.3502,-3.3244,-3.2943,-3.262,-3.202,-3.1237,-3.0689,-3.02,-2.9636,-2.9264,-2.9145,-2.9093,-2.8959,-2.8756,-2.8705,-2.8688,-2.8688,-2.8705,-2.8739,-2.879,-2.8824,-2.8637,-2.8077,-2.7976,-2.8247,-2.8857,-2.8993,-2.9111,-2.9179,-2.9331,-2.9568,-2.9805,-3.0159,-3.0497,-3.1072,-3.119,-3.119,-3.119,-3.119,-3.119,-3.119,-3.119,-3.1258,-3.141,-3.1376,-3.1478,-3.1613,-3.251,-3.2357,-3.1799,-3.1461,-3.1478,-3.1461,-3.2073,-3.2716,-3.3203,-3.344,-3.3322,-3.2814,-3.2628,-3.2138,-3.1579,-3.1224,-3.119,-3.119,-3.119,-3.119,-3.119,-3.119,-3.119,-3.1173,-3.1173,-3.097,-3.0818,-3.0108,-3.0228,-3.0059,-2.9448,-2.8942,-2.8553,-2.8688,-2.8857,-2.8739,-2.8383,-2.8604,-2.8824,-2.8451,-2.8265,-4.3479,-4.3479,-4.3479,-4.3479,-4.3479,-4.3479,-4.3479,-4.3479,-4.3479,-4.3479,-4.3442,-4.3277,-4.2491,-4.1306,-4.0745,-3.9962,-3.894,-3.8577,-3.8465,-3.8467,-3.8421,-3.8265,-3.7851,-3.7176,-3.6051,-3.4808,-3.4168,-3.353,-3.2859,-3.2519,-3.2248,-3.1898,-3.1541,-3.1263,-3.091,-3.0666,-3.0412,-2.9989,-2.9871,-2.9583,-2.9213,-2.9145,-2.9145,-2.9128,-2.9111,-2.9044,-2.901,-2.8993,-2.9196,-2.9364,-2.911,-2.8976,-2.9213,-2.96,-2.9837,-2.9973,-3.0378,-3.07,-3.0835,-3.0852,-3.1004,-3.114,-3.119,-3.119,-3.119,-3.119,-3.119,-3.1207,-3.1207,-3.1515,-3.1989,-3.2256,-3.2307,-3.2324,-3.2138,-3.2239,-3.2747,-3.3254,-3.3271,-3.3,-3.3017,-3.3389,-3.3935,-3.3711,-3.3592,-3.3457,-3.3136,-3.2611,-3.2087,-3.1546,-3.1393,-3.1495,-3.1207,-3.1258,-3.1461,-3.1427,-3.136,-3.136,-3.1343,-3.1207,-3.1055,-3.097,-3.0835,-3.0869,-3.0869,-3.0313,-2.9568,-2.9247,-2.9281,-2.9162,-2.9128,-2.9297,-2.9416,-2.9247,-2.9297,-4.3479,-4.3479,-4.3479,-4.3479,-4.3479,-4.3479,-4.3479,-4.3479,-4.3479,-4.3479,-4.3479,-4.3479,-4.2732,-4.146,-4.0813,-3.9872,-3.8909,-3.8348,-3.8167,-3.8133,-3.8016,-3.7861,-3.7649,-3.7183,-3.6217,-3.4804,-3.4067,-3.3262,-3.2476,-3.2109,-3.1966,-3.1731,-3.1543,-3.1336,-3.123,-3.119,-3.0954,-3.0717,-3.0632,-3.0395,-3.0074,-3.0042,-3.0006,-3.0023,-3.0042,-3.0042,-3.0076,-3.004,-3.0243,-3.0412,-3.0226,-3.0025,-3.004,-3.0378,-3.0581,-3.0717,-3.092,-3.119,-3.1173,-3.119,-3.1173,-3.119,-3.119,-3.119,-3.119,-3.119,-3.1393,-3.1613,-3.1782,-3.2002,-3.2713,-3.2899,-3.3013,-3.3017,-3.2797,-3.2882,-3.3423,-3.4235,-3.4421,-3.3812,-3.366,-3.4201,-3.4438,-3.4298,-3.4416,-3.4573,-3.4585,-3.41,-3.3457,-3.2882,-3.2154,-3.1918,-3.1444,-3.136,-3.1681,-3.1715,-3.1579,-3.1616,-3.165,-3.1427,-3.1207,-3.1173,-3.1157,-3.1157,-3.1123,-3.1004,-3.0398,-3.0093,-2.9924,-3.0161,-3.0211,-3.0093,-3.0059,-3.0194,-3.0294,-4.3479,-4.3479,-4.3479,-4.3479,-4.3479,-4.3479,-4.3479,-4.3479,-4.3479,-4.3497,-4.3462,-4.348,-4.2737,-4.1632,-4.0655,-3.9788,-3.8869,-3.824,-3.7826,-3.779,-3.7596,-3.7377,-3.7117,-3.6805,-3.6063,-3.4924,-3.4056,-3.305,-3.2119,-3.1765,-3.1653,-3.1521,-3.1389,-3.1271,-3.121,-3.119,-3.114,-3.1089,-3.1072,-3.1072,-3.1021,-3.1004,-3.1004,-3.0987,-3.097,-3.097,-3.0954,-3.0987,-3.1106,-3.119,-3.119,-3.119,-3.119,-3.119,-3.119,-3.1157,-3.1173,-3.1173,-3.119,-3.119,-3.119,-3.119,-3.136,-3.1275,-3.1241,-3.1546,-3.1918,-3.2175,-3.2408,-3.2747,-3.344,-3.3592,-3.3677,-3.3829,-3.4184,-3.415,-3.41,-3.4873,-3.4788,-3.4303,-3.4387,-3.4895,-3.5216,-3.5245,-3.5464,-3.5616,-3.5616,-3.543,-3.4737,-3.423,-3.3541,-3.3305,-3.3085,-3.2357,-3.251,-3.2141,-3.1989,-3.2087,-3.2107,-3.1684,-3.1393,-3.1241,-3.119,-3.119,-3.114,-3.1038,-3.1021,-3.0768,-3.0801,-3.1173,-3.1055,-3.07,-3.0818,-3.114,-3.1106,-4.3479,-4.3479,-4.3479,-4.3479,-4.3479,-4.3479,-4.3479,-4.3479,-4.3479,-4.3481,-4.3394,-4.325,-4.2141,-4.0798,-4.0138,-3.9074,-3.7931,-3.7448,-3.7358,-3.7377,-3.7152,-3.6862,-3.6641,-3.644,-3.5544,-3.4449,-3.3768,-3.2924,-3.1701,-3.1291,-3.1346,-3.1288,-3.1249,-3.121,-3.121,-3.119,-3.119,-3.119,-3.119,-3.119,-3.119,-3.119,-3.119,-3.119,-3.119,-3.119,-3.119,-3.119,-3.119,-3.119,-3.119,-3.119,-3.119,-3.119,-3.119,-3.119,-3.119,-3.119,-3.119,-3.119,-3.119,-3.1309,-3.1701,-3.1735,-3.1701,-3.2239,-3.2696,-3.2848,-3.3136,-3.3558,-3.4218,-3.432,-3.4641,-3.5013,-3.5165,-3.5233,-3.5194,-3.5312,-3.5515,-3.5025,-3.5228,-3.5363,-3.5515,-3.5616,-3.5616,-3.5616,-3.5616,-3.5616,-3.5261,-3.5126,-3.4991,-3.4974,-3.5109,-3.4197,-3.3491,-3.2831,-3.2462,-3.273,-3.2628,-3.1972,-3.1647,-3.1309,-3.119,-3.119,-3.119,-3.114,-3.1157,-3.119,-3.119,-3.119,-3.119,-3.119,-3.119,-3.119,-3.119,-4.3479,-4.3479,-4.3479,-4.3479,-4.3479,-4.3479,-4.3479,-4.3479,-4.3479,-4.3428,-4.3141,-4.2577,-4.1486,-4.0081,-3.8987,-3.7976,-3.7143,-3.6876,-3.6838,-3.6801,-3.66,-3.6312,-3.6135,-3.5963,-3.4998,-3.4017,-3.3571,-3.2832,-3.1362,-3.121,-3.119,-3.119,-3.119,-3.119,-3.119,-3.119,-3.119,-3.119,-3.119,-3.119,-3.119,-3.119,-3.119,-3.119,-3.119,-3.119,-3.119,-3.119,-3.119,-3.119,-3.119,-3.119,-3.119,-3.119,-3.119,-3.119,-3.119,-3.119,-3.119,-3.1207,-3.136,-3.1785,-3.2158,-3.2226,-3.2239,-3.2797,-3.3474,-3.3744,-3.4218,-3.467,-3.5047,-3.5047,-3.5267,-3.5481,-3.5616,-3.5616,-3.5616,-3.5616,-3.5616,-3.5616,-3.5549,-3.5515,-3.5549,-3.5616,-3.5616,-3.5616,-3.5616,-3.5616,-3.5616,-3.5616,-3.56,-3.5481,-3.5363,-3.4687,-3.3964,-3.3592,-3.3186,-3.3406,-3.3355,-3.2662,-3.2002,-3.1732,-3.1393,-3.119,-3.119,-3.1444,-3.119,-3.119,-3.119,-3.119,-3.119,-3.119,-3.119,-3.119,-3.119,-4.3479,-4.3479,-4.3479,-4.3479,-4.3479,-4.3479,-4.3497,-4.348,-4.3445,-4.3286,-4.2923,-4.1883,-4.0766,-3.9456,-3.8087,-3.6928,-3.635,-3.6423,-3.6406,-3.635,-3.6161,-3.5876,-3.5672,-3.5447,-3.4967,-3.3978,-3.3465,-3.2628,-3.1444,-3.119,-3.119,-3.119,-3.119,-3.119,-3.119,-3.119,-3.119,-3.119,-3.119,-3.119,-3.119,-3.119,-3.119,-3.119,-3.119,-3.119,-3.119,-3.119,-3.119,-3.119,-3.119,-3.119,-3.119,-3.119,-3.119,-3.119,-3.119,-3.119,-3.1224,-3.1444,-3.1752,-3.2141,-3.2581,-3.2814,-3.3102,-3.3626,-3.4184,-3.4709,-3.5109,-3.5464,-3.5481,-3.5566,-3.5583,-3.5583,-3.5616,-3.5616,-3.5616,-3.5616,-3.5616,-3.5616,-3.5616,-3.5616,-3.5616,-3.5616,-3.5616,-3.5616,-3.5616,-3.5616,-3.5616,-3.5616,-3.5566,-3.5402,-3.5148,-3.4658,-3.4303,-3.4353,-3.4134,-3.4252,-3.415,-3.3694,-3.2916,-3.2239,-3.2104,-3.2239,-3.1918,-3.2104,-3.1664,-3.1207,-3.119,-3.119,-3.119,-3.119,-3.119,-3.119,-3.119,-4.3479,-4.3479,-4.3479,-4.3479,-4.3479,-4.3479,-4.3481,-4.3394,-4.3286,-4.3013,-4.2578,-4.1403,-4.0126,-3.8692,-3.7025,-3.623,-3.611,-3.6088,-3.6088,-3.6071,-3.5915,-3.5778,-3.5622,-3.5616,-3.5131,-3.4252,-3.3711,-3.2577,-3.1579,-3.1258,-3.119,-3.119,-3.119,-3.119,-3.119,-3.119,-3.119,-3.119,-3.119,-3.119,-3.119,-3.119,-3.119,-3.119,-3.119,-3.119,-3.119,-3.119,-3.119,-3.119,-3.119,-3.119,-3.119,-3.119,-3.119,-3.119,-3.119,-3.119,-3.1343,-3.1836,-3.2293,-3.275,-3.3389,-3.3986,-3.4235,-3.4658,-3.516,-3.5397,-3.5566,-3.56,-3.5616,-3.5616,-3.5616,-3.5616,-3.5616,-3.5616,-3.5616,-3.5616,-3.5616,-3.5616,-3.5616,-3.5616,-3.5616,-3.5616,-3.5616,-3.5616,-3.5616,-3.5616,-3.5616,-3.5616,-3.5616,-3.5447,-3.5329,-3.4895,-3.4759,-3.4793,-3.4827,-3.4979,-3.481,-3.4607,-3.4117,-3.3592,-3.3943,-3.3943,-3.3491,-3.2662,-3.2036,-3.1613,-3.1326,-3.1241,-3.1326,-3.1275,-3.119,-3.119,-3.1207,-4.3479,-4.3479,-4.3479,-4.3479,-4.3479,-4.3479,-4.3428,-4.3251,-4.3013,-4.2673,-4.1966,-4.0373,-3.8707,-3.7183,-3.6031,-3.5817,-3.5805,-3.5783,-3.5783,-3.5827,-3.5734,-3.5684,-3.5639,-3.5566,-3.5216,-3.4624,-3.4066,-3.3271,-3.2171,-3.1427,-3.119,-3.119,-3.119,-3.119,-3.119,-3.119,-3.119,-3.119,-3.119,-3.119,-3.119,-3.119,-3.119,-3.119,-3.119,-3.119,-3.119,-3.119,-3.119,-3.119,-3.119,-3.119,-3.119,-3.1224,-3.1326,-3.1816,-3.1836,-3.1853,-3.1938,-3.2564,-3.3021,-3.3495,-3.415,-3.4539,-3.4945,-3.5334,-3.5616,-3.56,-3.56,-3.5616,-3.5616,-3.5616,-3.5616,-3.5616,-3.5616,-3.5616,-3.5616,-3.5616,-3.5616,-3.5616,-3.5616,-3.5616,-3.5616,-3.5616,-3.5616,-3.5616,-3.5616,-3.5616,-3.5616,-3.5616,-3.5616,-3.5583,-3.5464,-3.5278,-3.5261,-3.5295,-3.5245,-3.5329,-3.5329,-3.5216,-3.5278,-3.5194,-3.516,-3.5177,-3.4788,-3.3846,-3.2696,-3.2171,-3.2002,-3.1749,-3.1498,-3.1512,-3.1529,-3.1275,-3.1255,-4.3479,-4.3479,-4.3479,-4.3479,-4.3479,-4.3479,-4.3375,-4.3142,-4.2769,-4.2358,-4.1396,-3.96,-3.758,-3.6152,-3.5814,-3.5644,-3.5622,-3.5616,-3.5616,-3.5616,-3.5616,-3.5616,-3.5616,-3.5549,-3.5351,-3.4742,-3.4489,-3.3863,-3.3055,-3.2226,-3.1715,-3.1224,-3.119,-3.119,-3.119,-3.119,-3.119,-3.119,-3.119,-3.119,-3.119,-3.119,-3.119,-3.119,-3.119,-3.119,-3.119,-3.119,-3.119,-3.119,-3.119,-3.1275,-3.1495,-3.1596,-3.1955,-3.2462,-3.2767,-3.2953,-3.3072,-3.3423,-3.3947,-3.4336,-3.4742,-3.5064,-3.5414,-3.5616,-3.5616,-3.5616,-3.5616,-3.5616,-3.5616,-3.5616,-3.5616,-3.5616,-3.5616,-3.5616,-3.5616,-3.5616,-3.5616,-3.5616,-3.5616,-3.5616,-3.5616,-3.5616,-3.5616,-3.5616,-3.5616,-3.5616,-3.5616,-3.5616,-3.5616,-3.5616,-3.5566,-3.5481,-3.5515,-3.5566,-3.56,-3.5616,-3.5616,-3.56,-3.5549,-3.5549,-3.5464,-3.5549,-3.5616,-3.5092,-3.3977,-3.3339,-3.2716,-3.2527,-3.2324,-3.2053,-3.1901,-3.1647,-3.1393,-4.3479,-4.3479,-4.3479,-4.3479,-4.3479,-4.3479,-4.334,-4.3068,-4.2613,-4.2053,-4.1143,-3.9239,-3.7608,-3.6683,-3.5943,-3.5616,-3.5616,-3.5616,-3.5616,-3.5616,-3.5616,-3.5616,-3.5616,-3.5583,-3.5549,-3.5346,-3.4962,-3.4556,-3.4134,-3.3372,-3.2408,-3.1427,-3.1596,-3.1343,-3.1309,-3.1461,-3.1275,-3.1224,-3.119,-3.119,-3.119,-3.119,-3.119,-3.119,-3.119,-3.119,-3.119,-3.1275,-3.1326,-3.1343,-3.1478,-3.1715,-3.2121,-3.2205,-3.2594,-3.322,-3.3749,-3.3964,-3.4201,-3.4269,-3.4404,-3.4692,-3.5047,-3.5436,-3.5583,-3.5616,-3.5616,-3.5616,-3.5616,-3.5616,-3.5616,-3.5616,-3.5616,-3.5616,-3.5616,-3.5616,-3.5616,-3.5616,-3.5616,-3.5616,-3.5616,-3.5616,-3.5616,-3.5616,-3.5616,-3.5616,-3.5616,-3.5616,-3.5616,-3.5616,-3.5616,-3.5616,-3.5616,-3.5583,-3.5583,-3.5616,-3.5616,-3.5616,-3.5616,-3.5616,-3.56,-3.5616,-3.5616,-3.5616,-3.56,-3.5464,-3.5312,-3.4506,-3.3829,-3.3474,-3.3152,-3.2763,-3.2594,-3.2493,-3.2053,-4.3479,-4.3479,-4.3479,-4.3479,-4.3479,-4.3479,-4.3286,-4.29,-4.232,-4.1222,-3.9982,-3.8584,-3.753,-3.6761,-3.6011,-3.5616,-3.5616,-3.5616,-3.5616,-3.5616,-3.5616,-3.5616,-3.5616,-3.5616,-3.56,-3.5549,-3.5245,-3.4861,-3.4421,-3.4218,-3.3592,-3.2831,-3.2577,-3.2577,-3.2493,-3.1989,-3.165,-3.1309,-3.1224,-3.1207,-3.119,-3.119,-3.119,-3.119,-3.119,-3.119,-3.1258,-3.1684,-3.1802,-3.1972,-3.2273,-3.2611,-3.2882,-3.2949,-3.3355,-3.3964,-3.4421,-3.4709,-3.5081,-3.5148,-3.516,-3.5194,-3.543,-3.5616,-3.5616,-3.5616,-3.5616,-3.5616,-3.5616,-3.5616,-3.5633,-3.5616,-3.5616,-3.5616,-3.5616,-3.5616,-3.5785,-3.587,-3.5971,-3.614,-3.5836,-3.5616,-3.5616,-3.5616,-3.5616,-3.5616,-3.5616,-3.5616,-3.5616,-3.5616,-3.5616,-3.5616,-3.5616,-3.5616,-3.5616,-3.5616,-3.5616,-3.5616,-3.5616,-3.5616,-3.5616,-3.5616,-3.5616,-3.5616,-3.5616,-3.5532,-3.5414,-3.5267,-3.4844,-3.4286,-3.3761,-3.3288,-3.3237,-3.3355,-3.3034,-4.3479,-4.3479,-4.3479,-4.3479,-4.3479,-4.3479,-4.3268,-4.2807,-4.2121,-4.0889,-3.9266,-3.8362,-3.7635,-3.6958,-3.6039,-3.5616,-3.5616,-3.5616,-3.5616,-3.5616,-3.5616,-3.5616,-3.5616,-3.5616,-3.5616,-3.5616,-3.5566,-3.5245,-3.4945,-3.4861,-3.4523,-3.4197,-3.4011,-3.3858,-3.3152,-3.2699,-3.2141,-3.1918,-3.1596,-3.1715,-3.1799,-3.1647,-3.1562,-3.1495,-3.136,-3.1393,-3.1579,-3.2005,-3.2361,-3.2645,-3.3017,-3.344,-3.3626,-3.3812,-3.415,-3.4539,-3.4878,-3.5098,-3.543,-3.56,-3.56,-3.5515,-3.5549,-3.5616,-3.5616,-3.5616,-3.5616,-3.5616,-3.5616,-3.5684,-3.5836,-3.6062,-3.6163,-3.6248,-3.5701,-3.5667,-3.6259,-3.6512,-3.6614,-3.6698,-3.6529,-3.6648,-3.6349,-3.6366,-3.5904,-3.5819,-3.5616,-3.5616,-3.5616,-3.5616,-3.5616,-3.5616,-3.5616,-3.5616,-3.5616,-3.5616,-3.5616,-3.5616,-3.5616,-3.5616,-3.5616,-3.5616,-3.5616,-3.5616,-3.5616,-3.5616,-3.5532,-3.5419,-3.5216,-3.4928,-3.4506,-3.415,-3.432,-3.4416,-3.4315,-4.3479,-4.3479,-4.3479,-4.3479,-4.3479,-4.3479,-4.3286,-4.2825,-4.2059,-4.111,-3.9849,-3.8565,-3.7882,-3.7466,-3.6242,-3.565,-3.5616,-3.5616,-3.5616,-3.5616,-3.5616,-3.5616,-3.5616,-3.5616,-3.5616,-3.5616,-3.5583,-3.5549,-3.5481,-3.5397,-3.5346,-3.5329,-3.5076,-3.4675,-3.3491,-3.2713,-3.2716,-3.3102,-3.2527,-3.2679,-3.2814,-3.251,-3.2327,-3.2175,-3.1833,-3.1867,-3.2242,-3.2581,-3.297,-3.3355,-3.3626,-3.4032,-3.4404,-3.4455,-3.481,-3.5346,-3.5464,-3.5532,-3.5616,-3.5616,-3.5616,-3.5616,-3.5616,-3.5616,-3.5616,-3.565,-3.5791,-3.5926,-3.5904,-3.618,-3.6468,-3.6795,-3.688,-3.6755,-3.6265,-3.6174,-3.6783,-3.7702,-3.7905,-3.7753,-3.8058,-3.8278,-3.7719,-3.7195,-3.6518,-3.6113,-3.5735,-3.5616,-3.565,-3.5616,-3.5616,-3.5616,-3.5616,-3.5616,-3.5616,-3.5616,-3.5616,-3.5616,-3.5616,-3.5616,-3.5616,-3.5616,-3.5616,-3.5616,-3.5616,-3.5616,-3.5616,-3.5583,-3.5397,-3.5267,-3.538,-3.5261,-3.5414,-3.5346,-3.5092,-4.3479,-4.3479,-4.3479,-4.3479,-4.3479,-4.3479,-4.325,-4.2787,-4.1846,-4.0919,-3.994,-3.8548,-3.7898,-3.7432,-3.6428,-3.5616,-3.5616,-3.5616,-3.5616,-3.5616,-3.5616,-3.5616,-3.5616,-3.5616,-3.5616,-3.5616,-3.5616,-3.5616,-3.5583,-3.5616,-3.5616,-3.56,-3.5549,-3.5064,-3.4353,-3.3778,-3.3795,-3.3423,-3.3152,-3.3169,-3.3334,-3.3186,-3.3017,-3.3038,-3.2696,-3.2696,-3.3034,-3.3343,-3.3744,-3.415,-3.4404,-3.4861,-3.5131,-3.5143,-3.5295,-3.5583,-3.5616,-3.5616,-3.5616,-3.5616,-3.5616,-3.5633,-3.5684,-3.5684,-3.5633,-3.6146,-3.6299,-3.6518,-3.6766,-3.7144,-3.7483,-3.7533,-3.7584,-3.7567,-3.7297,-3.7297,-3.7804,-3.8937,-3.952,-3.9022,-3.9022,-3.8548,-3.8024,-3.7905,-3.7364,-3.6874,-3.6546,-3.5955,-3.5802,-3.5684,-3.5633,-3.5616,-3.5616,-3.5616,-3.5616,-3.565,-3.5633,-3.5616,-3.5616,-3.5616,-3.5616,-3.5616,-3.5616,-3.5616,-3.5616,-3.5616,-3.5616,-3.5616,-3.5616,-3.56,-3.5616,-3.5616,-3.5549,-3.5532,-3.5464,-4.3479,-4.3479,-4.3479,-4.3479,-4.3479,-4.3479,-4.3142,-4.244,-4.1561,-4.0789,-3.9915,-3.8582,-3.7898,-3.7442,-3.6411,-3.5616,-3.5616,-3.5616,-3.5616,-3.5616,-3.5616,-3.5616,-3.5616,-3.5616,-3.5616,-3.5616,-3.5616,-3.5616,-3.5616,-3.5616,-3.5616,-3.5616,-3.56,-3.5329,-3.4878,-3.459,-3.4404,-3.4134,-3.4083,-3.3981,-3.4083,-3.3998,-3.3795,-3.3694,-3.3541,-3.3453,-3.3812,-3.4218,-3.4624,-3.4928,-3.5284,-3.5616,-3.5616,-3.5616,-3.5616,-3.5616,-3.5616,-3.5616,-3.5616,-3.6011,-3.6079,-3.6096,-3.6011,-3.6163,-3.6276,-3.6721,-3.6958,-3.7263,-3.7821,-3.8091,-3.8261,-3.8278,-3.8362,-3.8362,-3.8531,-3.8531,-3.8751,-3.9893,-4.0079,-3.9673,-3.9462,-3.8886,-3.8497,-3.8379,-3.821,-3.7804,-3.7391,-3.6783,-3.6242,-3.6242,-3.6208,-3.6191,-3.6079,-3.6062,-3.596,-3.5735,-3.5701,-3.5616,-3.5616,-3.5616,-3.5616,-3.5616,-3.5616,-3.5616,-3.5616,-3.5616,-3.5616,-3.5616,-3.5616,-3.5616,-3.5616,-3.5616,-3.5616,-3.5616,-3.5616,-4.3479,-4.3479,-4.3479,-4.3479,-4.3479,-4.341,-4.2809,-4.181,-4.1378,-4.0754,-3.9926,-3.8481,-3.7838,-3.7516,-3.6265,-3.5633,-3.5616,-3.5616,-3.5616,-3.5616,-3.5616,-3.5616,-3.5616,-3.5616,-3.5616,-3.5616,-3.5616,-3.5616,-3.5616,-3.5616,-3.5616,-3.5616,-3.5616,-3.5481,-3.5284,-3.5047,-3.4945,-3.4945,-3.481,-3.481,-3.494,-3.4793,-3.459,-3.4421,-3.4167,-3.4184,-3.4404,-3.4675,-3.5013,-3.5318,-3.5583,-3.5616,-3.5616,-3.5616,-3.5616,-3.5616,-3.5616,-3.5633,-3.5893,-3.6383,-3.684,-3.6958,-3.6998,-3.7313,-3.7432,-3.7415,-3.7601,-3.7973,-3.8464,-3.8751,-3.8971,-3.9106,-3.9242,-3.9486,-3.9774,-3.9808,-3.9825,-4.0113,-4.0113,-3.9994,-3.9977,-3.9706,-3.9529,-3.9377,-3.8954,-3.8853,-3.8514,-3.8227,-3.777,-3.7533,-3.7483,-3.7297,-3.7077,-3.6654,-3.6383,-3.5853,-3.5701,-3.5616,-3.5616,-3.5616,-3.5616,-3.5616,-3.5616,-3.5616,-3.5616,-3.5616,-3.5616,-3.5616,-3.5616,-3.5616,-3.5616,-3.5616,-3.5616,-3.5616,-3.5616,-4.3479,-4.3479,-4.3479,-4.3463,-4.3358,-4.2902,-4.2342,-4.1768,-4.1361,-4.0548,-3.9266,-3.8328,-3.7652,-3.7032,-3.6062,-3.5701,-3.5616,-3.5616,-3.5616,-3.5616,-3.5616,-3.5616,-3.5616,-3.5616,-3.5616,-3.5616,-3.5616,-3.5616,-3.5616,-3.5616,-3.5616,-3.5616,-3.5616,-3.5616,-3.5532,-3.5363,-3.5447,-3.5464,-3.5301,-3.5402,-3.5515,-3.5312,-3.5216,-3.5064,-3.494,-3.4996,-3.5115,-3.5216,-3.543,-3.5532,-3.5616,-3.5616,-3.5616,-3.5616,-3.5616,-3.5616,-3.565,-3.5808,-3.6332,-3.6677,-3.7202,-3.799,-3.8268,-3.8041,-3.8075,-3.8142,-3.8328,-3.8734,-3.9148,-3.9436,-3.9554,-3.9673,-3.9757,-3.991,-4.0113,-4.0113,-4.0113,-4.0113,-4.0113,-4.0113,-4.0113,-4.0096,-4.0028,-3.996,-3.9588,-3.969,-3.9622,-3.9334,-3.9063,-3.8734,-3.8514,-3.8311,-3.7702,-3.7178,-3.6332,-3.5718,-3.5667,-3.5616,-3.5616,-3.5616,-3.5616,-3.5616,-3.5616,-3.5616,-3.5616,-3.5616,-3.5616,-3.5616,-3.5616,-3.5616,-3.5616,-3.5616,-3.5616,-3.5616,-3.5532,-4.3479,-4.3479,-4.3479,-4.3357,-4.3032,-4.2498,-4.1813,-4.1113,-4.1018,-4.024,-3.9003,-3.8227,-3.7499,-3.6772,-3.6028,-3.5616,-3.5616,-3.5616,-3.5616,-3.5616,-3.5616,-3.5616,-3.5616,-3.5616,-3.5616,-3.5616,-3.5616,-3.5616,-3.5616,-3.5616,-3.5616,-3.5616,-3.5616,-3.5616,-3.5583,-3.5549,-3.5566,-3.56,-3.5583,-3.5616,-3.5616,-3.5616,-3.5616,-3.5616,-3.5616,-3.5616,-3.5616,-3.5616,-3.5616,-3.5616,-3.5616,-3.5616,-3.5718,-3.5876,-3.6096,-3.6197,-3.6535,-3.662,-3.6924,-3.7483,-3.8091,-3.8684,-3.9216,-3.9216,-3.9073,-3.9123,-3.9283,-3.9503,-3.9825,-4.0079,-4.0079,-4.0096,-4.0096,-4.0096,-4.0113,-4.0113,-4.0113,-4.0113,-4.0113,-4.0113,-4.0113,-4.0113,-4.0096,-4.0113,-4.0096,-3.9994,-3.996,-3.9859,-3.9656,-3.9453,-3.9259,-3.9089,-3.8311,-3.755,-3.6664,-3.5955,-3.5769,-3.5735,-3.5616,-3.5616,-3.5616,-3.5616,-3.5616,-3.5616,-3.5616,-3.5616,-3.5616,-3.5616,-3.5616,-3.5616,-3.5616,-3.5616,-3.5616,-3.5616,-3.5487,-4.3479,-4.3479,-4.348,-4.316,-4.2635,-4.2177,-4.1165,-3.9915,-4.0394,-3.9942,-3.8749,-3.8075,-3.7313,-3.6485,-3.5876,-3.5616,-3.5616,-3.5616,-3.5616,-3.5616,-3.5616,-3.5616,-3.5616,-3.5616,-3.5616,-3.5616,-3.5616,-3.5616,-3.5616,-3.5616,-3.5616,-3.5616,-3.5616,-3.5616,-3.5616,-3.5616,-3.5616,-3.5616,-3.5616,-3.5616,-3.5616,-3.5616,-3.5616,-3.5616,-3.5616,-3.5616,-3.5616,-3.5616,-3.5616,-3.5616,-3.5616,-3.5616,-3.6011,-3.6485,-3.6772,-3.6975,-3.7313,-3.7449,-3.7635,-3.8142,-3.8616,-3.9106,-3.9512,-3.9757,-3.9774,-3.9723,-3.9808,-3.9825,-4.0062,-4.0113,-4.0113,-4.0113,-4.0113,-4.0113,-4.0113,-4.0113,-4.0113,-4.0113,-4.0113,-4.0113,-4.0113,-4.0113,-4.0113,-4.0113,-4.0113,-4.0113,-4.0113,-4.0113,-4.0045,-3.991,-3.9808,-3.969,-3.914,-3.8328,-3.7499,-3.6789,-3.6124,-3.5904,-3.5819,-3.5616,-3.5633,-3.5616,-3.5616,-3.5616,-3.5616,-3.5616,-3.5616,-3.5616,-3.56,-3.56,-3.5577,-3.5594,-3.5571,-3.5503,-3.5148,-4.3479,-4.3462,-4.3287,-4.2919,-4.2418,-4.1899,-4.0874,-3.9588,-3.9559,-3.8748,-3.7496,-3.7134,-3.6654,-3.5977,-3.5752,-3.5616,-3.5616,-3.5616,-3.5616,-3.5616,-3.5616,-3.5616,-3.5616,-3.5616,-3.5616,-3.5616,-3.5616,-3.5616,-3.5616,-3.5616,-3.5616,-3.5616,-3.5616,-3.5616,-3.5616,-3.5616,-3.5616,-3.5616,-3.5616,-3.5616,-3.5616,-3.5616,-3.5616,-3.5616,-3.5616,-3.5616,-3.5616,-3.5616,-3.5616,-3.5616,-3.5616,-3.5926,-3.6485,-3.7212,-3.7584,-3.7686,-3.7905,-3.8108,-3.8379,-3.8785,-3.9157,-3.9563,-3.9943,-4.0028,-4.0096,-4.0113,-4.0113,-4.0113,-4.0113,-4.0113,-4.0113,-4.0113,-4.0113,-4.0113,-4.0113,-4.0113,-4.0113,-4.0113,-4.0113,-4.0113,-4.0113,-4.0113,-4.0113,-4.0113,-4.0113,-4.0113,-4.0113,-4.0113,-4.0113,-4.0028,-4.0011,-3.9926,-3.9977,-3.9283,-3.8345,-3.7567,-3.6891,-3.6518,-3.6451,-3.6129,-3.5684,-3.5633,-3.5616,-3.5616,-3.5616,-3.5616,-3.5616,-3.5616,-3.56,-3.56,-3.5487,-3.5458,-3.5261,-3.5138,-3.4667,-4.3479,-4.3463,-4.3142,-4.2653,-4.2115,-4.1618,-4.0423,-3.8965,-3.8683,-3.774,-3.6485,-3.6558,-3.6349,-3.5667,-3.5616,-3.5616,-3.5616,-3.5616,-3.5616,-3.5616,-3.5616,-3.5616,-3.5616,-3.5616,-3.5616,-3.5616,-3.5616,-3.5616,-3.5616,-3.5616,-3.5616,-3.5616,-3.5616,-3.5616,-3.5616,-3.5616,-3.5616,-3.5616,-3.5616,-3.565,-3.565,-3.5616,-3.5616,-3.5616,-3.5616,-3.5616,-3.5616,-3.565,-3.5859,-3.6197,-3.6518,-3.6823,-3.7381,-3.7973,-3.8328,-3.8497,-3.8717,-3.8971,-3.9191,-3.9377,-3.9614,-3.996,-4.0113,-4.0113,-4.0113,-4.0113,-4.0113,-4.0113,-4.0113,-4.0113,-4.0113,-4.0113,-4.0113,-4.0113,-4.0113,-4.0113,-4.0113,-4.0113,-4.0113,-4.0113,-4.0113,-4.0113,-4.0113,-4.0113,-4.0113,-4.0113,-4.0113,-4.0113,-4.0113,-4.0113,-4.0113,-4.0113,-4.0113,-3.9656,-3.8616,-3.8024,-3.7618,-3.7313,-3.7117,-3.6383,-3.5836,-3.5684,-3.5616,-3.5616,-3.5616,-3.5616,-3.5616,-3.5735,-3.565,-3.56,-3.5441,-3.5321,-3.5101,-3.4914,-3.4496,-4.3479,-4.3444,-4.3069,-4.248,-4.1754,-4.1238,-3.9882,-3.8136,-3.7804,-3.6992,-3.5836,-3.6332,-3.6146,-3.5802,-3.5616,-3.5616,-3.5616,-3.5616,-3.5616,-3.5616,-3.5616,-3.5616,-3.5616,-3.5616,-3.5616,-3.5616,-3.5616,-3.5616,-3.5616,-3.5616,-3.5616,-3.5616,-3.5616,-3.5616,-3.5616,-3.5616,-3.5616,-3.5667,-3.5718,-3.5825,-3.5752,-3.565,-3.5616,-3.5616,-3.5616,-3.5633,-3.5701,-3.5893,-3.6214,-3.6857,-3.7516,-3.7838,-3.821,-3.87,-3.9012,-3.9266,-3.9537,-3.9791,-3.996,-3.9943,-4.0028,-4.0113,-4.0113,-4.007,-4.0045,-4.002,-4.002,-4.002,-4.002,-4.0096,-4.0096,-4.0113,-4.0113,-4.0113,-4.0113,-4.0113,-4.0113,-4.0113,-4.0113,-4.0113,-4.0113,-4.0113,-4.0113,-4.0113,-4.0113,-4.0113,-4.0113,-4.0113,-4.0113,-4.0113,-4.0113,-4.0113,-4.0113,-3.9495,-3.8903,-3.8667,-3.8413,-3.8075,-3.7753,-3.6772,-3.6062,-3.6096,-3.5938,-3.5616,-3.5616,-3.5735,-3.5887,-3.6062,-3.5904,-3.5938,-3.6028,-3.5985,-3.5399,-3.5143,-3.4627,-4.3479,-4.348,-4.3087,-4.2462,-4.1665,-4.0718,-3.9382,-3.796,-3.7246,-3.6451,-3.5842,-3.5667,-3.5667,-3.5616,-3.5616,-3.5616,-3.5616,-3.5616,-3.5616,-3.5616,-3.5616,-3.5616,-3.5616,-3.5616,-3.5616,-3.5616,-3.5616,-3.5616,-3.5616,-3.5616,-3.5616,-3.5616,-3.5616,-3.5616,-3.5616,-3.5616,-3.565,-3.5825,-3.6214,-3.6451,-3.6349,-3.6146,-3.5667,-3.5616,-3.5616,-3.6028,-3.6349,-3.6535,-3.7009,-3.7652,-3.8345,-3.8684,-3.8988,-3.9368,-3.9656,-3.9723,-4.0028,-4.0062,-4.0113,-4.0113,-4.0113,-4.007,-4.0045,-3.9893,-3.9841,-3.9687,-3.9713,-3.9747,-3.9825,-4.002,-4.007,-4.0096,-4.0113,-4.0113,-4.0113,-4.0113,-4.0113,-4.0113,-4.0113,-4.0113,-4.0113,-4.0113,-4.0113,-4.0113,-4.0113,-4.0113,-4.0113,-4.0113,-4.0113,-4.0113,-4.0113,-4.0113,-4.0113,-4.0096,-3.9825,-3.9639,-3.9368,-3.8971,-3.8447,-3.7601,-3.6975,-3.6671,-3.6434,-3.5836,-3.587,-3.6079,-3.6231,-3.6502,-3.684,-3.6945,-3.7006,-3.6846,-3.6091,-3.5444,-3.4939]},{"header":{"parameterUnit":"m.s-1","parameterCategory":1,"la1":31.0,"la2":29.5877,"lo1":-88.7671,"lo2":-86.6584,"dy":0.0162,"dx":0.0185,"nx":115,"ny":88,"refTime":"2026-05-18T12:00:00:Z","depth":0,"parameterNumber":3,"parameterNumberName":"V-component_of_WINDS"},"data":[0.0,0.0,0.0,0.0,0.0,0.0,0.0,0.0,0.0,0.0,0.0,0.0,0.0,0.0,0.0,0.0,0.0,0.0,0.0,0.0,0.0,0.0,0.0,0.0,0.0,0.0,0.0,0.0,0.0,0.0,0.0,0.0,0.0,0.0,0.0,0.0,0.0,0.0,0.0,0.0,0.0,0.0,0.0,0.0,0.0,0.0,0.0,0.0,0.0,0.0,0.0,0.0,0.0,0.0,0.0,0.0,0.0,0.0,0.0,0.0,0.0,0.0,0.0,0.0,0.0,0.0,0.0,0.0,0.0,0.0,0.0,0.0,0.0,0.0,0.0,0.0,0.0,0.0,0.0,0.0,0.0,0.0,0.0,0.0,0.0,0.0,0.0,0.0,0.0,0.0,0.0,0.0,0.0,0.0,0.0,0.0,0.0,0.0,0.0,0.0,0.0,0.0,0.0,0.0,0.0,0.0,0.0,0.0,0.0,0.0,0.0,0.0,0.0,0.0,0.0,0.0,0.0,0.0,0.0,0.0,0.0,0.0,0.0,0.0,0.0,0.0,0.0,0.0,0.0,0.0,0.0,0.0,0.0,0.0,0.0,0.0,0.0,0.0,0.0,0.0,0.0,0.0,0.0,0.0,0.0,0.0,0.0,0.0,0.0,0.0,0.0,0.0,0.0,0.0,0.0,0.0,0.0,0.0,0.0,0.0,0.0,0.0,0.0,0.0,0.0,0.0,0.0,0.0,0.0,0.0,0.0,0.0,0.0,0.0,0.0,0.0,0.0,0.0,0.0,0.0,0.0,0.0,0.0,0.0,0.0,0.0,0.0,0.0,0.0,0.0,0.0,0.0,0.0,0.0,0.0,0.0,0.0,0.0,0.0,0.0,0.0,0.0,0.0,0.0,0.0,0.0,0.0,0.0,0.0,0.0,0.0,0.0,0.0,0.0,0.0,0.0,0.0,0.0,0.0,0.0,0.0,0.0,0.0,0.0,0.0,0.0,0.0,0.0,0.0,0.0,0.0,0.0,0.0,0.0,0.0,0.0,0.0,0.0,0.0,0.0,0.0,0.0,0.0,0.0,0.0,0.0,0.0,0.0,0.0,0.0,0.0,0.0,0.0,0.0,0.0,0.0,0.0,0.0,0.0,0.0,0.0,0.0,0.0,0.0,0.0,0.0,0.0,0.0,0.0,0.0,0.0,0.0,0.0,0.0,0.0,0.0,0.0,0.0,0.0,0.0,0.0,0.0,0.0,0.0,0.0,0.0,0.0,0.0,0.0,0.0,0.0,0.0,0.0,0.0,0.0,0.0,0.0,0.0,0.0,0.0,0.0,0.0,0.0,0.0,0.0,0.0,0.0,0.0,0.0,0.0,0.0,0.0,0.0,0.0,0.0,0.0,0.0,0.0,0.0,0.0,0.0,0.0,0.0,0.0,0.0,0.0,0.0,0.0,0.0,0.0,0.0,0.0,0.0,0.0,0.0,0.0,0.0,0.0,0.0,0.0,0.0,0.0,0.0,0.0,0.0,0.0,0.0,0.0,0.0,0.0,0.0,0.0,0.0,0.0,0.0,0.0,0.0,0.0,0.0,0.0,0.0,0.0,0.0,0.0,0.0,0.0,0.0,0.0,0.0,0.0,0.0,0.0,0.0,0.0,0.0,0.0,0.0,0.0,0.0,0.0,0.0,0.0,0.0,0.0,0.0,0.0,0.0,0.0,0.0,0.0,0.0,0.0,0.0,0.0,0.0,0.0,0.0,0.0,0.0,0.0,0.0,0.0,0.0,0.0,0.0,0.0,0.0,0.0,0.0,0.0,0.0,0.0,0.0,0.0,0.0,0.0,0.0,0.0,0.0,0.0,0.0,0.0,0.0,0.0,0.0,0.0,0.0,0.0,0.0,0.0,0.0,0.0,0.0,0.0,0.0,0.0,0.0,0.0,0.0,0.0,0.0,0.0,0.0,0.0,0.0,0.0,0.0,0.0,0.0,0.0,0.0,0.0,0.0,0.0,0.0,0.0,0.0,0.0,0.0,0.0,0.0,0.0,0.0,0.0,0.0,0.0,0.0,0.0,0.0,0.0,0.0,0.0,0.0,0.0,0.0,0.0,0.0,0.0,0.0,0.0,0.0,0.0,0.0,0.0,0.0,0.0,0.0,0.0,0.0,0.0,0.0,0.0,0.0,0.0,0.0,0.0,0.0,0.0,0.0,0.0,0.0,0.0,0.0,0.0,0.0,0.0,0.0,0.0,0.0,0.0,0.0,0.0,0.0,0.0,0.0,0.0,0.0,0.0,0.0,0.0,0.0,0.0,0.0,0.0,0.0,0.0,0.0,0.0,0.0,0.0,0.0,0.0,0.0,0.0,0.0,0.0,0.0,0.0,0.0,0.0,0.0,0.0,0.0,0.0,0.0,0.0,0.0,0.0,0.0,0.0,0.0,0.0,0.0,0.0,0.0,0.0,0.0,0.0,0.0,0.0,0.0,0.0,0.0,0.0,0.0,0.0,0.0,0.0,0.0,0.0,0.0,0.0,0.0,0.0,0.0,0.0,0.0,0.0,0.0,0.0,0.0,0.0,0.0,0.0,0.0,0.0,0.0,0.0,0.0,0.0,0.0,0.0,0.0,0.0,0.0,0.0,0.0,0.0,0.0,0.0,0.0,0.0,0.0,0.0,0.0,0.0,0.0,0.0,0.0,0.0,0.0,0.0,0.0,0.0,0.0,0.0,0.0,0.0,0.0,0.0,0.0,0.0,0.0,0.0,0.0,0.0,0.0,0.0,0.0,0.0,0.0,0.0,0.0,0.0,0.0,0.0,0.0,0.0,0.0,0.0,0.0,0.0,0.0,0.0,0.0,0.0,0.0,0.0,0.0,0.0,0.0,0.0,0.0,0.0,0.0,0.0,0.0,0.0,0.0,0.0,0.0,0.0,0.0,0.0,0.0,0.0,0.0,0.0,0.0,0.0,0.0,0.0,0.0,0.0,0.0,0.0,0.0,0.0,0.0,0.0,0.0,0.0,0.0,0.0,0.0,0.0,0.0,0.0,0.0,0.0,0.0,0.0,0.0,0.0,0.0,0.0,0.0,0.0,0.0,0.0,0.0,0.0,0.0,0.0,0.0,0.0,0.0,0.0,0.0,0.0,0.0,0.0,0.0,0.0,0.0,0.0,0.0,0.0,0.0,0.0,0.0,0.0,0.0,0.0,0.0,0.0,0.0,0.0,0.0,0.0,0.0,0.0,0.0,0.0,0.0,0.0,0.0,0.0,0.0,0.0,0.0,0.0,0.0,0.0,0.0,0.0,0.0,0.0,0.0,0.0,0.0,0.0,0.0,0.0,0.0,0.0,0.0,0.0,0.0,0.0,0.0,0.0,0.0,0.0,0.0,0.0,0.0,0.0,0.0,0.0,0.0,0.0,0.0,0.0,0.0,0.0,0.0,0.0,0.0,0.0,0.0,0.0,0.0,0.0,0.0,0.0,0.0,0.0,0.0,0.0,0.0,0.0,0.0,0.0,0.0,0.0,0.0,0.0,0.0,0.0,0.0,0.0,0.0,0.0,0.0,0.0,0.0,0.0,0.0,0.0,0.0,0.0,0.0,0.0,0.0,0.0,0.0,0.0,0.0,0.0,0.0,0.0,0.0,0.0,0.0,0.0,0.0,0.0,0.0,0.0,0.0,0.0,0.0,0.0,0.0,0.0,0.0,0.0,0.0,0.0,0.0,0.0,0.0,0.0,0.0,0.0,0.0,0.0,0.0,0.0,0.0,0.0,0.0,0.0,0.0,0.0,0.0,0.0,0.0,0.0,0.0,0.0,0.0,0.0,0.0,0.0,0.0,0.0,0.0,0.0,0.0,0.0,0.0,0.0,0.0,0.0,0.0,0.0,0.0,0.0,0.0,0.0,0.0,0.0,0.0,0.0,0.0,0.0,0.0,0.0,0.0,0.0,0.0,0.0,0.0,0.0,0.0,0.0,0.0,0.0,0.0,0.0,0.0,0.0,0.0,0.0,0.0,0.0,0.0,0.0,0.0,0.0,0.0,0.0,0.0,0.0,0.0,0.0,0.0,0.0,0.0,0.0,0.0,0.0,0.0,0.0,0.0,0.0,0.0,0.0,0.0,0.0,0.0,0.0,0.0,0.0,0.0,0.0,0.0,0.0,0.0,0.0,0.0,0.0,0.0,0.0,0.0,0.0,0.0,0.0,0.0,0.0,0.0,0.0,0.0,0.0,0.0,0.0,0.0,0.0,0.0,0.0,0.0,0.0,0.0,0.0,0.5098,0.0,0.0,0.0,0.0,0.0,0.0,0.0,0.0,0.0,0.0,0.0,0.0,0.0,0.0,0.0,0.0,0.0,0.0,0.0,0.0,0.0,0.0,0.0,0.0,0.0,0.0,0.0,0.0,0.0,0.0,0.0,0.0,0.0,0.0,0.0,0.0,0.0,0.0,0.0,0.0,0.0,0.0,0.0,0.0,0.0,0.0,0.0,0.0,0.0,0.0,0.0,0.0,0.0,0.0,0.0,0.0,0.0,0.0,0.0,0.0,0.0,0.0,0.0,0.0,0.0,0.0,0.0,0.0,0.0,0.0,0.0,0.0,0.0,0.0,0.0,0.0,0.0,0.0,0.0,0.0,0.0,0.0,0.0,0.0,0.0,0.0,0.0,0.0,0.0,0.0,0.0,0.0,0.0,0.0,0.0,0.0,0.0,0.0,0.0,0.0,0.0,0.0,0.0,0.0,0.0,0.0,0.0,0.0,0.0,0.0,0.5098,0.5098,0.5098,0.5098,0.5108,0.0,0.0,0.0,0.0,0.0,0.0,0.0,0.0,0.0,0.0,0.0,0.0,0.0,0.0,0.0,0.0,0.0,0.0,0.0,0.0,0.0,0.0,0.0,0.0,0.0,0.0,0.0,0.0,0.0,0.0,0.0,0.0,0.0,0.0,0.0,0.0,0.0,0.0,0.0,0.0,0.0,0.0,0.0,0.0,0.0,0.0,0.0,0.0,0.0,0.0,0.0,0.0,0.0,0.0,0.0,0.0,0.0,0.0,0.0,0.0,0.0,0.0,0.0,0.0,0.0,0.0,0.0,0.0,0.0,0.0,0.0,0.0,0.0,0.0,0.0,0.0,0.0,0.0,0.0,0.0,0.0,0.0,0.0,0.0,0.0,0.0,0.0,0.0,0.0,0.0,0.0,0.0,0.0,0.0,0.0,0.0,0.0,0.0,0.0,0.0,0.0,0.0,0.0,0.0,0.0,0.0,0.0,0.0,0.0,0.0,0.0,0.0,0.5361,0.5351,0.5283,0.0,0.0,0.0,0.0,0.0,0.0,0.0,0.0,0.0,0.0,0.0,0.0,0.0,0.0,0.0,0.0,0.0,0.0,0.0,0.0,0.0,0.0,0.0,0.0,0.0,0.0,0.0,0.0,0.0,0.0,0.0,0.0,0.0,0.0,0.0,0.0,0.0,0.0,0.0,0.0,0.0,0.0,0.0,0.0,0.0,0.0,0.0,0.0,0.0,0.0,0.0,0.0,0.0,0.0,0.0,0.0,0.0,0.0,0.0,0.0,0.0,0.0,0.0,0.0,0.0,0.0,0.0,0.0,0.0,0.0,0.0,0.0,0.0,0.0,0.0,0.0,0.0,0.0,0.0,0.0,0.0,0.0,0.0,0.0,0.0,0.0,0.0,0.0,0.0,0.0,0.0,0.0,0.0,0.0,0.0,0.0,0.0,0.0,0.0,0.0,0.0,0.0,0.0,0.0,0.0,0.0,0.0,0.0,0.0,0.0,0.5744,0.5733,0.6084,0.0,0.5783,0.0,0.0,0.0,0.0,0.0,0.0,0.0,0.0,0.0,0.0,0.0,0.0,0.0,0.0,0.0,0.0,0.0,0.0,0.0,0.0,0.0,0.0,0.0,0.0,0.0,0.0,0.0,0.0,0.0,0.0,0.0,0.0,0.0,0.0,0.0,0.0,0.0,0.0,0.0,0.0,0.0,0.0,0.0,0.0,0.0,0.0,0.0,0.0,0.0,0.0,0.0,0.0,0.0,0.0,0.0,0.0,0.0,0.0,0.0,0.0,0.0,0.0,0.0,0.0,0.0,0.0,0.0,0.0,0.0,0.0,0.0,0.0,0.0,0.0,0.0,0.0,0.0,0.0,0.0,0.0,0.0,0.0,0.0,0.0,0.0,0.0,0.0,0.0,0.0,0.0,0.0,0.0,0.0,0.0,0.0,0.0,0.0,0.0,0.0,0.0,0.0,0.0,0.0,0.0,0.0,0.0,0.0,0.0,0.0,0.0,0.591,0.6143,0.6318,0.6304,0.0,0.0,0.0,0.0,0.0,0.0,0.0,0.0,0.0,0.0,0.0,0.0,0.0,0.0,0.0,0.0,0.0,0.0,0.0,0.0,0.0,0.0,0.0,0.0,0.0,0.0,0.0,0.0,0.0,0.0,0.0,0.0,0.0,0.0,0.0,0.0,0.0,0.0,0.0,0.0,0.0,0.0,0.0,0.0,0.0,0.0,0.0,0.0,0.0,0.0,0.0,0.0,0.0,0.0,0.0,0.0,0.0,0.0,0.0,0.0,0.0,0.0,0.0,0.0,0.0,0.0,0.0,0.0,0.0,0.0,0.0,0.0,0.0,0.0,0.0,0.0,0.0,0.0,0.0,0.0,0.0,0.0,0.0,0.0,0.0,0.0,0.0,0.0,0.0,0.0,0.0,0.0,0.0,0.0,0.0,0.0,0.0,0.0,0.0,0.0,0.0,0.0,0.0,0.0,0.0,0.0,0.0,0.0,0.0,0.0,0.5664,0.0,0.6719,0.6521,0.6416,0.6416,0.0,0.0,0.0,0.0,0.0,0.0,0.0,0.0,0.0,0.0,0.0,0.0,0.0,0.0,0.0,0.0,0.0,0.0,0.0,0.0,0.0,0.0,0.0,0.0,0.0,0.0,0.0,0.0,0.0,0.0,0.0,0.0,0.0,0.0,0.0,0.0,0.0,0.0,0.0,0.0,0.0,0.0,0.0,0.0,0.0,0.0,0.0,0.0,0.0,0.0,0.0,0.0,0.0,0.0,0.0,0.0,0.0,0.0,0.0,0.0,0.0,0.0,0.0,0.0,0.0,0.0,0.0,0.0,0.0,0.0,0.0,0.0,0.0,0.0,0.0,0.0,0.0,0.0,0.0,0.0,0.0,0.0,0.0,0.0,0.0,0.0,0.0,0.0,0.0,0.0,0.0,0.0,0.0,0.0,0.0,0.0,0.0,0.0,0.0,0.0,0.0,0.0,0.0,0.0,0.0,0.0,0.0,0.0,0.0,0.5947,0.6774,0.754,0.682,0.6406,0.0,0.0,0.0,0.0,0.0,0.0,0.0,0.0,0.0,0.0,0.0,0.0,0.0,0.0,0.0,0.0,0.0,0.0,0.0,0.0,0.0,0.0,0.0,0.0,0.0,0.0,0.0,0.0,0.0,0.0,0.0,0.0,0.0,0.0,0.0,0.0,0.0,0.0,0.0,0.0,0.0,0.0,0.0,0.0,0.0,0.0,0.0,0.0,0.0,0.0,0.0,0.0,0.0,0.0,0.0,0.0,0.0,0.0,0.0,0.0,0.0,0.0,0.0,0.0,0.0,0.0,0.0,0.0,0.0,0.0,0.0,0.0,0.0,0.0,0.0,0.0,0.0,0.0,0.0,0.0,0.0,0.0,0.0,0.0,0.0,0.0,0.0,0.0,0.0,0.0,0.0,0.0,0.0,0.0,0.0,0.0,0.0,0.0,0.0,0.0,0.0,0.0,0.0,0.0,0.0,0.0,0.0,0.0,0.0,0.5127,0.5956,0.6553,0.6842,0.656,0.6279,0.0,0.0,0.0,0.0,0.0,0.0,0.0,0.0,0.0,0.0,0.0,0.0,0.0,0.0,0.0,0.0,0.0,0.0,0.0,0.0,0.0,0.0,0.0,0.0,0.0,0.0,0.0,0.0,0.0,0.0,0.0,0.0,0.0,0.0,0.0,0.0,0.0,0.0,0.0,0.0,0.0,0.0,0.0,0.0,0.0,0.0,0.0,0.0,0.0,0.0,0.0,0.0,0.0,0.0,0.0,0.0,0.0,0.0,0.0,0.0,0.0,0.0,0.0,0.0,0.0,0.0,0.0,0.0,0.0,0.0,0.0,0.0,0.0,0.0,0.0,0.0,0.0,0.0,0.0,0.0,0.0,0.0,0.0,0.0,0.0,0.0,0.0,0.0,0.0,0.0,0.0,0.0,0.0,0.0,0.0,0.0,0.0,0.0,0.0,0.0,0.0,0.0,0.0,0.0,0.0,0.0,0.0,0.0,0.0,0.5728,0.0,0.6689,0.0,0.654,0.627,0.0,0.0,0.0,0.0,0.0,0.0,0.0,0.0,0.0,0.0,0.0,0.0,0.0,0.0,0.0,0.0,0.0,0.0,0.0,0.0,0.0,0.0,0.0,0.0,0.0,0.0,0.0,0.0,0.0,0.0,0.0,0.0,0.0,0.0,0.0,0.0,0.0,0.0,0.0,0.0,0.0,0.0,0.0,0.0,0.0,0.0,0.0,0.0,0.0,0.0,0.0,0.0,0.0,0.0,0.0,0.0,0.0,0.0,0.0,0.0,0.0,0.0,0.0,0.0,0.0,0.0,0.0,0.0,0.0,0.0,0.0,0.0,0.0,0.0,0.0,0.0,0.0,0.0,0.0,0.0,0.0,0.0,0.0,0.0,0.0,0.0,0.0,0.0,0.0,0.0,0.0,0.0,0.0,0.0,0.0,0.0,0.0,0.0,0.0,0.0,0.0,0.0,0.0,0.0,0.0,0.0,0.0,0.0,0.605,0.6922,0.7053,0.7262,0.7647,0.6852,0.6404,0.0,0.0,0.0,0.0,0.0,0.0,0.0,0.0,0.0,0.0,0.0,0.0,0.0,0.0,0.0,0.0,0.0,0.0,0.0,0.0,0.0,0.0,0.0,0.0,0.0,0.0,0.0,0.0,0.0,0.0,0.0,0.0,0.0,0.0,0.0,0.0,0.0,0.0,0.0,0.0,0.0,0.0,0.0,0.0,0.0,0.0,0.0,0.0,0.0,0.0,0.0,0.0,0.0,0.0,0.0,0.0,0.0,0.0,0.0,0.0,0.0,0.0,0.0,0.0,0.0,0.0,0.0,0.0,0.0,0.0,0.0,0.0,0.0,0.0,0.0,0.0,0.0,0.0,0.0,0.0,0.0,0.0,0.0,0.0,0.0,0.0,0.0,0.0,0.0,0.0,0.0,0.0,0.0,0.0,0.0,0.0,0.0,0.0,0.0,0.0,0.0,0.0,0.0,0.0,0.0,0.0,0.0,0.0,0.0,0.6783,0.7275,0.7447,0.7295,0.7031,0.6602,0.0,0.0,0.0,0.0,0.0,0.0,0.0,0.0,0.0,0.0,0.0,0.0,0.0,0.0,0.0,0.0,0.0,0.0,0.0,0.0,0.0,0.0,0.0,0.0,0.0,0.0,0.0,0.0,0.0,0.0,0.0,0.0,0.0,0.0,0.0,0.0,0.0,0.0,0.0,0.0,0.0,0.0,0.0,0.0,0.0,0.0,0.0,0.0,0.0,0.0,0.0,0.0,0.0,0.0,0.0,0.0,0.0,0.0,0.0,0.0,0.0,0.0,0.0,0.0,0.0,0.0,0.0,0.0,0.0,0.0,0.0,0.0,0.0,0.0,0.0,0.0,0.0,0.0,0.0,0.0,0.0,0.0,0.0,0.0,0.0,0.0,0.0,0.0,0.0,0.0,0.0,0.0,0.0,0.0,0.0,0.0,0.0,0.0,0.0,0.0,0.0,0.0,0.0,0.0,0.0,0.0,0.0,0.0,0.0,0.7696,0.8016,0.8076,0.7807,0.7486,0.7067,0.6533,0.0,0.0,0.0,0.0,0.0,0.0,0.0,0.0,0.0,0.0,0.0,0.0,0.0,0.0,0.0,0.0,0.0,0.0,0.0,0.0,0.0,0.0,0.0,0.0,0.0,0.0,0.0,0.0,0.0,0.0,0.0,0.0,0.0,0.0,0.0,0.0,0.0,0.0,0.0,0.0,0.0,0.0,0.0,0.0,0.0,0.0,0.0,0.0,0.0,0.0,0.0,0.0,0.0,0.0,0.0,0.0,0.0,0.0,0.0,0.0,0.0,0.0,0.0,0.0,0.0,0.0,0.0,0.0,0.0,0.0,0.0,0.0,0.0,0.0,0.0,0.0,0.0,0.0,0.0,0.0,0.0,0.0,0.0,0.0,0.0,0.0,0.0,0.0,0.0,0.0,0.0,0.0,0.0,0.0,0.0,0.0,0.0,0.0,0.0,0.0,0.0,0.0,0.0,0.0,0.0,0.0,0.0,0.0,0.9383,0.9214,0.9104,0.9053,0.8266,0.7763,0.0,0.0,0.0,0.0,0.0,0.0,0.0,0.0,0.0,0.0,0.0,0.0,0.0,0.0,0.0,0.0,0.0,0.0,0.0,0.0,0.0,0.0,0.0,0.0,0.0,0.0,0.0,0.0,0.0,0.0,0.0,0.0,0.0,0.0,0.0,0.0,0.0,0.0,0.0,0.0,0.0,0.0,0.0,0.0,0.0,0.0,0.0,0.0,0.0,0.0,0.0,0.0,0.0,0.0,0.0,0.0,0.0,0.0,0.0,0.0,0.0,0.0,0.0,0.0,0.0,0.0,0.0,0.0,0.0,0.0,0.0,0.0,0.0,0.0,0.0,0.0,0.0,0.0,0.0,0.0,0.0,0.0,0.0,0.0,0.0,0.0,0.0,0.0,0.0,0.0,0.0,0.0,0.0,0.0,0.0,0.0,0.0,0.0,0.0,0.0,0.0,0.0,0.0,0.0,0.0,0.0,0.0,0.0,0.0,0.9144,1.0113,1.0425,0.9971,0.9406,0.8659,0.0,0.0,0.0,0.0,0.0,0.0,0.0,0.0,0.0,0.0,0.0,0.0,0.0,0.0,0.0,0.0,0.0,0.0,0.0,0.0,0.0,0.0,0.0,0.0,0.0,0.0,0.0,0.0,0.0,0.0,0.0,0.0,0.0,0.0,0.0,0.0,0.0,0.0,0.0,0.0,0.0,0.0,0.0,0.0,0.0,0.0,0.0,0.0,0.0,0.0,0.0,0.0,0.0,0.0,0.0,0.0,0.0,0.0,0.0,0.0,0.0,0.0,0.0,0.0,0.0,0.0,0.0,0.0,0.0,0.0,0.0,0.0,0.0,0.0,0.0,0.0,0.0,0.0,0.0,0.0,0.0,0.0,0.0,0.0,0.0,0.0,0.0,0.0,0.0,0.0,0.0,0.0,0.0,0.0,0.0,0.0,0.0,0.0,0.0,0.0,0.0,0.0,0.0,0.0,0.0,0.0,0.0,0.0,0.8158,0.9342,1.0714,1.1262,1.086,1.0225,0.9367,0.0,0.0,0.0,0.0,0.0,0.0,0.0,0.0,0.0,0.0,0.0,0.0,0.0,0.0,0.0,0.0,0.0,0.0,0.0,0.0,0.0,0.0,0.0,0.0,0.0,0.0,0.0,0.0,0.0,0.0,0.0,0.0,0.0,0.0,0.0,0.0,0.0,0.0,0.0,0.0,0.0,0.0,0.0,0.0,0.0,0.0,0.0,0.0,0.0,0.0,0.0,0.0,0.0,0.0,0.0,0.0,0.0,0.0,0.0,0.0,0.0,0.0,0.0,0.0,0.0,0.0,0.0,0.0,0.0,0.0,0.0,0.0,0.0,0.0,0.0,0.0,0.0,0.0,0.0,0.0,0.0,0.0,0.0,0.0,0.0,0.0,0.0,0.0,0.0,0.0,0.0,0.0,0.0,0.0,0.0,0.0,0.0,0.0,0.0,0.0,0.0,0.0,0.0,0.0,0.0,0.0,0.0,0.0,0.8289,0.9619,1.1017,1.1667,1.1523,1.0767,0.999,0.0,0.0,0.0,0.0,0.0,0.0,0.0,0.0,0.0,0.0,0.0,0.0,0.0,0.0,0.0,0.0,0.0,0.0,0.0,0.0,0.0,0.0,0.0,0.0,0.0,0.0,0.0,0.0,0.0,0.0,0.0,0.0,0.0,0.0,0.0,0.0,0.0,0.0,0.0,0.0,0.0,0.0,0.0,0.0,0.0,0.0,0.0,0.0,0.0,0.0,0.0,0.0,0.0,0.0,0.0,0.0,0.0,0.0,0.0,0.0,0.0,0.0,0.0,0.0,0.0,0.0,0.0,0.0,0.0,0.0,0.0,0.0,0.0,0.0,0.0,0.0,0.0,0.0,0.0,0.0,0.0,0.0,0.0,0.0,0.0,0.0,0.0,0.0,0.0,0.0,0.0,0.0,0.0,0.0,0.0,0.0,0.0,0.0,0.0,0.0,0.0,0.0,0.0,0.0,0.0,0.0,0.0,0.0,0.8393,0.9229,1.0548,1.1212,1.114,1.0915,1.0537,0.0,0.0,0.0,0.0,0.0,0.0,0.0,0.0,0.0,0.0,0.0,0.0,0.0,0.0,0.0,0.0,0.0,0.0,0.0,0.0,0.0,0.0,0.0,0.0,0.0,0.0,0.0,0.0,0.0,0.0,0.0,0.0,0.0,0.0,0.0,0.0,0.0,0.0,0.0,0.0,0.0,0.0,0.0,0.0,0.0,0.0,0.0,0.0,0.5472,0.0,0.0,0.0,0.0,0.0,0.0,0.0,0.0,0.0,0.0,0.0,0.0,0.0,0.0,0.0,0.0,0.0,0.0,0.0,0.0,0.0,0.0,0.0,0.0,0.0,0.0,0.0,0.0,0.0,0.0,0.0,0.0,0.0,0.0,0.0,0.0,0.0,0.0,0.0,0.0,0.0,0.0,0.0,0.0,0.0,0.0,0.0,0.0,0.0,0.0,0.0,0.0,0.0,0.0,0.0,0.0,0.0,0.0,0.0,0.8179,0.8947,0.9969,1.0587,1.0812,1.0962,1.0776,0.0,0.0,0.0,0.0,0.0,0.0,0.0,0.0,0.0,0.0,0.0,0.0,0.0,0.0,0.0,0.0,0.0,0.0,0.0,0.0,0.0,0.0,0.0,0.0,0.0,0.0,0.0,0.0,0.0,0.0,0.0,0.0,0.0,0.0,0.0,0.0,0.0,0.0,0.0,0.0,0.0,0.0,0.0,0.0,0.0,0.0,0.0,0.0,0.0,0.0,0.0,0.0,0.0,0.0,0.0,0.0,0.0,0.0,0.0,0.0,0.0,0.0,0.0,0.0,0.0,0.0,0.0,0.0,0.0,0.0,0.0,0.0,0.0,0.0,0.0,0.0,0.0,0.0,0.0,0.0,0.0,0.0,0.0,0.0,0.0,0.0,0.0,0.0,0.0,0.0,0.0,0.0,0.0,0.0,0.0,0.0,0.0,0.0,0.0,0.0,0.0,0.0,0.0,0.0,0.0,0.0,0.0,0.7236,0.7966,0.8792,0.9446,1.0079,1.0617,1.0934,1.0816,1.0183,0.0,0.0,0.0,0.0,0.0,0.0,0.0,0.0,0.0,0.0,0.0,0.0,0.0,0.0,0.0,0.0,0.0,0.0,0.0,0.0,0.0,0.0,0.0,0.0,0.0,0.0,0.0,0.0,0.0,0.0,0.0,0.0,0.0,0.0,0.0,0.0,0.0,0.0,0.4497,0.4846,0.0,0.0,0.0,0.0,0.0,0.0,0.0,0.0,0.5348,0.0,0.0,0.0,0.0,0.0,0.0,0.0,0.0,0.0,0.0,0.0,0.0,0.0,0.0,0.0,0.0,0.0,0.0,0.0,0.0,0.0,0.0,0.0,0.0,0.0,0.0,0.0,0.0,0.0,0.0,0.0,0.0,0.0,0.0,0.0,0.0,0.0,0.0,0.0,0.0,0.0,0.0,0.0,0.0,0.0,0.0,0.0,0.0,0.0,0.0,0.0,0.0,0.0,0.0,0.0,0.0,0.658,0.7422,0.8167,0.8799,0.9478,1.0131,1.0821,1.0765,1.06,1.0418,0.0,0.0,0.0,0.0,0.0,0.0,0.0,0.0,0.0,0.0,0.0,0.0,0.0,0.0,0.0,0.0,0.0,0.0,0.0,0.0,0.0,0.0,0.0,0.0,0.0,0.0,0.0,0.0,0.0,0.0,0.0,0.0,0.0,0.0,0.0,0.0,0.0,0.0,0.0,0.5208,0.5387,0.0,0.0,0.0,0.0,0.0,0.0,0.0,0.0,0.5669,0.0,0.0,0.0,0.0,0.0,0.0,0.0,0.0,0.0,0.0,0.0,0.0,0.0,0.0,0.0,0.0,0.0,0.0,0.0,0.0,0.0,0.0,0.0,0.0,0.0,0.0,0.0,0.0,0.0,0.0,0.0,0.0,0.0,0.0,0.0,0.0,0.0,0.0,0.0,0.0,0.0,0.0,0.0,0.0,0.0,0.0,0.0,0.0,0.0,0.0,0.0,0.0,0.0,0.0,0.0,0.7042,0.7782,0.8446,0.898,0.9508,1.0105,1.0719,1.0863,1.0763,0.0,0.0,0.0,0.0,0.0,0.0,0.0,0.0,0.0,0.0,0.0,0.0,0.0,0.0,0.0,0.0,0.0,0.0,0.0,0.0,0.0,0.0,0.0,0.0,0.0,0.0,0.0,0.0,0.0,0.0,0.0,0.0,0.0,0.0,0.0,0.0,0.0,0.0,0.0,0.0,0.6245,0.6666,0.7375,0.0,0.0,0.0,0.0,0.0,0.0,0.6131,0.6018,0.0,0.0,0.0,0.0,0.0,0.0,0.0,0.0,0.0,0.0,0.0,0.0,0.0,0.0,0.0,0.0,0.0,0.0,0.0,0.0,0.0,0.0,0.0,0.0,0.0,0.0,0.0,0.0,0.0,0.0,0.0,0.0,0.0,0.0,0.0,0.0,0.0,0.0,0.0,0.0,0.0,0.0,0.0,0.0,0.0,0.0,0.0,0.0,0.0,0.0,0.0,0.0,0.0,0.0,0.0,0.7479,0.8087,0.8689,0.9216,0.9666,1.0092,1.0588,1.0978,1.0835,0.0,0.0,0.0,0.0,0.0,0.0,0.0,0.0,0.0,0.0,0.0,0.0,0.0,0.0,0.0,0.0,0.0,0.0,0.0,0.0,0.0,0.0,0.0,0.0,0.0,0.0,0.0,0.0,0.0,0.0,0.0,0.0,0.0,0.0,0.0,0.0,0.0,0.0,0.0,0.0,0.0,0.797,0.825,0.7461,0.0,0.0,0.0,0.0,0.6286,0.6474,0.0,0.0,0.0,0.0,0.0,0.0,0.0,0.0,0.0,0.0,0.0,0.0,0.0,0.0,0.0,0.0,0.0,0.0,0.0,0.0,0.0,0.0,0.0,0.0,0.0,0.0,0.0,0.0,0.0,0.0,0.0,0.0,0.0,0.0,0.0,0.0,0.0,0.0,0.0,0.0,0.0,0.0,0.0,0.0,0.0,0.0,0.0,0.0,0.0,0.0,0.0,0.0,0.0,0.0,0.0,0.0,0.7457,0.8087,0.8714,0.9373,0.9891,1.028,1.0586,1.0874,1.0538,0.0,0.0,0.0,0.0,0.0,0.0,0.0,0.0,0.0,0.0,0.0,0.0,0.0,0.0,0.0,0.0,0.0,0.0,0.0,0.0,0.0,0.0,0.0,0.0,0.0,0.0,0.0,0.0,0.0,0.0,0.0,0.0,0.0,0.0,0.0,0.0,0.0,0.0,0.0,0.0,0.0,0.8384,0.8304,0.7925,0.7775,0.0,0.0,0.7847,0.7949,0.7613,0.0,0.0,0.0,0.0,0.0,0.0,0.0,0.0,0.0,0.0,0.0,0.0,0.0,0.0,0.0,0.0,0.0,0.0,0.0,0.0,0.0,0.0,0.0,0.0,0.0,0.0,0.0,0.0,0.0,0.0,0.0,0.0,0.0,0.0,0.0,0.0,0.0,0.0,0.0,0.0,0.0,0.0,0.0,0.0,0.0,0.0,0.0,0.0,0.0,0.0,0.0,0.0,0.0,0.0,0.0,0.6546,0.7702,0.8317,0.8911,0.9503,1.0192,1.0755,1.12,1.131,1.0885,0.0,0.0,0.0,0.0,0.0,0.0,0.0,0.0,0.0,0.0,0.0,0.0,0.0,0.0,0.0,0.0,0.0,0.0,0.0,0.0,0.0,0.0,0.0,0.0,0.0,0.0,0.0,0.0,0.0,0.0,0.0,0.0,0.0,0.0,0.0,0.0,0.0,0.0,0.0,0.0,0.0,0.0,0.8936,0.8924,0.0,0.0,0.0,0.9554,0.8463,0.0,0.0,0.0,0.0,0.0,0.0,0.0,0.0,0.0,0.0,0.0,0.0,0.0,0.0,0.0,0.0,0.0,0.0,0.0,0.0,0.0,0.0,0.0,0.0,0.0,0.0,0.0,0.0,0.0,0.0,0.0,0.0,0.0,0.0,0.0,0.0,0.0,0.0,0.0,0.0,0.0,0.0,0.0,0.0,0.0,0.0,0.0,0.0,0.0,0.0,0.0,0.0,0.0,0.0,0.0,0.0,0.0,0.7892,0.851,0.9035,0.9562,1.0287,1.0939,1.1419,1.1453,0.0,0.0,0.0,0.0,0.0,0.0,0.0,0.0,0.0,0.0,0.0,0.0,0.0,0.0,0.0,0.0,0.0,0.0,0.0,0.0,0.0,0.0,0.0,0.0,0.0,0.0,0.0,0.1661,0.0,0.0,0.0,0.0,0.0,0.0,0.0,0.0,0.0,0.0,0.0,0.0,0.0,0.0,0.8767,0.9468,0.9519,0.9676,0.0,0.0,1.0846,0.9106,0.9392,0.9317,0.0,0.0,0.0,0.0,0.0,0.0,0.0,0.0,0.0,0.0,0.0,0.0,0.0,0.0,0.0,0.0,0.0,0.0,0.0,0.0,0.0,0.0,0.0,0.0,0.0,0.0,0.0,0.0,0.0,0.0,0.0,0.0,0.0,0.0,0.0,0.0,0.0,0.0,0.0,0.0,0.0,0.0,0.0,0.0,0.0,0.0,0.0,0.0,0.0,0.0,0.0,0.0,0.0,0.0,0.0,0.7872,0.851,0.9008,0.9406,1.009,1.0498,1.0682,1.1027,1.0673,0.0,0.0,0.0,0.0,0.0,0.0,0.0,0.0,0.0,0.0,0.0,0.0,0.0,0.0,0.0,0.0,0.0,0.0,0.0,0.0,0.0,0.0,0.0,0.0,0.0,0.0,0.0,0.0,0.0,0.0,0.0,0.0,0.0,0.0,0.0,0.0,0.0,0.0,0.0,0.0,0.0,0.8649,0.9547,0.9266,0.943,0.0,0.0,1.0834,1.0321,0.9889,0.9292,0.8299,0.0,0.0,0.0,0.0,0.0,0.0,0.0,0.0,0.0,0.0,0.0,0.0,0.0,0.0,0.0,0.0,0.0,0.0,0.0,0.0,0.0,0.0,0.0,0.0,0.0,0.0,0.0,0.0,0.0,0.0,0.0,0.0,0.0,0.0,0.0,0.0,0.0,0.0,0.0,0.0,0.0,0.0,0.0,0.0,0.0,0.0,0.0,0.0,0.0,0.0,0.0,0.0,0.0,0.674,0.7868,0.8485,0.8956,0.929,0.9762,1.0214,1.0573,1.0748,1.0441,0.0,0.0,0.0,0.0,0.0,0.0,0.0,0.0,0.0,0.0,0.0,0.0,0.0,0.0,0.0,0.0,0.0,0.0,0.0,0.0,0.0,0.0,0.0,0.0,0.0,0.0,0.0,0.0,0.3545,0.3032,0.2646,0.0,0.0,0.0,0.0,0.0,0.0,0.0,0.0,0.0,0.0,0.9134,0.9258,0.9668,0.0,0.0,1.1115,1.0855,1.0077,1.0188,0.9941,0.8765,0.851,0.0,0.0,0.0,0.0,0.0,0.0,0.0,0.0,0.0,0.0,0.0,0.0,0.0,0.0,0.0,0.0,0.0,0.0,0.0,0.0,0.0,0.0,0.0,0.0,0.0,0.0,0.0,0.0,0.0,0.0,0.0,0.0,0.0,0.0,0.0,0.0,0.0,0.0,0.0,0.0,0.0,0.0,0.0,0.0,0.0,0.0,0.0,0.0,0.0,0.0,0.0,0.0,0.6847,0.7899,0.851,0.8903,0.914,0.9491,0.995,1.0456,1.0602,1.0396,0.0,0.0,0.0,0.0,0.0,0.0,0.0,0.0,0.0,0.0,0.0,0.0,0.0,0.0,0.0,0.0,0.0,0.0,0.0,0.0,0.0,0.0,0.0,0.0,0.0,0.0,0.0,0.0,0.3867,0.3333,0.2676,0.0,0.0,0.0,0.0,0.0,0.0,0.0,0.0,0.0,0.0,0.9455,0.9072,0.9883,1.0621,1.0897,1.0935,1.0672,0.9915,1.029,1.0184,0.8883,0.0,0.0,0.0,0.0,0.0,0.0,0.0,0.0,0.0,0.0,0.0,0.0,0.0,0.0,0.0,0.0,0.0,0.0,0.0,0.0,0.0,0.0,0.0,0.0,0.0,0.0,0.0,0.6901,0.0,0.0,0.6521,0.0,0.0,0.0,0.0,0.0,0.0,0.0,0.0,0.0,0.0,0.0,0.0,0.0,0.0,0.0,0.0,0.0,0.0,0.0,0.0,0.0,0.0,0.7,0.7892,0.8485,0.8857,0.9008,0.9263,0.9647,1.019,1.0573,1.0576,1.008,0.0,0.0,0.0,0.0,0.0,0.0,0.0,0.0,0.0,0.0,0.0,0.0,0.0,0.0,0.0,0.0,0.0,0.0,0.0,0.0,0.0,0.0,0.0,0.0,0.0,0.0,0.4565,0.4408,0.3835,0.0,0.0,0.0,0.0,0.0,0.0,0.0,0.0,0.0,0.0,0.9084,0.9464,0.9092,0.9736,1.0341,1.0341,1.0341,1.0252,1.002,1.0155,0.9852,0.0,0.0,0.0,0.0,0.0,0.0,0.0,0.0,0.0,0.0,0.0,0.0,0.0,0.0,0.0,0.0,0.0,0.0,0.0,0.0,0.0,0.0,0.0,0.0,0.0,0.0,0.0,0.7297,0.7452,0.0,0.0,0.0,0.0,0.0,0.0,0.0,0.0,0.0,0.0,0.0,0.8203,0.821,0.0,0.0,0.0,0.0,0.0,0.0,0.0,0.0,0.0,0.0,0.0,0.0,0.7034,0.7892,0.851,0.8804,0.8857,0.8936,0.9263,0.9795,1.0188,1.0221,0.9781,0.0,0.0,0.0,0.0,0.0,0.0,0.0,0.0,0.0,0.0,0.0,0.0,0.0,0.0,0.0,0.0,0.0,0.0,0.0,0.0,0.0,0.0,0.0,0.0,0.0,0.4606,0.0,0.0,0.0,0.0,0.0,0.0,0.0,0.0,0.0,0.0,0.0,0.8714,0.9133,0.9707,1.0029,0.9892,1.0117,1.0322,0.0,0.0,0.0,0.0,0.0,0.0,0.0,0.0,0.0,0.0,0.0,0.0,0.0,0.0,1.1194,1.0714,1.0241,0.9867,0.9786,0.0,0.0,0.0,0.0,0.0,0.0,0.0,0.0,0.0,0.0,0.0,0.0,0.0,0.0,0.8161,0.0,0.7859,0.0,0.0,0.0,0.0,0.0,0.0,0.0,0.0,0.8991,0.9212,0.9112,0.9112,0.9112,0.0,0.8925,0.8248,0.0,0.0,0.0,0.0,0.0,0.0,0.0,0.0,0.731,0.807,0.8564,0.8778,0.8778,0.8778,0.9061,0.9581,1.0043,1.0211,1.005,0.895,0.8119,0.0,0.0,0.0,0.0,0.0,0.0,0.0,0.0,0.0,0.0,0.0,0.0,0.0,0.0,0.0,0.0,0.0,0.0,0.0,0.0,0.0,0.0,0.0,0.5075,0.0,0.0,0.0,0.0,0.0,0.0,0.0,0.0,0.0,0.8564,0.9102,0.9551,0.9796,1.0264,1.0508,1.0332,0.0,0.0,0.0,0.0,0.0,0.0,0.0,0.9895,0.9728,0.9622,0.9656,0.9918,0.9734,0.9957,1.1138,0.0,0.0,1.1279,1.1088,1.093,1.0916,1.0865,1.0998,1.1465,1.1736,1.1911,0.0,0.0,0.0,0.0,0.0,0.0,0.0,0.0,0.9364,0.9237,0.0,0.8697,0.0,0.0,0.0,0.0,0.0,0.8577,0.0,0.0,0.9857,1.0007,0.976,0.9753,0.9769,0.9726,0.9735,0.9399,0.8784,0.7646,0.0,0.0,0.0,0.0,0.0,0.0,0.7812,0.8395,0.8677,0.8798,0.8824,0.8818,0.9087,0.9625,1.0145,1.0591,1.0886,1.005,0.925,0.8473,0.7934,0.0,0.0,0.0,0.0,0.0,0.0,0.0,0.0,0.0,0.0,0.0,0.0,0.0,0.0,0.0,0.0,0.0,0.0,0.0,0.0,0.5823,0.0,0.0,0.0,0.0,0.0,0.0,0.0,0.0,0.0,0.0,0.877,0.9647,1.0332,1.0342,0.0,0.0,0.0,0.0,1.0987,1.2631,1.2171,1.1351,1.0587,1.0545,1.0358,0.9705,0.0,0.0,0.9732,0.9711,1.0149,1.1407,1.1667,1.1659,1.1754,1.1936,1.204,1.1841,1.232,1.2885,1.3204,1.3602,1.3846,1.1196,0.0,0.0,0.0,0.0,1.018,1.0227,1.0338,1.0251,1.018,1.016,0.9786,0.0,0.0,0.0,0.0,0.0,0.0,0.9893,1.0207,1.0749,1.0976,1.0929,1.0922,1.0822,1.0615,1.0439,1.0144,0.9719,0.8951,0.8136,0.7271,0.0,0.0,0.0,0.0,0.8328,0.8677,0.8944,0.9091,0.9084,0.8891,0.9335,1.0415,1.0683,1.1004,1.1387,1.0547,0.9844,0.927,0.8266,0.0,0.0,0.0,0.0,0.0,0.0,0.0,0.0,0.0,0.0,0.0,0.0,0.0,0.0,0.0,0.0,0.0,0.0,0.0,0.617,0.623,0.5926,0.0,0.0,0.0,0.0,0.0,0.0,0.0,0.0,0.0,1.0196,1.0518,1.084,0.0,0.0,1.1398,1.1242,1.1751,1.2314,1.2812,1.269,0.0,0.0,1.0999,1.0853,1.0974,1.1024,1.0855,1.0227,1.0146,1.0656,1.2233,1.2524,1.2355,1.1814,1.2262,1.2791,1.3101,1.3504,1.3927,1.435,1.4557,1.4607,1.2866,1.1917,1.1484,1.135,1.1464,1.1457,1.1531,1.1645,1.161,1.1578,1.1444,1.1116,1.0695,1.0211,0.9773,0.0,0.0,0.0,1.0621,1.0922,1.1229,1.143,1.143,1.143,1.1336,1.1142,1.0787,1.0499,1.0287,0.9699,0.9058,0.84,0.0,0.0,0.817,0.8537,0.8864,0.9145,0.9297,0.9337,0.9217,0.9159,0.9666,1.0754,1.0931,1.12,1.1562,1.0919,1.0254,0.9612,0.8873,0.8221,0.0,0.0,0.0,0.0,0.0,0.0,0.0,0.0,0.0,0.0,0.0,0.3276,0.0,0.0,0.0,0.0,0.5957,0.6592,0.6657,0.6992,0.0,0.0,0.0,0.0,0.0,0.0,0.0,1.131,1.1242,1.1084,1.1365,1.1404,1.1533,1.1809,1.1995,1.2103,1.2113,0.0,1.2915,1.2915,1.2915,1.2661,1.1943,1.1611,1.1465,1.1577,1.1596,1.1449,1.0929,1.0811,1.131,1.2514,1.2915,1.2729,1.221,1.2693,1.3206,1.3476,1.4,1.4558,1.5092,1.5387,1.553,1.4402,1.4068,1.2973,1.267,1.2851,1.2831,1.2978,1.3206,1.32,1.3046,1.2797,1.2498,1.1911,1.1109,1.0541,0.0,1.1096,1.1122,1.1269,1.149,1.1482,1.1516,1.149,1.1462,1.1449,1.1456,1.0922,1.068,1.064,1.0097,0.9822,0.9773,0.9225,0.9031,0.9244,0.9264,0.9411,0.9742,0.9713,0.9566,0.9217,0.9493,1.0017,1.0788,1.0965,1.1236,1.1572,1.1172,1.0546,0.9718,0.9622,0.9057,0.7929,0.0,0.0,0.0,0.0,0.0,0.0,0.0,0.0,0.0,0.0,0.0,0.0,0.0,0.0,0.0,0.7047,0.0,0.732,0.8018,0.0,0.0,0.0,0.7915,0.79,0.8408,0.951,1.1479,0.0,0.0,1.2301,1.2311,1.232,1.2359,1.2676,1.2915,1.2915,1.2895,1.2915,1.2915,1.2915,1.2744,1.233,1.2233,1.2129,1.1829,1.1704,1.1721,1.1714,1.1714,1.2044,1.2749,1.2915,1.2895,1.2905,1.314,1.3364,1.329,1.4031,1.4907,1.5521,1.6015,1.6323,1.4861,1.4774,1.4492,1.3988,1.3373,1.3193,1.3146,1.3206,1.3206,1.3166,1.3093,1.3026,1.2746,1.2348,1.1951,1.1857,1.2004,1.2261,1.2275,1.2111,1.2362,1.2348,1.2098,1.2091,1.1977,1.1764,1.1658,1.1443,1.1209,1.0855,1.0681,1.0661,1.0321,0.9983,0.9599,0.9764,0.994,0.9983,1.0013,0.976,0.9231,0.9705,1.0227,1.0796,1.1289,1.1566,1.1592,1.1477,1.1027,1.0176,0.9786,0.9466,0.9155,0.823,0.0,0.0,0.0,0.0,0.0,0.0,0.0,0.0,0.0,0.4972,0.5752,0.0,0.6794,0.0,0.7842,0.8447,0.8967,0.9192,0.0,0.0,0.916,0.9678,0.9678,0.9805,1.0606,1.2387,1.2259,1.2353,1.3237,1.3256,1.332,1.3597,1.3223,1.2915,1.2915,1.2915,1.2915,1.2915,1.2925,1.2876,1.2754,1.2725,1.2666,1.2612,1.2582,1.2592,1.2592,1.2592,1.268,1.2866,1.2915,1.2915,1.2915,1.3094,1.3348,1.3634,1.4293,1.5047,1.5644,1.5884,1.6044,1.5344,1.5331,1.5249,1.487,1.4396,1.3975,1.3794,1.3788,1.3654,1.3527,1.336,1.3227,1.3113,1.2985,1.2779,1.2705,1.2719,1.2879,1.2859,1.2712,1.2777,1.2697,1.2529,1.2358,1.2218,1.2094,1.1931,1.1784,1.1617,1.1336,1.1156,1.1176,1.0928,1.062,1.0287,1.0301,1.0321,1.0314,1.018,0.9864,0.9452,0.9874,1.0337,1.0812,1.1376,1.1667,1.1614,1.1596,1.1271,1.0596,1.0146,0.9903,0.9884,0.9045,0.8182,0.0,0.0,0.0,0.0,0.0,0.0,0.0,0.0,0.0,0.0,0.0,0.792,0.8509,0.8975,0.951,1.0118,1.0351,1.0391,1.0195,1.0586,1.1027,1.1396,1.1105,1.1523,1.3223,1.3154,1.3168,1.3792,1.3812,1.3919,1.4338,1.3991,1.36,1.3418,1.3145,1.2915,1.2915,1.3203,1.3369,1.3193,1.3023,1.2915,1.2915,1.2915,1.2915,1.2915,1.2915,1.2915,1.2915,1.2915,1.2915,1.2915,1.3041,1.3262,1.3576,1.4001,1.4547,1.5175,1.5311,1.54,1.5825,1.5758,1.5558,1.5451,1.5411,1.4863,1.4589,1.4452,1.4249,1.3975,1.3646,1.3434,1.332,1.3327,1.332,1.332,1.3327,1.3327,1.33,1.3247,1.2985,1.2824,1.277,1.2482,1.2305,1.2291,1.208,1.196,1.1953,1.1623,1.1449,1.1463,1.1149,1.0995,1.0982,1.0734,1.0586,1.0586,1.0301,1.002,0.9722,0.9981,1.0348,1.0795,1.1376,1.1658,1.1602,1.1655,1.1416,1.0937,1.0635,1.044,1.0381,0.9951,0.9153,0.0,0.7861,0.0,0.0,0.0,0.0,0.0,0.0,0.0,0.0,0.8535,0.9109,0.9814,1.0225,1.0625,1.1035,1.1496,1.1783,1.1773,1.1841,1.2152,1.2788,1.221,1.2416,1.4075,1.427,1.427,1.4289,1.4231,1.4385,1.4766,1.4764,1.4541,1.427,1.374,1.3326,1.3086,1.3662,1.387,1.3545,1.3193,1.2993,1.2944,1.2915,1.2915,1.2915,1.2915,1.2915,1.2915,1.2915,1.2915,1.2915,1.2978,1.3113,1.331,1.3454,1.3766,1.4433,1.4663,1.4652,1.5825,1.5825,1.5718,1.5752,1.5671,1.5378,1.4957,1.4472,1.4462,1.4275,1.4001,1.3941,1.3921,1.3921,1.3921,1.3963,1.3921,1.3921,1.3788,1.3513,1.326,1.2986,1.277,1.2445,1.2305,1.2305,1.2245,1.2218,1.2218,1.196,1.1826,1.1806,1.1256,1.0995,1.0982,0.0,0.0,0.0,1.0539,1.0251,0.9735,1.0172,1.0544,1.0795,1.1376,0.0,1.1609,1.1904,1.1706,1.0977,1.1183,0.0,0.0,0.0,0.0,0.0,0.0,0.0,0.0,0.0,0.0,0.0,1.0244,1.0118,1.0303,1.0703,1.1067,1.1224,1.1291,1.1516,1.1911,1.2373,1.2651,1.267,1.3037,1.3213,1.2964,1.2749,1.3316,1.4913,1.5137,1.5166,1.5089,1.4883,1.4824,1.5195,1.5273,1.5234,1.5156,1.4961,1.4648,1.4055,1.4046,1.3958,1.3574,1.3447,1.3271,1.2998,1.2915,1.2915,1.2915,1.2915,1.2915,1.2915,1.2915,1.2915,1.2915,1.2939,1.2954,1.2992,1.3017,1.3272,1.3967,1.4212,1.4292,1.5825,0.0,1.5825,1.5825,0.0,1.5671,1.5364,1.4943,1.4803,1.4656,1.4509,1.4369,1.4302,1.4295,1.4148,1.4088,1.4088,1.4088,1.4008,1.3841,1.3373,1.3126,1.2966,1.2512,1.2305,1.2305,1.2305,1.2305,1.2298,1.2158,1.2084,1.2078,1.1496,1.1209,1.1189,1.0807,1.0586,1.0586,1.0586,1.0378,0.9943,1.0313,1.066,1.1032,0.0,0.0,0.0,0.0,0.0,0.0,0.0,0.0,0.0,0.0,0.0,0.999,0.9941,0.9951,0.9951,1.0137,1.0702,1.1797,1.2266,1.2203,1.1589,1.1758,1.207,1.2504,1.2543,1.2695,1.311,1.3369,1.3555,1.3717,1.373,1.3773,1.4033,1.375,1.4004,1.5127,1.542,1.542,1.542,1.5244,1.5186,1.5371,1.542,1.542,1.542,1.542,1.5186,1.4805,1.4328,1.4114,1.4094,1.3926,1.3743,1.3535,1.333,1.3115,1.2935,1.2915,1.2915,1.2915,1.2915,1.2915,1.2915,1.2915,1.2915,1.2915,1.2915,1.2992,1.3406,1.3586,1.3766,1.5825,1.5825,1.5825,1.5825,1.5825,1.5825,1.5698,1.5451,0.0,0.0,0.0,1.4649,1.4516,1.4452,1.4222,1.4088,1.4088,1.4088,1.4088,1.4062,1.348,1.3206,1.318,1.2585,1.2305,1.2305,1.2305,1.2305,1.2305,1.2305,1.2305,1.2251,1.1682,1.1342,1.1249,1.0834,1.0656,1.0688,1.0624,1.0414,1.012,1.0411,1.0831,1.1294,1.1619,1.1908,1.2209,1.2281,1.2291,1.2203,1.1953,1.1946,1.2174,1.1875,1.1506,1.1064,1.1083,1.1121,1.1121,1.1258,1.1865,1.3027,1.3714,1.364,1.2613,1.2521,1.2827,1.3564,1.3597,1.3724,1.4075,1.4182,1.4336,1.4568,1.4248,1.4397,1.5176,1.4786,1.4611,1.5273,1.542,1.542,1.542,1.54,1.542,1.541,1.542,1.542,1.542,1.542,1.54,1.5293,1.4796,1.4465,1.4629,1.4482,1.4221,1.4055,1.3818,1.3457,1.3062,1.2915,1.2915,1.2915,1.2915,1.2915,1.2915,1.2915,1.2915,1.2915,1.2915,1.2915,1.2929,1.3069,1.3362,1.5825,1.5825,1.5825,1.5825,1.5825,1.5825,1.5758,1.5678,1.5197,1.5015,1.4988,1.4649,1.4516,1.4502,1.4215,1.4088,1.4088,1.4088,1.4088,1.4055,1.348,1.3206,1.318,1.2585,1.2305,1.2305,1.2305,1.2305,1.2305,1.2305,1.2305,1.2238,1.171,1.1176,1.0747,1.0753,1.087,1.1028,1.0744,1.0445,1.012,1.0638,1.1042,1.1292,1.1852,1.2141,1.2206,1.2598,1.2617,1.2233,1.2529,1.2559,1.2233,1.2164,1.1934,1.1555,1.1826,1.2018,1.2047,1.2691,1.3379,1.387,1.4046,1.4016,1.386,1.3815,1.389,1.4016,1.4036,1.4036,1.4133,1.4482,1.4696,1.4657,1.496,1.5254,1.54,1.5293,1.5225,1.5391,1.542,1.542,1.542,1.542,1.542,1.542,1.542,1.542,1.542,1.542,1.542,1.542,1.5322,1.5117,1.4893,1.4784,1.457,1.4163,1.4085,1.3828,1.3238,1.3052,1.3052,1.2974,1.2983,1.2915,1.2915,1.2915,1.2915,1.2915,1.2915,1.2915,1.2915,1.3069,1.3338,1.5825,1.5825,1.5825,1.5825,1.5825,1.5825,1.5825,1.5758,1.5551,1.5431,1.5384,1.4963,1.4756,1.4723,1.4289,1.4088,1.4088,1.4088,1.4088,1.4041,1.348,1.3206,1.3153,1.2585,1.2305,1.2305,1.2305,1.2305,1.2305,1.2305,1.2305,1.2265,1.1717,1.1136,1.0665,1.0839,1.1146,1.1445,1.1146,1.0958,1.0911,1.1338,1.1736,1.2153,1.2598,1.2942,1.3231,1.3432,1.3441,1.3246,1.3422,1.3441,1.3256,1.3237,1.3139,1.2978,1.312,1.3237,1.3227,1.3838,1.4287,1.4445,1.4669,1.4796,1.4796,1.4619,1.4552,1.4777,1.4796,1.4796,1.4806,1.4981,1.5098,1.5029,1.5273,1.541,1.542,1.542,1.542,1.542,1.542,1.542,1.542,1.542,1.542,1.542,1.542,1.542,1.542,1.542,1.542,1.542,1.541,1.5342,1.5156,1.5127,1.5029,1.4844,1.4629,1.4463,1.418,1.3945,1.3789,1.4062,1.36,1.2983,1.2915,1.2915,1.2915,1.2915,1.2915,1.2915,1.2929,1.3166,1.3549,1.5825,1.5825,1.5825,1.5825,1.5825,1.5825,1.5825,1.5825,1.5825,1.5825,1.5745,1.5217,1.5015,1.4948,1.4349,1.4088,1.4088,1.4088,1.4088,1.4035,1.3547,1.3273,1.316,1.2652,1.2371,1.2311,1.2305,1.2305,1.2305,1.2305,1.2231,1.2071,1.165,1.1202,1.0733,1.1122,1.1545,1.1989,1.1849,1.1856,1.1919,1.2205,1.2571,1.3024,1.3338,1.3687,1.406,1.4114,1.4114,1.4114,1.4114,1.4114,1.4114,1.4114,1.4114,1.4114,1.4114,1.4163,1.426,1.459,1.4852,1.4932,1.5225,1.541,1.5381,1.5146,1.5059,1.5352,1.5381,1.5391,1.5371,1.5362,1.542,1.542,1.542,1.542,1.542,1.542,1.542,1.542,1.542,1.542,1.542,1.542,1.5459,1.5557,1.5488,1.542,1.542,1.542,1.542,1.542,1.542,1.541,1.542,1.54,1.5381,1.5381,1.5137,1.5049,1.5107,1.4747,1.464,1.5039,1.4365,1.3482,1.3071,1.2978,1.3013,1.2964,1.2915,1.2915,1.2929,1.3128,1.3549,1.5825,1.5825,1.5825,1.5825,1.5825,1.5825,1.5825,1.5825,1.5825,1.5825,1.5765,1.5217,1.5015,1.4928,1.4349,1.4088,1.4088,1.4088,1.4088,1.4055,1.3713,1.3427,1.32,1.2898,1.2596,1.2331,1.2305,1.2305,1.2305,1.2305,1.2037,1.1563,1.1621,1.1469,1.1161,1.1622,1.2189,1.2704,1.31,1.3169,1.2917,1.3196,1.3415,1.3559,1.3874,1.4044,1.4155,1.4114,1.4087,1.4114,1.4133,1.4124,1.4133,1.4124,1.4124,1.4133,1.4124,1.427,1.4705,1.4766,1.4961,1.5303,1.5381,1.542,1.542,1.5381,1.5361,1.543,1.543,1.542,1.542,1.542,1.542,1.542,1.542,1.542,1.542,1.542,1.542,1.542,1.5488,1.542,1.5508,1.5527,1.5625,1.5919,1.5732,1.5518,1.542,1.5469,1.5449,1.543,1.542,1.542,1.542,1.542,1.542,1.54,1.5381,1.5361,1.5342,1.5342,1.5323,1.5254,1.5264,1.4502,1.3603,1.3154,1.3281,1.3071,1.2964,1.2915,1.2915,1.2978,1.3186,1.5825,1.5825,1.5825,1.5825,1.5825,1.5825,1.5825,1.5825,1.5825,1.5825,1.5758,1.5217,1.5015,1.4968,1.4392,1.4088,1.4088,1.4088,1.4088,1.4062,1.374,1.3447,1.32,1.2931,1.263,1.2318,1.2305,1.2305,1.2305,1.2305,1.1968,1.1517,1.1669,1.1727,1.1558,1.2158,1.2856,1.3606,1.4013,1.4282,1.4362,1.4192,1.4159,1.4269,1.456,1.4811,1.4856,1.4855,1.4855,1.4864,1.4864,1.4855,1.4864,1.4864,1.4864,1.4864,1.4864,1.4942,1.5146,1.5166,1.5234,1.541,1.542,1.542,1.542,1.542,1.5508,1.5752,1.5576,1.542,1.5439,1.542,1.542,1.542,1.542,1.542,1.542,1.542,1.5527,1.585,1.5928,1.6006,1.6152,1.6171,1.6152,1.6183,1.6074,1.6016,1.5547,1.5625,1.5674,1.5478,1.542,1.542,1.542,1.542,1.542,1.542,1.542,1.542,1.542,1.542,1.541,1.542,1.542,1.5234,1.4629,1.3769,1.3428,1.3232,1.3023,1.2915,1.2915,1.2915,1.3017,1.5825,1.5825,1.5825,1.5825,1.5825,1.5825,1.5825,1.5825,1.5825,1.5825,1.5765,1.5263,1.5015,1.4921,1.4392,1.4088,1.4088,1.4088,1.4088,1.4062,1.3854,1.3527,1.3213,1.2986,1.271,1.2351,1.2305,1.2305,1.2305,1.2305,1.1968,1.1538,1.1799,1.1977,1.2026,1.2642,1.3433,1.4273,1.4686,1.502,1.5264,1.4971,1.4795,1.4893,1.5108,1.5313,1.542,1.542,1.542,1.541,1.542,1.542,1.542,1.542,1.542,1.542,1.542,1.542,1.542,1.542,1.542,1.542,1.542,1.542,1.542,1.542,1.5615,1.6016,1.6084,1.6123,1.5781,1.5771,1.5771,1.5742,1.5713,1.5654,1.5674,1.5703,1.5956,1.6426,1.6514,1.6553,1.6648,1.6658,1.6602,1.6533,1.6602,1.6687,1.618,1.623,1.6064,1.5537,1.5508,1.5537,1.5449,1.542,1.542,1.542,1.542,1.542,1.542,1.542,1.542,1.542,1.542,1.5244,1.4834,1.418,1.3802,1.3617,1.3369,1.312,1.314,1.3032,1.2925,1.5825,1.5825,1.5825,1.5825,1.5825,1.5825,1.5825,1.5825,1.5825,1.5825,1.5752,1.5217,1.5015,1.4968,1.4349,1.4088,1.4088,1.4088,1.4088,1.4088,1.4062,1.3754,1.3233,1.318,1.2872,1.2338,1.2305,1.2305,1.2305,1.2298,1.2004,1.1463,1.1942,1.2208,1.2391,1.3078,1.3872,1.4617,1.499,1.5225,1.5391,1.5352,1.5323,1.5323,1.5381,1.5381,1.542,1.542,1.542,1.542,1.542,1.542,1.542,1.542,1.542,1.542,1.542,1.542,1.542,1.542,1.542,1.542,1.5449,1.5439,1.5469,1.543,1.5654,1.6095,1.7142,1.7379,1.6765,1.6521,1.6531,1.6531,1.6387,1.6269,1.624,1.6494,1.6736,1.697,1.7048,1.698,1.6765,1.6697,1.6931,1.708,1.6973,1.6921,1.7422,1.7087,1.6395,1.5918,1.5811,1.5919,1.5537,1.542,1.542,1.542,1.542,1.542,1.542,1.542,1.542,1.542,1.542,1.5244,1.4911,1.4668,1.4543,1.427,1.3779,1.3525,1.3486,1.3135,1.3027,1.5825,1.5825,1.5825,1.5825,1.5825,1.5825,1.5825,1.5825,1.5825,1.5825,1.5725,1.5263,1.5015,1.4981,1.4355,1.4088,1.4088,1.4088,1.4088,1.4088,1.4088,1.3774,1.3253,1.3206,1.2893,1.2378,1.2305,1.2305,1.2305,1.2305,1.2004,1.1585,1.2003,1.247,1.2825,1.348,1.427,1.5059,1.5274,1.5332,1.5381,1.542,1.542,1.542,1.542,1.542,1.542,1.542,1.542,1.542,1.542,1.542,1.542,1.542,1.542,1.542,1.542,1.542,1.542,1.542,1.542,1.543,1.5674,1.5811,1.5811,1.5605,1.5811,1.6799,1.7519,1.7793,1.7549,1.7038,1.6697,1.6697,1.6797,1.6768,1.6716,1.7096,1.7457,1.7383,1.75,1.7516,1.7295,1.7373,1.75,1.7445,1.7471,1.7676,1.7783,1.7379,1.6921,1.6953,1.6572,1.6183,1.6025,1.5615,1.542,1.542,1.542,1.542,1.542,1.542,1.542,1.542,1.542,1.5371,1.5068,1.4902,1.4845,1.4475,1.3977,1.3936,1.388,1.3584,1.3447,1.5825,1.5825,1.5825,1.5825,1.5825,1.5825,1.5825,1.5825,1.5825,1.5825,1.5671,1.5263,1.5015,1.4914,1.4392,1.4088,1.4088,1.4088,1.4088,1.4088,1.4088,1.3774,1.3287,1.3206,1.2893,1.2385,1.2305,1.2305,1.2305,1.2378,1.2098,1.1621,1.2301,1.2829,1.3225,1.3812,1.4567,1.5264,1.542,1.542,1.542,1.542,1.542,1.542,1.542,1.542,1.542,1.542,1.542,1.542,1.542,1.542,1.542,1.542,1.542,1.542,1.542,1.542,1.542,1.542,1.5498,1.5674,1.5781,1.5937,1.6222,1.5976,1.6396,1.7197,1.7754,1.8008,1.79,1.7447,1.7116,1.7126,1.7282,1.7311,1.7165,1.7656,1.7812,1.7686,1.7812,1.7832,1.7676,1.7842,1.7832,1.7641,1.7852,1.7998,1.7939,1.7715,1.7486,1.7828,1.7344,1.6816,1.6514,1.6143,1.5654,1.5576,1.5478,1.5449,1.542,1.542,1.542,1.542,1.542,1.542,1.5322,1.5146,1.4855,1.4543,1.4397,1.4355,1.4228,1.4036,1.3919,1.5825,1.5825,1.5825,1.5825,1.5825,1.5825,1.5825,1.5825,1.5825,1.5825,1.5752,1.5224,1.5015,1.4894,1.4398,1.4088,1.4088,1.4088,1.4088,1.4088,1.4088,1.3788,1.3267,1.322,1.2893,1.2318,1.2305,1.2305,1.2305,1.2475,1.2363,1.2142,1.2781,1.3292,1.3511,1.4163,1.4765,1.5274,1.542,1.542,1.542,1.542,1.542,1.542,1.542,1.542,1.542,1.542,1.542,1.542,1.542,1.542,1.542,1.542,1.542,1.542,1.542,1.542,1.542,1.5449,1.5732,1.6084,1.5811,1.5986,1.6602,1.6716,1.6911,1.7393,1.7773,1.8008,1.8008,1.793,1.7881,1.7978,1.79,1.7881,1.793,1.7978,1.7998,1.7969,1.7998,1.8008,1.7998,1.7988,1.7969,1.7959,1.7978,1.8008,1.8008,1.791,1.7969,1.7988,1.7783,1.7422,1.7019,1.6648,1.6162,1.5752,1.5615,1.5527,1.5439,1.542,1.542,1.542,1.542,1.542,1.542,1.5264,1.5293,1.503,1.4922,1.4775,1.4687,1.4533,1.4367,1.5825,1.5825,1.5825,1.5825,1.5825,1.5825,1.5825,1.5825,1.5825,1.5825,1.5718,1.5217,1.5015,1.4881,1.4355,1.4088,1.4088,1.4088,1.4088,1.4088,1.4088,1.3888,1.3487,1.326,1.2886,1.2392,1.2305,1.2305,1.2378,1.2636,1.2692,1.2628,1.3176,1.3678,1.4006,1.441,1.4893,1.5362,1.542,1.542,1.542,1.542,1.542,1.542,1.542,1.542,1.542,1.542,1.542,1.542,1.542,1.542,1.542,1.542,1.542,1.542,1.542,1.542,1.5459,1.5703,1.6055,1.6484,1.6531,1.6777,1.7148,1.7441,1.7627,1.7793,1.7939,1.8008,1.8008,1.8008,1.8008,1.8008,1.8008,1.8008,1.8008,1.8008,1.8008,1.8008,1.8008,1.8008,1.8008,1.8008,1.8008,1.8008,1.8008,1.8008,1.8008,1.8008,1.8008,1.8008,1.7939,1.7871,1.7441,1.7129,1.6807,1.6328,1.6045,1.5625,1.5508,1.542,1.542,1.542,1.542,1.542,1.542,1.542,1.542,1.542,1.5225,1.5166,1.5195,1.5059,1.4816,1.5825,1.5825,1.5825,1.5825,1.5825,1.5825,1.5825,1.5825,1.5825,1.5825,1.5712,1.5263,1.5015,1.4888,1.4349,1.4102,1.4088,1.4088,1.4088,1.4088,1.4088,1.3928,1.3567,1.3213,1.2792,1.2392,1.2305,1.2305,1.2342,1.2769,1.3035,1.3207,1.3707,1.4236,1.4596,1.481,1.5069,1.5352,1.542,1.542,1.542,1.542,1.542,1.542,1.542,1.542,1.542,1.542,1.542,1.542,1.542,1.542,1.542,1.542,1.542,1.542,1.542,1.542,1.5459,1.584,1.6467,1.7031,1.7135,1.7252,1.7568,1.79,1.7998,1.8008,1.8008,1.8008,1.8008,1.8008,1.8008,1.8008,1.8008,1.8008,1.8008,1.8008,1.8008,1.8008,1.8008,1.8008,1.8008,1.8008,1.8008,1.8008,1.8008,1.8008,1.8008,1.8008,1.8008,1.8008,1.7988,1.7871,1.7705,1.7529,1.7412,1.7002,1.6582,1.5996,1.5586,1.5469,1.542,1.542,1.542,1.542,1.542,1.542,1.542,1.542,1.542,1.5371,1.5312,1.5342,1.5205,1.5825,1.5825,1.5825,1.5825,1.5825,1.5825,1.5825,1.5825,1.5825,1.5825,1.5705,1.5271,1.5042,1.4888,1.4389,1.4142,1.4088,1.4088,1.4088,1.4088,1.4068,1.3915,1.35,1.3093,1.2685,1.2351,1.2305,1.2305,1.2335,1.29,1.3424,1.3827,1.4338,1.4892,1.5356,1.5365,1.5399,1.5498,1.5488,1.5488,1.543,1.542,1.542,1.542,1.542,1.542,1.542,1.542,1.542,1.542,1.542,1.542,1.542,1.543,1.5498,1.5518,1.5478,1.5537,1.5596,1.6056,1.6719,1.7686,1.7486,1.7369,1.7881,1.7969,1.8008,1.8008,1.8008,1.8008,1.8008,1.8008,1.8008,1.8008,1.8008,1.8008,1.8008,1.8008,1.8008,1.8008,1.8008,1.8008,1.8008,1.8008,1.8008,1.8008,1.8008,1.8008,1.8008,1.8008,1.8008,1.8008,1.8008,1.7959,1.7812,1.7793,1.7686,1.751,1.7109,1.6602,1.5869,1.5644,1.542,1.542,1.5488,1.5469,1.542,1.542,1.542,1.542,1.542,1.542,1.542,1.543,1.543,1.5825,1.5825,1.5825,1.5825,1.5825,1.5825,1.5825,1.5825,1.5825,1.5825,1.5738,1.5451,1.5196,1.4975,1.4576,1.4295,1.4142,1.4088,1.4088,1.4088,1.4088,1.3788,1.3407,1.3173,1.2806,1.2385,1.2355,1.2305,1.2378,1.3083,1.3739,1.4334,1.5019,1.5689,1.6236,1.6292,1.615,1.5937,1.5919,1.5732,1.5449,1.5459,1.542,1.542,1.5439,1.5449,1.542,1.542,1.542,1.542,1.542,1.542,1.5488,1.5732,1.5928,1.5958,1.6172,1.6269,1.6221,1.6641,1.7334,1.7891,1.7842,1.7808,1.7969,1.8008,1.8008,1.8008,1.8008,1.8008,1.8008,1.8008,1.8008,1.8008,1.8057,1.8066,1.8008,1.8008,1.8008,1.8008,1.8018,1.8047,1.8086,1.8086,1.8086,1.8086,1.8076,1.8018,1.8027,1.8008,1.8008,1.8008,1.8008,1.8008,1.7988,1.7988,1.7949,1.79,1.7646,1.7353,1.6582,1.5957,1.5654,1.542,1.5644,1.5693,1.5537,1.5439,1.543,1.5615,1.5537,1.5595,1.5469,1.542,1.5459,1.5825,1.5825,1.5825,1.5825,1.5825,1.5825,1.5825,1.5825,1.5825,1.5825,1.5765,1.5524,1.5304,1.5156,1.471,1.4399,1.4269,1.4142,1.4088,1.4088,1.4088,1.3828,1.346,1.336,1.3101,1.2788,1.2698,1.2753,1.2936,1.3593,1.4328,1.4978,1.5606,1.6298,1.6915,1.6765,1.659,1.6377,1.6348,1.6201,1.5956,1.5937,1.5977,1.5937,1.5937,1.5937,1.5977,1.5967,1.5898,1.5752,1.5693,1.5762,1.5967,1.6191,1.6369,1.6357,1.657,1.6648,1.6748,1.7119,1.7549,1.791,1.8008,1.8008,1.8008,1.8008,1.8008,1.8008,1.8008,1.8008,1.8008,1.8008,1.8008,1.8057,1.832,1.8379,1.8066,1.8008,1.8008,1.8047,1.8164,1.8359,1.8496,1.8535,1.8535,1.8545,1.8496,1.8291,1.8086,1.8037,1.8008,1.8008,1.8008,1.8008,1.8008,1.8008,1.8008,1.7978,1.793,1.7705,1.7266,1.6514,1.6426,1.623,1.6044,1.5898,1.5829,1.5839,1.6024,1.6102,1.5956,1.5898,1.5868,1.5742,1.5712,1.5825,1.5825,1.5825,1.5825,1.5825,1.5825,1.5825,1.5825,1.5825,1.5825,1.5772,1.5558,1.5444,1.537,1.4936,1.4616,1.4515,1.4302,1.4235,1.4257,1.4237,1.413,1.3981,1.3728,1.3581,1.3402,1.3357,1.3536,1.3855,1.441,1.5081,1.5704,1.6131,1.6706,1.7261,1.7067,1.6853,1.6785,1.6797,1.6677,1.656,1.6531,1.6521,1.6521,1.6531,1.6551,1.658,1.6599,1.6492,1.6251,1.6193,1.6309,1.6619,1.6697,1.6765,1.6804,1.6892,1.7028,1.7165,1.7412,1.7607,1.7939,1.8008,1.8008,1.8008,1.8008,1.8008,1.8008,1.8008,1.8047,1.8135,1.8115,1.8174,1.8252,1.8769,1.8682,1.8359,1.8164,1.8174,1.8164,1.8471,1.8841,1.917,1.9307,1.9238,1.8945,1.8838,1.8555,1.8232,1.8027,1.8008,1.8008,1.8008,1.8008,1.8008,1.8008,1.8008,1.7998,1.7998,1.7881,1.7793,1.7383,1.7408,1.7311,1.7002,1.6668,1.6443,1.6521,1.6619,1.6551,1.6346,1.6473,1.6599,1.6385,1.6278,1.5825,1.5825,1.5825,1.5825,1.5825,1.5825,1.5825,1.5825,1.5825,1.5825,1.5812,1.5752,1.557,1.5341,1.5335,1.514,1.4753,1.4663,1.4573,1.4622,1.4797,1.4929,1.4862,1.455,1.4155,1.4108,1.4328,1.4579,1.4888,1.5251,1.5772,1.6341,1.6771,1.7285,1.7711,1.7705,1.7559,1.7314,1.7246,1.708,1.6824,1.6785,1.6785,1.6775,1.6765,1.6726,1.6707,1.6697,1.6814,1.6953,1.6807,1.6687,1.6824,1.709,1.7227,1.7305,1.7539,1.7725,1.7803,1.7812,1.79,1.7978,1.8008,1.8008,1.8008,1.8008,1.8008,1.8018,1.8018,1.8149,1.8422,1.8623,1.8652,1.8662,1.8555,1.8613,1.8906,1.9199,1.9209,1.9053,1.9062,1.9277,1.9543,1.9463,1.9394,1.9316,1.9131,1.8828,1.8525,1.8213,1.8125,1.8184,1.8018,1.8047,1.8164,1.8144,1.8105,1.8105,1.8096,1.8018,1.793,1.7881,1.7803,1.7822,1.7822,1.7457,1.7028,1.6843,1.6863,1.6794,1.6775,1.6872,1.6941,1.6843,1.6872,1.5825,1.5825,1.5825,1.5825,1.5825,1.5825,1.5825,1.5825,1.5825,1.5825,1.5825,1.5825,1.5765,1.5708,1.5922,1.5806,1.5425,1.5251,1.5179,1.5262,1.5553,1.5925,1.6273,1.6071,1.5747,1.5224,1.5391,1.5599,1.5796,1.6097,1.6464,1.6872,1.726,1.7594,1.794,1.8008,1.7871,1.7734,1.7686,1.7549,1.7363,1.7301,1.7324,1.7334,1.7301,1.7301,1.7321,1.7344,1.7461,1.7559,1.7451,1.7291,1.7344,1.7539,1.7656,1.7734,1.7852,1.8008,1.7998,1.8008,1.7998,1.8008,1.8008,1.8008,1.8008,1.8008,1.8125,1.8252,1.835,1.8477,1.8887,1.8994,1.9108,1.9062,1.8936,1.8984,1.9297,1.9766,1.9873,1.9521,1.9434,1.9746,1.9883,1.9852,1.992,1.9961,2.0018,1.9687,1.9316,1.8984,1.8564,1.8428,1.8154,1.8105,1.8291,1.8311,1.8232,1.8208,1.8227,1.8144,1.8018,1.7998,1.7988,1.7988,1.7969,1.79,1.7506,1.733,1.7233,1.7369,1.7399,1.733,1.7311,1.7389,1.749,1.5825,1.5825,1.5825,1.5825,1.5825,1.5825,1.5825,1.5825,1.5825,1.5832,1.5872,1.5879,1.6085,1.6294,1.6684,1.6633,1.6299,1.6133,1.6008,1.5992,1.6445,1.6935,1.7407,1.7654,1.7395,1.6378,1.6564,1.6704,1.672,1.689,1.7141,1.7382,1.7579,1.7828,1.7974,1.8008,1.7978,1.7949,1.7939,1.7939,1.791,1.79,1.79,1.7891,1.7881,1.7881,1.7871,1.7891,1.7959,1.8008,1.8008,1.8008,1.8008,1.8008,1.8008,1.7988,1.7998,1.7998,1.8008,1.8008,1.8008,1.8008,1.8105,1.8057,1.8037,1.8213,1.8428,1.8529,1.8711,1.8906,1.9307,1.9394,1.9443,1.9531,1.9736,1.9717,1.9687,2.0184,2.0136,1.9805,1.9853,2.0146,2.0332,2.04,2.0527,2.0615,2.0615,2.0507,2.0106,1.9813,1.9365,1.9228,1.9102,1.8682,1.8769,1.851,1.8422,1.8525,1.849,1.8247,1.8125,1.8037,1.8008,1.8008,1.7978,1.792,1.791,1.7764,1.7783,1.7998,1.793,1.7725,1.7793,1.7978,1.7959,1.5825,1.5825,1.5825,1.5825,1.5825,1.5825,1.5825,1.5825,1.5825,1.5933,1.617,1.6386,1.66,1.6951,1.7505,1.7448,1.7087,1.7017,1.7025,1.6984,1.7423,1.8029,1.8519,1.8868,1.8602,1.8124,1.7908,1.783,1.7662,1.7794,1.7735,1.7837,1.7906,1.7974,1.7974,1.8008,1.8008,1.8008,1.8008,1.8008,1.8008,1.8008,1.8008,1.8008,1.8008,1.8008,1.8008,1.8008,1.8008,1.8008,1.8008,1.8008,1.8008,1.8008,1.8008,1.8008,1.8008,1.8008,1.8008,1.8008,1.8008,1.8076,1.8256,1.8276,1.8256,1.8613,1.8877,1.8965,1.9131,1.9375,1.9756,1.9814,2.0,2.0215,2.0303,2.0342,2.037,2.0439,2.0556,2.0273,2.039,2.0468,2.0556,2.0615,2.0615,2.0615,2.0615,2.0615,2.041,2.0331,2.0253,2.0243,2.0321,1.9793,1.9336,1.8955,1.8695,1.8896,1.8838,1.8412,1.8271,1.8076,1.8008,1.8008,1.8008,1.7978,1.7988,1.8008,1.8008,1.8008,1.8008,1.8008,1.8008,1.8008,1.8008,1.5825,1.5825,1.5825,1.5825,1.5825,1.5825,1.5825,1.5825,1.5825,1.6021,1.6398,1.6718,1.7078,1.7636,1.8387,1.8419,1.8166,1.8135,1.8167,1.8198,1.8598,1.9155,1.9569,1.9883,1.9449,1.9002,1.88,1.8481,1.8061,1.7974,1.8008,1.8008,1.8008,1.8008,1.8008,1.8008,1.8008,1.8008,1.8008,1.8008,1.8008,1.8008,1.8008,1.8008,1.8008,1.8008,1.8008,1.8008,1.8008,1.8008,1.8008,1.8008,1.8008,1.8008,1.8008,1.8008,1.8008,1.8008,1.8008,1.8018,1.8105,1.8305,1.852,1.8559,1.8613,1.8936,1.9326,1.9482,1.9756,2.0067,2.0234,2.0234,2.0361,2.0537,2.0615,2.0615,2.0615,2.0615,2.0615,2.0615,2.0576,2.0556,2.0576,2.0615,2.0615,2.0615,2.0615,2.0615,2.0615,2.0615,2.0605,2.0537,2.0468,2.0077,1.9609,1.9394,1.916,1.9287,1.9258,1.8857,1.8477,1.832,1.8125,1.8008,1.8008,1.8154,1.8008,1.8008,1.8008,1.8008,1.8008,1.8008,1.8008,1.8008,1.8008,1.5825,1.5825,1.5825,1.5825,1.5825,1.5825,1.5832,1.5879,1.5974,1.6346,1.6908,1.7241,1.7726,1.8399,1.899,1.9326,1.9125,1.9112,1.9103,1.9125,1.9481,2.004,2.044,2.0517,2.0138,1.9469,1.9224,1.8838,1.8154,1.8008,1.8008,1.8008,1.8008,1.8008,1.8008,1.8008,1.8008,1.8008,1.8008,1.8008,1.8008,1.8008,1.8008,1.8008,1.8008,1.8008,1.8008,1.8008,1.8008,1.8008,1.8008,1.8008,1.8008,1.8008,1.8008,1.8008,1.8008,1.8008,1.8027,1.8154,1.8286,1.851,1.8763,1.8945,1.9111,1.9414,1.9736,2.0039,2.0321,2.0527,2.0537,2.0586,2.0595,2.0595,2.0615,2.0615,2.0615,2.0615,2.0615,2.0615,2.0615,2.0615,2.0615,2.0615,2.0615,2.0615,2.0615,2.0615,2.0615,2.0615,2.0586,2.0439,2.0293,2.001,1.9805,1.9834,1.9707,1.9775,1.9717,1.9453,1.9004,1.8613,1.8535,1.8613,1.8428,1.8535,1.8281,1.8018,1.8008,1.8008,1.8008,1.8008,1.8008,1.8008,1.8008,1.5825,1.5825,1.5825,1.5825,1.5825,1.5825,1.5933,1.617,1.64,1.7052,1.7909,1.8218,1.8764,1.9396,1.9687,1.9722,1.9657,1.9696,1.9696,1.9687,2.001,2.0294,2.0566,2.0615,2.0283,1.9775,1.9463,1.8809,1.8232,1.8047,1.8008,1.8008,1.8008,1.8008,1.8008,1.8008,1.8008,1.8008,1.8008,1.8008,1.8008,1.8008,1.8008,1.8008,1.8008,1.8008,1.8008,1.8008,1.8008,1.8008,1.8008,1.8008,1.8008,1.8008,1.8008,1.8008,1.8008,1.8008,1.8096,1.8334,1.8598,1.8861,1.9277,1.9572,1.9766,2.001,2.0351,2.0488,2.0586,2.0605,2.0615,2.0615,2.0615,2.0615,2.0615,2.0615,2.0615,2.0615,2.0615,2.0615,2.0615,2.0615,2.0615,2.0615,2.0615,2.0615,2.0615,2.0615,2.0615,2.0615,2.0615,2.0517,2.0449,2.0146,2.0068,2.0088,2.0107,2.0195,2.0098,1.998,1.9697,1.9394,1.9646,1.9646,1.9336,1.8857,1.8496,1.8252,1.8086,1.8037,1.8086,1.8057,1.8008,1.8008,1.8018,1.5825,1.5825,1.5825,1.5825,1.5825,1.5825,1.6021,1.6494,1.6998,1.7785,1.8684,1.9203,1.9669,2.0136,2.0282,2.0264,2.0206,2.0245,2.0245,2.0167,2.0372,2.0498,2.0576,2.0586,2.0332,1.999,1.9668,1.9209,1.8574,1.8144,1.8008,1.8008,1.8008,1.8008,1.8008,1.8008,1.8008,1.8008,1.8008,1.8008,1.8008,1.8008,1.8008,1.8008,1.8008,1.8008,1.8008,1.8008,1.8008,1.8008,1.8008,1.8008,1.8008,1.8027,1.8086,1.8369,1.8334,1.8344,1.8393,1.8754,1.9017,1.929,1.9717,1.9941,2.0176,2.04,2.0615,2.0605,2.0605,2.0615,2.0615,2.0615,2.0615,2.0615,2.0615,2.0615,2.0615,2.0615,2.0615,2.0615,2.0615,2.0615,2.0615,2.0615,2.0615,2.0615,2.0615,2.0615,2.0615,2.0615,2.0615,2.0595,2.0527,2.0419,2.041,2.0429,2.04,2.0449,2.0449,2.0332,2.0419,2.037,2.0351,2.0361,2.0136,1.9541,1.8877,1.8574,1.8477,1.833,1.8139,1.8193,1.8203,1.8057,1.8091,1.5825,1.5825,1.5825,1.5825,1.5825,1.5825,1.6163,1.6777,1.7552,1.8473,1.9414,2.0068,2.051,2.0663,2.0625,2.0527,2.0566,2.0615,2.0615,2.0615,2.0615,2.0615,2.0615,2.0576,2.041,2.0059,1.9912,1.9551,1.9036,1.8559,1.8311,1.8027,1.8008,1.8008,1.8008,1.8008,1.8008,1.8008,1.8008,1.8008,1.8008,1.8008,1.8008,1.8008,1.8008,1.8008,1.8008,1.8008,1.8008,1.8008,1.8008,1.8057,1.8184,1.8242,1.8403,1.8695,1.887,1.8978,1.9046,1.9297,1.96,1.9824,2.0059,2.0244,2.0498,2.0615,2.0615,2.0615,2.0615,2.0615,2.0615,2.0615,2.0615,2.0615,2.0615,2.0615,2.0615,2.0615,2.0615,2.0615,2.0615,2.0615,2.0615,2.0615,2.0615,2.0615,2.0615,2.0615,2.0615,2.0615,2.0615,2.0615,2.0586,2.0537,2.0556,2.0586,2.0605,2.0615,2.0615,2.0605,2.0576,2.0576,2.0527,2.0576,2.0615,2.0312,1.9666,1.9248,1.8841,1.8779,1.8662,1.8506,1.8418,1.8271,1.8125,1.5825,1.5825,1.5825,1.5825,1.5825,1.5825,1.6258,1.7019,1.7978,1.9109,2.0345,2.0973,2.1224,2.1072,2.0752,2.0615,2.0615,2.0615,2.0615,2.0615,2.0615,2.0615,2.0615,2.0595,2.0576,2.0458,2.0185,1.9951,1.9707,1.9268,1.8711,1.8144,1.8242,1.8096,1.8076,1.8164,1.8057,1.8027,1.8008,1.8008,1.8008,1.8008,1.8008,1.8008,1.8008,1.8008,1.8008,1.8057,1.8086,1.8096,1.8174,1.8311,1.8545,1.8594,1.8818,1.918,1.9436,1.9609,1.9746,1.9785,1.9863,2.0029,2.0234,2.0459,2.0595,2.0615,2.0615,2.0615,2.0615,2.0615,2.0615,2.0615,2.0615,2.0615,2.0615,2.0615,2.0615,2.0615,2.0615,2.0615,2.0615,2.0615,2.0615,2.0615,2.0615,2.0615,2.0615,2.0615,2.0615,2.0615,2.0615,2.0615,2.0615,2.0595,2.0595,2.0615,2.0615,2.0615,2.0615,2.0615,2.0605,2.0615,2.0615,2.0615,2.0605,2.0527,2.0439,1.9922,1.9531,1.9326,1.9141,1.8916,1.8818,1.876,1.8506,1.5825,1.5825,1.5825,1.5825,1.5825,1.5825,1.6346,1.7333,1.8511,2.005,2.1652,2.1719,2.1559,2.1171,2.0791,2.0615,2.0615,2.0615,2.0615,2.0615,2.0615,2.0615,2.0615,2.0615,2.0605,2.0576,2.04,2.0127,1.9873,1.9756,1.9394,1.8955,1.8809,1.8809,1.876,1.8422,1.8227,1.8076,1.8027,1.8018,1.8008,1.8008,1.8008,1.8008,1.8008,1.8008,1.8047,1.8247,1.8315,1.8412,1.8633,1.8828,1.8984,1.9023,1.9258,1.9609,1.9873,2.0039,2.0254,2.0293,2.0351,2.037,2.0507,2.0615,2.0615,2.0615,2.0615,2.0615,2.0615,2.0615,2.0625,2.0615,2.0615,2.0615,2.0615,2.0615,2.0713,2.0762,2.082,2.0918,2.0742,2.0615,2.0615,2.0615,2.0615,2.0615,2.0615,2.0615,2.0615,2.0615,2.0615,2.0615,2.0615,2.0615,2.0615,2.0615,2.0615,2.0615,2.0615,2.0615,2.0615,2.0615,2.0615,2.0615,2.0615,2.0566,2.0498,2.0361,2.0117,1.9795,1.9492,1.9219,1.9189,1.9258,1.9072,1.5825,1.5825,1.5825,1.5825,1.5825,1.5825,1.6393,1.7458,1.8864,2.0722,2.2613,2.2148,2.1728,2.1338,2.086,2.0615,2.0615,2.0615,2.0615,2.0615,2.0615,2.0615,2.0615,2.0615,2.0615,2.0615,2.0586,2.04,2.0176,2.0127,1.9932,1.9793,1.9686,1.9597,1.9141,1.8831,1.851,1.8428,1.8242,1.8311,1.8359,1.8271,1.8223,1.8184,1.8105,1.8125,1.8232,1.8432,1.8637,1.8848,1.9062,1.9307,1.9414,1.9521,1.9717,1.9941,2.0137,2.0264,2.0507,2.0605,2.0605,2.0556,2.0576,2.0615,2.0615,2.0615,2.0615,2.0615,2.0615,2.0654,2.0742,2.082,2.0879,2.0928,2.0664,2.0644,2.0987,2.1134,2.1192,2.1241,2.1143,2.1212,2.0986,2.0996,2.0781,2.0732,2.0615,2.0615,2.0615,2.0615,2.0615,2.0615,2.0615,2.0615,2.0615,2.0615,2.0615,2.0615,2.0615,2.0615,2.0615,2.0615,2.0615,2.0615,2.0615,2.0615,2.0566,2.0449,2.0332,2.0166,1.9922,1.9717,1.9814,1.992,1.9862,1.5825,1.5825,1.5825,1.5825,1.5825,1.5825,1.6346,1.7466,1.9001,2.089,2.2776,2.2266,2.1926,2.1631,2.0977,2.0635,2.0615,2.0615,2.0615,2.0615,2.0615,2.0615,2.0615,2.0615,2.0615,2.0615,2.0595,2.0576,2.0537,2.0488,2.0458,2.0449,2.0302,2.0019,1.9336,1.8887,1.8841,1.9111,1.8779,1.8867,1.8945,1.8769,1.8617,1.8529,1.8379,1.8398,1.8568,1.8763,1.8987,1.9258,1.9414,1.9648,1.9863,1.9893,2.0098,2.0458,2.0527,2.0566,2.0615,2.0615,2.0615,2.0615,2.0615,2.0615,2.0615,2.0635,2.0664,2.0742,2.0781,2.0889,2.1055,2.119,2.1239,2.1221,2.0937,2.0938,2.129,2.1768,2.1885,2.1797,2.1973,2.21,2.1777,2.1475,2.1084,2.085,2.0683,2.0615,2.0635,2.0615,2.0615,2.0615,2.0615,2.0615,2.0615,2.0615,2.0615,2.0615,2.0615,2.0615,2.0615,2.0615,2.0615,2.0615,2.0615,2.0615,2.0615,2.0595,2.0488,2.0361,2.0478,2.041,2.0498,2.0458,2.0312,1.5825,1.5825,1.5825,1.5825,1.5825,1.5825,1.6386,1.7559,1.9513,2.1472,2.2655,2.2256,2.1936,2.1611,2.1085,2.0615,2.0615,2.0615,2.0615,2.0615,2.0615,2.0615,2.0615,2.0615,2.0615,2.0615,2.0615,2.0615,2.0595,2.0615,2.0615,2.0605,2.0576,2.0244,1.9834,1.9502,1.9512,1.9297,1.9141,1.915,1.9294,1.916,1.9062,1.9026,1.8877,1.8877,1.9072,1.9202,1.9482,1.9717,1.9863,2.0127,2.0283,2.0341,2.0429,2.0595,2.0615,2.0615,2.0615,2.0615,2.0615,2.0625,2.0654,2.0654,2.0625,2.0869,2.0957,2.1084,2.128,2.1445,2.1641,2.167,2.1699,2.1689,2.1533,2.1533,2.1826,2.248,2.276,2.2529,2.2529,2.2256,2.1953,2.1885,2.1572,2.1289,2.1153,2.0811,2.0723,2.0654,2.0625,2.0615,2.0615,2.0615,2.0615,2.0635,2.0625,2.0615,2.0615,2.0615,2.0615,2.0615,2.0615,2.0615,2.0615,2.0615,2.0615,2.0615,2.0615,2.0605,2.0615,2.0615,2.0576,2.0566,2.0527,1.5825,1.5825,1.5825,1.5825,1.5825,1.5825,1.6615,1.8234,2.0158,2.1802,2.2698,2.2275,2.1936,2.1672,2.1075,2.0615,2.0615,2.0615,2.0615,2.0615,2.0615,2.0615,2.0615,2.0615,2.0615,2.0615,2.0615,2.0615,2.0615,2.0615,2.0615,2.0615,2.0605,2.0449,2.0137,1.9971,1.9863,1.9707,1.9678,1.9619,1.9678,1.9629,1.9512,1.9453,1.9365,1.9363,1.9521,1.9756,1.999,2.0166,2.0371,2.0615,2.0615,2.0615,2.0615,2.0615,2.0615,2.0615,2.0615,2.0791,2.083,2.084,2.0791,2.0879,2.0997,2.1201,2.1338,2.1514,2.1836,2.1992,2.209,2.21,2.2148,2.2148,2.2246,2.2246,2.2373,2.2974,2.3081,2.2847,2.2783,2.2451,2.2227,2.2158,2.206,2.1826,2.1642,2.129,2.0977,2.0977,2.0957,2.0948,2.083,2.082,2.0762,2.0683,2.0664,2.0615,2.0615,2.0615,2.0615,2.0615,2.0615,2.0615,2.0615,2.0615,2.0615,2.0615,2.0615,2.0615,2.0615,2.0615,2.0615,2.0615,2.0615,1.5825,1.5825,1.5825,1.5825,1.5825,1.6015,1.735,1.9497,2.0574,2.1784,2.2994,2.2217,2.1846,2.166,2.0937,2.0625,2.0615,2.0615,2.0615,2.0615,2.0615,2.0615,2.0615,2.0615,2.0615,2.0615,2.0615,2.0615,2.0615,2.0615,2.0615,2.0615,2.0615,2.0537,2.0371,2.0234,2.0176,2.0176,2.0098,2.0098,2.0224,2.0088,1.9971,1.9873,1.9727,1.9736,1.9863,2.0019,2.0215,2.0391,2.0595,2.0615,2.0615,2.0615,2.0615,2.0615,2.0615,2.0625,2.0723,2.1006,2.1269,2.1338,2.1307,2.1543,2.1611,2.1602,2.1709,2.1924,2.2207,2.2373,2.25,2.2578,2.2656,2.274,2.2906,2.2925,2.2935,2.3101,2.3101,2.3033,2.3023,2.2867,2.2822,2.2734,2.249,2.2432,2.2236,2.207,2.1807,2.167,2.1641,2.1533,2.1406,2.1162,2.1006,2.0752,2.0664,2.0615,2.0615,2.0615,2.0615,2.0615,2.0615,2.0615,2.0615,2.0615,2.0615,2.0615,2.0615,2.0615,2.0615,2.0615,2.0615,2.0615,2.0615,1.5825,1.5825,1.5825,1.5927,1.6211,1.7225,1.8411,1.9588,2.0565,2.1673,2.2613,2.2129,2.1738,2.1327,2.082,2.0664,2.0615,2.0615,2.0615,2.0615,2.0615,2.0615,2.0615,2.0615,2.0615,2.0615,2.0615,2.0615,2.0615,2.0615,2.0615,2.0615,2.0615,2.0615,2.0566,2.0468,2.0517,2.0527,2.0381,2.0439,2.0556,2.0439,2.0332,2.0244,2.0224,2.0205,2.0273,2.0332,2.0507,2.0566,2.0615,2.0615,2.0615,2.0615,2.0615,2.0615,2.0635,2.0674,2.0977,2.1122,2.1424,2.1934,2.2038,2.1963,2.1982,2.2021,2.2129,2.2363,2.2545,2.2711,2.2779,2.2847,2.2896,2.2984,2.3101,2.3101,2.3101,2.3101,2.3101,2.3101,2.3101,2.3091,2.3052,2.3013,2.2799,2.2857,2.2818,2.2652,2.2496,2.2363,2.2236,2.2119,2.1768,2.1465,2.0977,2.0674,2.0644,2.0615,2.0615,2.0615,2.0615,2.0615,2.0615,2.0615,2.0615,2.0615,2.0615,2.0615,2.0615,2.0615,2.0615,2.0615,2.0615,2.0615,2.0722,1.5825,1.5825,1.5825,1.6157,1.6951,1.8149,1.9165,2.0052,2.0899,2.1792,2.2405,2.207,2.165,2.123,2.0801,2.0615,2.0615,2.0615,2.0615,2.0615,2.0615,2.0615,2.0615,2.0615,2.0615,2.0615,2.0615,2.0615,2.0615,2.0615,2.0615,2.0615,2.0615,2.0615,2.0595,2.0576,2.0586,2.0605,2.0595,2.0615,2.0615,2.0615,2.0615,2.0615,2.0615,2.0615,2.0615,2.0615,2.0615,2.0615,2.0615,2.0615,2.0674,2.0713,2.084,2.0898,2.1094,2.1143,2.1318,2.1641,2.1992,2.2334,2.2584,2.2584,2.2559,2.2588,2.2623,2.275,2.2935,2.3081,2.3081,2.3091,2.3091,2.3091,2.3101,2.3101,2.3101,2.3101,2.3101,2.3101,2.3101,2.3101,2.3091,2.3101,2.3091,2.3033,2.3013,2.2955,2.2838,2.2721,2.2666,2.2568,2.2119,2.168,2.1222,2.0811,2.0703,2.0683,2.0615,2.0615,2.0615,2.0615,2.0615,2.0615,2.0615,2.0615,2.0615,2.0615,2.0615,2.0615,2.0615,2.0615,2.0615,2.0615,2.0799,1.5825,1.5825,1.5879,1.6622,1.7824,1.8834,1.9855,2.0779,2.1421,2.197,2.2259,2.1982,2.1543,2.1064,2.0713,2.0615,2.0615,2.0615,2.0615,2.0615,2.0615,2.0615,2.0615,2.0615,2.0615,2.0615,2.0615,2.0615,2.0615,2.0615,2.0615,2.0615,2.0615,2.0615,2.0615,2.0615,2.0615,2.0615,2.0615,2.0615,2.0615,2.0615,2.0615,2.0615,2.0615,2.0615,2.0615,2.0615,2.0615,2.0615,2.0615,2.0615,2.0791,2.1064,2.123,2.1348,2.1543,2.1621,2.1728,2.2021,2.2295,2.2578,2.2812,2.2896,2.2906,2.2877,2.2925,2.2935,2.3071,2.3101,2.3101,2.3101,2.3101,2.3101,2.3101,2.3101,2.3101,2.3101,2.3101,2.3101,2.3101,2.3101,2.3101,2.3101,2.3101,2.3101,2.3101,2.3101,2.3062,2.2984,2.2925,2.2857,2.2598,2.2129,2.165,2.124,2.0909,2.0781,2.0732,2.0615,2.0625,2.0615,2.0615,2.0615,2.0615,2.0615,2.0615,2.0615,2.0605,2.0605,2.0644,2.0654,2.0693,2.0809,2.1328,1.5825,1.5872,1.6454,1.7286,1.8334,1.9538,2.0491,2.1272,2.1815,2.1867,2.1539,2.1385,2.1162,2.0771,2.0693,2.0615,2.0615,2.0615,2.0615,2.0615,2.0615,2.0615,2.0615,2.0615,2.0615,2.0615,2.0615,2.0615,2.0615,2.0615,2.0615,2.0615,2.0615,2.0615,2.0615,2.0615,2.0615,2.0615,2.0615,2.0615,2.0615,2.0615,2.0615,2.0615,2.0615,2.0615,2.0615,2.0615,2.0615,2.0615,2.0615,2.0742,2.1064,2.1484,2.1699,2.1758,2.1885,2.2002,2.2158,2.2393,2.2607,2.2842,2.3003,2.3052,2.3091,2.3101,2.3101,2.3101,2.3101,2.3101,2.3101,2.3101,2.3101,2.3101,2.3101,2.3101,2.3101,2.3101,2.3101,2.3101,2.3101,2.3101,2.3101,2.3101,2.3101,2.3101,2.3101,2.3101,2.3101,2.3052,2.3042,2.2994,2.3023,2.2623,2.2139,2.1689,2.1299,2.1084,2.1045,2.0859,2.0654,2.0625,2.0615,2.0615,2.0615,2.0615,2.0615,2.0615,2.0605,2.0605,2.0799,2.0886,2.1292,2.1533,2.2138,1.5825,1.5927,1.6777,1.7831,1.8972,2.013,2.0987,2.1599,2.1942,2.1625,2.1064,2.1054,2.0986,2.0644,2.0615,2.0615,2.0615,2.0615,2.0615,2.0615,2.0615,2.0615,2.0615,2.0615,2.0615,2.0615,2.0615,2.0615,2.0615,2.0615,2.0615,2.0615,2.0615,2.0615,2.0615,2.0615,2.0615,2.0615,2.0615,2.0635,2.0635,2.0615,2.0615,2.0615,2.0615,2.0615,2.0615,2.0635,2.0703,2.0898,2.1084,2.126,2.1582,2.1924,2.2129,2.2227,2.2353,2.25,2.2627,2.2734,2.2871,2.3013,2.3101,2.3101,2.3101,2.3101,2.3101,2.3101,2.3101,2.3101,2.3101,2.3101,2.3101,2.3101,2.3101,2.3101,2.3101,2.3101,2.3101,2.3101,2.3101,2.3101,2.3101,2.3101,2.3101,2.3101,2.3101,2.3101,2.3101,2.3101,2.3101,2.3101,2.3101,2.2838,2.2295,2.1953,2.1719,2.1543,2.1375,2.1006,2.0742,2.0654,2.0615,2.0615,2.0615,2.0615,2.0615,2.0683,2.0635,2.0605,2.0876,2.1118,2.1668,2.2404,2.3323,1.5825,1.592,1.6857,1.8141,1.9526,2.0504,2.1261,2.1797,2.1826,2.1357,2.0742,2.0977,2.0869,2.0723,2.0615,2.0615,2.0615,2.0615,2.0615,2.0615,2.0615,2.0615,2.0615,2.0615,2.0615,2.0615,2.0615,2.0615,2.0615,2.0615,2.0615,2.0615,2.0615,2.0615,2.0615,2.0615,2.0615,2.0644,2.0674,2.0684,2.0693,2.0635,2.0615,2.0615,2.0615,2.0625,2.0664,2.0723,2.0908,2.1279,2.166,2.1846,2.206,2.2344,2.2467,2.2613,2.2769,2.2916,2.3013,2.3003,2.3052,2.3101,2.3101,2.3135,2.3178,2.3222,2.3222,2.3222,2.3222,2.3091,2.3091,2.3101,2.3101,2.3101,2.3101,2.3101,2.3101,2.3101,2.3101,2.3101,2.3101,2.3101,2.3101,2.3101,2.3101,2.3101,2.3101,2.3101,2.3101,2.3101,2.3101,2.3101,2.3101,2.2803,2.2461,2.2324,2.2178,2.1982,2.1797,2.123,2.082,2.084,2.0801,2.0615,2.0615,2.0683,2.0772,2.082,2.0781,2.0801,2.1381,2.1944,2.2661,2.3481,2.4642,1.5825,1.5879,1.6864,1.8133,1.9484,2.0191,2.0995,2.1751,2.1504,2.1045,2.0693,2.0644,2.0644,2.0615,2.0615,2.0615,2.0615,2.0615,2.0615,2.0615,2.0615,2.0615,2.0615,2.0615,2.0615,2.0615,2.0615,2.0615,2.0615,2.0615,2.0615,2.0615,2.0615,2.0615,2.0615,2.0615,2.0635,2.0684,2.0908,2.1045,2.0986,2.0869,2.0644,2.0615,2.0615,2.0801,2.0986,2.1094,2.1367,2.1738,2.2139,2.2334,2.251,2.2672,2.2838,2.2877,2.3052,2.3071,2.3101,2.3101,2.3101,2.3135,2.3178,2.344,2.3527,2.3787,2.3744,2.3647,2.3517,2.3222,2.3135,2.3091,2.3101,2.3101,2.3101,2.3101,2.3101,2.3101,2.3101,2.3101,2.3101,2.3101,2.3101,2.3101,2.3101,2.3101,2.3101,2.3101,2.3101,2.3101,2.3101,2.3101,2.3101,2.3091,2.2935,2.2828,2.2672,2.25,2.2197,2.1709,2.1348,2.1172,2.1035,2.0742,2.0762,2.083,2.0918,2.1074,2.1269,2.1438,2.2181,2.2856,2.3606,2.4531,2.5677]}]]